[[{"header":{"parameterUnit":"m.s-1","parameterCategory":1,"la1":30.6,"la2":29.2853,"lo1":-89.7004,"lo2":-87.6739,"dy":0.0162,"dx":0.0183,"nx":112,"ny":82,"refTime":"2026-02-27T12:00:00:Z","depth":0,"parameterNumber":2,"parameterNumberName":"U-component_of_WINDS"},"data":[0.0,0.0,0.0,0.0,0.0,0.0,0.0,0.0,0.0,0.0,0.0,0.0,0.0,0.0,0.0,0.0,0.0,0.0,0.0,0.0,0.0,0.0,0.0,0.0,0.0,0.0,0.0,0.0,0.0,0.0,0.0,0.0,0.0,0.0,0.0,0.0,0.0,0.0,0.0,0.0,0.0,0.0,0.0,0.0,0.0,0.0,0.0,0.0,0.0,0.0,0.0,0.0,0.0,0.0,0.0,0.0,0.0,0.0,0.0,0.0,0.0,0.0,0.0,0.0,0.0,0.0,0.0,0.0,0.0,0.0,0.0,0.0,0.0,0.0,0.0,0.0,0.0,0.0,0.0,0.0,0.0,0.0,0.0,0.0,0.0,0.0,0.0,0.0,0.0,0.0,-4.5237,-4.548,-4.7807,-4.9431,-4.9647,-4.9083,-4.7273,-4.4039,0.0,0.0,0.0,0.0,0.0,0.0,0.0,0.0,0.0,0.0,0.0,0.0,0.0,0.0,0.0,0.0,0.0,0.0,0.0,0.0,0.0,0.0,0.0,0.0,0.0,0.0,0.0,0.0,0.0,0.0,0.0,0.0,0.0,0.0,0.0,0.0,0.0,0.0,0.0,0.0,0.0,0.0,0.0,0.0,0.0,0.0,0.0,0.0,0.0,0.0,0.0,0.0,0.0,0.0,0.0,0.0,0.0,0.0,0.0,0.0,0.0,0.0,0.0,0.0,0.0,0.0,0.0,0.0,0.0,0.0,0.0,0.0,0.0,0.0,0.0,0.0,0.0,0.0,0.0,0.0,0.0,0.0,0.0,0.0,0.0,0.0,0.0,0.0,0.0,0.0,0.0,0.0,0.0,0.0,0.0,0.0,0.0,0.0,0.0,0.0,0.0,0.0,0.0,0.0,-4.4369,-4.7627,-4.8854,-4.9238,-4.8748,-4.8174,-4.6402,-4.3083,0.0,0.0,0.0,0.0,0.0,0.0,0.0,0.0,0.0,0.0,0.0,0.0,0.0,0.0,0.0,0.0,0.0,0.0,0.0,0.0,0.0,0.0,0.0,0.0,0.0,0.0,0.0,0.0,0.0,0.0,0.0,0.0,0.0,0.0,0.0,0.0,0.0,0.0,0.0,0.0,0.0,0.0,0.0,0.0,0.0,0.0,0.0,0.0,0.0,0.0,0.0,0.0,0.0,0.0,0.0,0.0,0.0,0.0,0.0,0.0,0.0,0.0,0.0,0.0,0.0,0.0,0.0,0.0,0.0,0.0,0.0,0.0,0.0,0.0,0.0,0.0,0.0,0.0,0.0,0.0,0.0,0.0,0.0,0.0,0.0,0.0,0.0,0.0,0.0,0.0,0.0,0.0,0.0,0.0,0.0,0.0,0.0,0.0,0.0,0.0,0.0,0.0,0.0,-4.35,-4.464,-4.7489,-4.8214,-4.842,-4.8341,-4.743,-4.5756,-4.3189,-4.3037,0.0,0.0,0.0,0.0,0.0,0.0,0.0,0.0,0.0,0.0,0.0,0.0,0.0,0.0,0.0,0.0,0.0,0.0,0.0,0.0,0.0,0.0,0.0,0.0,0.0,0.0,0.0,0.0,0.0,0.0,0.0,0.0,0.0,0.0,0.0,0.0,0.0,0.0,0.0,0.0,0.0,0.0,0.0,0.0,0.0,0.0,0.0,0.0,0.0,0.0,0.0,0.0,0.0,0.0,0.0,0.0,0.0,0.0,0.0,0.0,0.0,0.0,0.0,0.0,0.0,0.0,0.0,0.0,0.0,0.0,0.0,0.0,0.0,0.0,0.0,0.0,0.0,0.0,0.0,0.0,0.0,0.0,0.0,0.0,0.0,0.0,0.0,0.0,0.0,0.0,0.0,0.0,0.0,0.0,0.0,0.0,0.0,0.0,0.0,0.0,0.0,0.0,-4.395,-4.5096,-4.6575,-4.7144,-4.7532,-4.7846,-4.6515,-4.4938,-4.3115,-4.2211,0.0,0.0,0.0,0.0,0.0,0.0,0.0,0.0,0.0,0.0,0.0,0.0,0.0,0.0,0.0,0.0,0.0,0.0,0.0,0.0,0.0,0.0,0.0,0.0,0.0,0.0,0.0,0.0,0.0,0.0,0.0,0.0,0.0,0.0,0.0,0.0,0.0,0.0,0.0,0.0,0.0,0.0,0.0,0.0,0.0,0.0,0.0,0.0,0.0,0.0,0.0,0.0,0.0,0.0,0.0,0.0,0.0,0.0,0.0,0.0,0.0,0.0,0.0,0.0,0.0,0.0,0.0,0.0,0.0,0.0,0.0,0.0,0.0,0.0,0.0,0.0,0.0,0.0,0.0,0.0,0.0,0.0,0.0,0.0,0.0,0.0,0.0,0.0,0.0,0.0,0.0,0.0,0.0,0.0,0.0,0.0,0.0,0.0,0.0,0.0,0.0,0.0,-4.3392,-4.527,-4.5411,-4.6286,-4.6853,-4.6882,-4.5198,-4.3615,-4.2279,-4.0971,0.0,0.0,0.0,0.0,0.0,0.0,0.0,0.0,0.0,0.0,0.0,0.0,0.0,0.0,0.0,0.0,0.0,0.0,0.0,0.0,0.0,0.0,0.0,0.0,0.0,0.0,0.0,0.0,0.0,0.0,0.0,0.0,0.0,0.0,0.0,0.0,0.0,0.0,0.0,0.0,0.0,0.0,0.0,0.0,0.0,0.0,0.0,0.0,0.0,0.0,0.0,0.0,0.0,0.0,0.0,0.0,0.0,0.0,0.0,0.0,0.0,0.0,0.0,0.0,0.0,0.0,0.0,0.0,0.0,0.0,0.0,0.0,0.0,0.0,0.0,0.0,0.0,0.0,0.0,0.0,0.0,0.0,0.0,0.0,0.0,0.0,0.0,0.0,0.0,0.0,0.0,0.0,0.0,0.0,0.0,0.0,0.0,0.0,0.0,0.0,0.0,0.0,-4.137,-4.2854,0.0,-4.4109,-4.4299,-4.4299,-4.3659,-4.2405,-4.0427,0.0,0.0,0.0,0.0,0.0,0.0,0.0,0.0,0.0,0.0,0.0,0.0,0.0,0.0,0.0,0.0,0.0,0.0,0.0,0.0,0.0,0.0,0.0,0.0,0.0,0.0,0.0,0.0,0.0,0.0,0.0,0.0,0.0,0.0,0.0,0.0,0.0,0.0,0.0,0.0,0.0,0.0,0.0,0.0,0.0,0.0,0.0,0.0,0.0,0.0,0.0,0.0,0.0,0.0,0.0,0.0,0.0,0.0,0.0,0.0,0.0,0.0,0.0,0.0,0.0,0.0,0.0,0.0,0.0,0.0,0.0,0.0,0.0,0.0,0.0,0.0,0.0,0.0,0.0,0.0,0.0,0.0,0.0,0.0,0.0,0.0,0.0,0.0,0.0,0.0,0.0,0.0,0.0,0.0,0.0,0.0,0.0,0.0,0.0,0.0,0.0,0.0,-3.8613,-4.0228,-4.1673,0.0,-4.3278,-4.3665,-4.3855,-4.3291,-4.2018,-3.9871,0.0,0.0,0.0,0.0,0.0,0.0,0.0,0.0,0.0,0.0,0.0,0.0,0.0,0.0,0.0,0.0,0.0,0.0,0.0,0.0,0.0,0.0,0.0,0.0,0.0,0.0,0.0,0.0,0.0,0.0,0.0,0.0,0.0,0.0,0.0,0.0,0.0,0.0,0.0,0.0,0.0,0.0,0.0,0.0,0.0,0.0,0.0,0.0,0.0,0.0,0.0,0.0,0.0,0.0,0.0,0.0,0.0,0.0,0.0,0.0,0.0,0.0,0.0,0.0,0.0,0.0,0.0,0.0,0.0,0.0,0.0,0.0,0.0,0.0,0.0,0.0,0.0,0.0,0.0,0.0,0.0,0.0,0.0,0.0,0.0,0.0,0.0,0.0,0.0,0.0,0.0,0.0,0.0,0.0,0.0,0.0,0.0,0.0,0.0,0.0,0.0,0.0,-3.7684,-4.0259,-4.2318,-4.284,-4.433,-4.5464,-4.603,-4.4388,-4.2609,0.0,0.0,0.0,0.0,0.0,0.0,0.0,0.0,0.0,0.0,0.0,0.0,0.0,0.0,0.0,0.0,0.0,0.0,0.0,0.0,0.0,0.0,0.0,0.0,0.0,0.0,0.0,0.0,0.0,0.0,0.0,0.0,0.0,0.0,0.0,0.0,0.0,0.0,0.0,0.0,0.0,0.0,0.0,0.0,0.0,0.0,0.0,0.0,0.0,0.0,0.0,0.0,0.0,0.0,0.0,0.0,0.0,0.0,0.0,0.0,0.0,0.0,0.0,0.0,0.0,0.0,0.0,0.0,0.0,0.0,0.0,0.0,0.0,0.0,0.0,0.0,0.0,0.0,0.0,0.0,0.0,0.0,0.0,0.0,0.0,0.0,0.0,0.0,0.0,0.0,0.0,0.0,0.0,0.0,0.0,0.0,0.0,0.0,0.0,0.0,0.0,0.0,0.0,-3.78,-4.0388,-4.2398,-4.2903,-4.338,-4.3753,-4.3907,-4.3031,-4.1466,-3.9025,0.0,0.0,0.0,0.0,0.0,0.0,0.0,0.0,0.0,0.0,0.0,0.0,0.0,0.0,0.0,0.0,0.0,0.0,0.0,0.0,0.0,0.0,0.0,0.0,0.0,0.0,0.0,0.0,0.0,0.0,0.0,0.0,0.0,0.0,0.0,0.0,0.0,0.0,0.0,0.0,0.0,0.0,0.0,0.0,0.0,0.0,0.0,0.0,0.0,0.0,0.0,0.0,0.0,0.0,0.0,0.0,0.0,0.0,0.0,0.0,0.0,0.0,0.0,0.0,0.0,0.0,0.0,0.0,0.0,0.0,0.0,0.0,0.0,0.0,0.0,0.0,0.0,0.0,0.0,0.0,0.0,0.0,0.0,0.0,0.0,0.0,0.0,0.0,0.0,0.0,0.0,0.0,0.0,0.0,0.0,0.0,0.0,0.0,0.0,0.0,0.0,0.0,-3.7667,-4.0361,-4.2451,-4.3223,-4.344,-4.3721,-4.3888,-4.3248,-4.1629,-3.8812,0.0,0.0,0.0,0.0,0.0,0.0,0.0,0.0,0.0,0.0,0.0,0.0,0.0,0.0,0.0,0.0,0.0,0.0,0.0,0.0,0.0,0.0,0.0,0.0,0.0,0.0,0.0,0.0,0.0,0.0,0.0,0.0,0.0,0.0,0.0,0.0,0.0,0.0,0.0,0.0,0.0,0.0,0.0,0.0,0.0,0.0,0.0,0.0,0.0,0.0,0.0,0.0,0.0,0.0,0.0,0.0,0.0,0.0,0.0,0.0,0.0,0.0,0.0,0.0,0.0,0.0,0.0,0.0,0.0,0.0,0.0,0.0,0.0,0.0,0.0,0.0,0.0,0.0,0.0,0.0,0.0,0.0,0.0,0.0,0.0,0.0,0.0,0.0,0.0,0.0,0.0,0.0,0.0,0.0,0.0,0.0,0.0,0.0,0.0,0.0,0.0,0.0,-3.7294,-3.9976,-4.2223,-4.3378,-4.3975,-4.4609,-4.5098,-4.4203,-4.252,-3.9658,0.0,0.0,0.0,0.0,0.0,0.0,0.0,0.0,0.0,0.0,0.0,0.0,0.0,0.0,0.0,0.0,0.0,0.0,0.0,0.0,0.0,0.0,0.0,0.0,0.0,0.0,0.0,0.0,0.0,0.0,0.0,0.0,0.0,0.0,0.0,0.0,0.0,0.0,0.0,0.0,0.0,0.0,0.0,0.0,0.0,0.0,0.0,0.0,0.0,0.0,0.0,0.0,0.0,0.0,0.0,0.0,0.0,0.0,0.0,0.0,-3.4358,-3.4476,0.0,0.0,0.0,0.0,0.0,0.0,0.0,0.0,0.0,0.0,0.0,0.0,0.0,0.0,0.0,0.0,0.0,0.0,0.0,0.0,0.0,0.0,0.0,0.0,0.0,0.0,0.0,0.0,0.0,0.0,0.0,0.0,0.0,0.0,0.0,0.0,0.0,0.0,0.0,0.0,-3.6767,-3.885,-4.0571,-4.1599,-4.2747,-4.3512,-4.363,-4.3699,-4.2296,-3.9022,-3.6549,0.0,0.0,0.0,0.0,0.0,0.0,0.0,0.0,0.0,0.0,0.0,0.0,0.0,0.0,0.0,0.0,0.0,0.0,0.0,0.0,0.0,0.0,0.0,0.0,0.0,0.0,0.0,0.0,0.0,0.0,0.0,0.0,0.0,0.0,0.0,0.0,0.0,0.0,0.0,0.0,0.0,0.0,0.0,0.0,0.0,0.0,0.0,0.0,0.0,0.0,0.0,0.0,0.0,0.0,0.0,0.0,0.0,0.0,0.0,-3.478,-3.4404,0.0,0.0,0.0,0.0,0.0,0.0,0.0,0.0,0.0,0.0,0.0,0.0,0.0,0.0,0.0,0.0,0.0,0.0,0.0,0.0,0.0,0.0,0.0,0.0,0.0,0.0,0.0,0.0,0.0,0.0,0.0,0.0,0.0,0.0,0.0,0.0,0.0,0.0,0.0,0.0,-3.5622,-3.7828,-3.9582,-4.0578,-4.1332,-4.1779,-4.1779,-4.166,-4.056,-3.8063,-3.5785,0.0,0.0,0.0,0.0,0.0,0.0,0.0,0.0,0.0,0.0,0.0,0.0,0.0,0.0,0.0,0.0,0.0,0.0,0.0,0.0,0.0,0.0,0.0,0.0,0.0,0.0,0.0,0.0,0.0,0.0,0.0,0.0,0.0,0.0,0.0,0.0,0.0,0.0,0.0,0.0,0.0,0.0,0.0,0.0,0.0,0.0,0.0,0.0,0.0,0.0,0.0,0.0,0.0,-3.5013,-3.5508,-3.5775,-3.6194,-3.6232,-3.5908,-3.5084,-3.4351,-3.3867,-3.3867,0.0,0.0,0.0,0.0,0.0,0.0,0.0,0.0,0.0,0.0,0.0,0.0,0.0,0.0,0.0,0.0,0.0,0.0,0.0,0.0,0.0,0.0,0.0,0.0,-3.1519,-3.2535,-3.2606,0.0,0.0,0.0,0.0,0.0,0.0,0.0,0.0,0.0,0.0,0.0,-3.4217,-3.6518,-3.8358,-3.9259,-3.9627,-3.9801,-3.9801,-3.954,-3.8777,-3.7209,-3.5236,-3.3338,0.0,0.0,0.0,0.0,0.0,0.0,0.0,0.0,0.0,0.0,0.0,0.0,0.0,0.0,0.0,0.0,0.0,0.0,0.0,0.0,0.0,0.0,0.0,0.0,0.0,0.0,0.0,0.0,0.0,0.0,0.0,0.0,-3.6371,-3.5513,0.0,0.0,0.0,0.0,0.0,0.0,0.0,0.0,0.0,0.0,0.0,0.0,0.0,-3.0857,-3.084,-3.2219,-3.2753,-3.2474,-3.4346,-3.502,-3.4684,-3.5046,-3.5452,-3.5729,-3.5573,0.0,-3.5684,-3.5684,0.0,0.0,0.0,0.0,0.0,0.0,0.0,0.0,0.0,0.0,0.0,0.0,0.0,0.0,0.0,0.0,0.0,0.0,0.0,0.0,0.0,0.0,-3.2171,-3.1737,-3.2758,-3.3858,0.0,-3.1781,-2.9694,-2.8761,-2.8563,0.0,0.0,0.0,0.0,0.0,0.0,0.0,-3.2618,-3.4205,-3.5409,-3.601,-3.7437,-3.8374,-3.8374,-3.9024,-3.8679,-3.6938,-3.5142,-3.3672,-3.2819,-3.0714,0.0,0.0,0.0,0.0,0.0,0.0,0.0,0.0,0.0,0.0,0.0,0.0,0.0,0.0,0.0,0.0,0.0,0.0,0.0,0.0,0.0,0.0,0.0,0.0,0.0,0.0,0.0,0.0,0.0,-3.5541,-3.5521,-3.3723,-3.469,-3.4606,0.0,0.0,0.0,0.0,0.0,0.0,0.0,0.0,0.0,-3.0211,-3.0595,-3.1227,-3.2002,-3.2846,-3.3375,-3.3719,-3.4595,-3.5011,-3.5044,-3.5194,-3.536,-3.5608,-3.5608,-3.556,-3.545,-3.4809,-3.3783,-3.2575,0.0,0.0,0.0,0.0,-2.9241,-2.8935,-2.911,-2.8808,-2.8511,-2.846,0.0,0.0,0.0,0.0,0.0,0.0,0.0,0.0,0.0,0.0,-3.0306,-3.0547,-3.1316,-3.1897,-3.1684,-3.0413,-2.9465,0.0,-2.9707,-2.89,-2.7408,0.0,0.0,0.0,0.0,-3.0897,-3.1816,-3.3358,-3.4609,-3.5312,-3.615,-3.6683,-3.6924,-3.7258,-3.7085,-3.6067,-3.4779,-3.3815,-3.3253,-3.1379,-3.0143,0.0,0.0,0.0,0.0,0.0,0.0,0.0,0.0,0.0,0.0,0.0,0.0,0.0,0.0,0.0,0.0,0.0,0.0,0.0,0.0,0.0,0.0,0.0,0.0,0.0,0.0,0.0,0.0,-3.4851,-3.4892,-3.2585,-3.3728,-3.3726,0.0,0.0,0.0,0.0,0.0,0.0,-2.9488,-2.9552,-2.9887,-3.028,-3.0639,-3.1386,-3.2328,-3.2673,-3.3097,-3.3766,-3.3861,-3.4034,-3.4356,-3.4366,-3.4413,-3.4413,-3.4413,-3.4245,-3.3889,-3.3595,-3.2768,-3.1555,-3.0747,-3.0306,-2.9921,-2.939,-2.9023,-2.8846,-2.9398,-2.9341,-2.8923,-2.86,-2.8041,-2.7105,-2.5423,0.0,0.0,0.0,0.0,-2.5961,-2.6867,-2.7704,-2.8445,-2.9212,-2.984,-3.0244,-2.9909,-2.9421,-2.9539,0.0,-3.0581,-2.9641,-2.852,0.0,0.0,0.0,0.0,-3.0684,-3.1582,-3.3086,-3.4316,-3.498,-3.5156,-3.5391,-3.582,-3.5859,-3.5762,-3.5566,-3.4844,-3.4258,-3.3945,-3.25,-3.125,-3.0311,0.0,0.0,0.0,0.0,0.0,0.0,0.0,0.0,0.0,0.0,0.0,0.0,0.0,0.0,0.0,0.0,0.0,0.0,0.0,0.0,0.0,0.0,0.0,0.0,0.0,0.0,0.0,0.0,0.0,-3.2728,-3.2874,0.0,0.0,0.0,0.0,-2.9195,-3.0316,-3.045,-2.9078,-3.0378,-3.0455,-2.9072,-2.9677,-3.0015,-3.0057,-3.0438,-3.0594,-3.0636,-3.0932,-3.1088,-3.1102,-3.1398,-3.1525,-3.1525,-3.1525,-3.1187,-3.0809,-3.288,-3.3556,-3.3191,-3.2315,-3.1961,-3.1728,-2.9663,-2.9108,-2.9033,-2.7373,-2.665,-2.6537,-2.7368,-2.7081,-2.6339,-2.5637,-2.5569,0.0,0.0,-2.5291,-2.6002,-2.5527,-2.6689,-2.8141,-2.8493,-2.9481,-3.031,-3.0277,-2.9576,-2.9311,0.0,-3.001,-2.9554,-2.9986,0.0,-2.9528,-2.9434,-3.0254,-3.1172,-3.2031,-3.3262,-3.4082,-3.4141,-3.4492,-3.4922,-3.5391,-3.543,-3.5586,-3.5957,-3.5566,-3.5312,-3.5293,-3.4394,-3.332,-3.207,-3.08,0.0,0.0,0.0,0.0,0.0,0.0,0.0,0.0,0.0,0.0,0.0,0.0,0.0,0.0,0.0,0.0,0.0,0.0,0.0,0.0,0.0,0.0,0.0,0.0,0.0,0.0,0.0,0.0,-3.1506,-3.2526,0.0,-3.0746,-2.9864,-2.9425,-2.9624,-2.9404,-2.931,-2.9168,-2.9369,-2.9367,-2.8992,-2.9398,-2.9602,-2.9602,-2.9887,-3.0036,-3.0036,-3.0233,-3.0287,-3.0287,-3.0396,-3.0361,-3.0361,-3.0361,-3.0097,-2.9526,-3.0354,-3.0622,-3.0557,-2.9952,-2.963,-2.9297,-2.8525,-2.8114,-2.796,-2.7305,-2.6849,-2.6551,-2.6293,-2.5944,-2.5427,-2.4816,-2.4735,-2.4732,-2.4567,-2.483,-2.5146,-2.5411,-2.5929,-2.6346,-2.6336,-2.6655,-2.688,-2.6677,-2.643,-2.6617,-2.7862,-2.8065,-2.8037,-2.7939,-2.8643,-2.9028,-2.875,-3.0405,-3.1914,-3.25,-3.3203,-3.3769,-3.4043,-3.4219,-3.4473,-3.4902,-3.4941,-3.5019,-3.5156,-3.4785,-3.4668,-3.4941,-3.4375,-3.373,-3.2988,-3.1973,-3.0351,0.0,0.0,0.0,0.0,0.0,0.0,0.0,0.0,0.0,0.0,0.0,0.0,0.0,0.0,0.0,0.0,0.0,0.0,0.0,0.0,0.0,0.0,0.0,0.0,0.0,-3.093,-3.1533,-3.058,-3.1542,-3.1706,-3.0275,-2.955,-2.92,-2.9401,-2.8952,-2.8897,-2.929,-2.9165,-2.9138,-2.9325,-2.9526,-2.9633,-2.9633,-2.982,-2.9913,-2.9913,-2.9913,-2.9913,-2.9913,-2.9913,-2.9913,-2.9913,-2.9913,-2.9579,-2.9045,-2.9045,-2.8906,-2.8745,-2.8455,-2.8222,-2.7975,-2.7975,-2.781,-2.7535,-2.7335,-2.7068,-2.6694,-2.5919,-2.5531,-2.5291,-2.4796,-2.4649,-2.469,-2.4877,-2.501,-2.517,-2.5558,-2.5585,-2.5464,-2.5277,-2.5077,-2.4877,-2.4676,-2.4622,-2.4911,-2.5883,-2.6588,-2.7032,-2.7117,-2.7836,-2.8474,-2.8453,-3.0217,-3.1765,-3.2568,-3.2976,-3.3408,-3.3828,-3.3784,-3.3895,-3.4453,-3.4355,-3.4394,-3.4687,-3.416,-3.3979,-3.4342,-3.3881,-3.3374,-3.282,-3.1754,-3.0199,-2.8172,0.0,0.0,0.0,0.0,0.0,0.0,0.0,0.0,0.0,0.0,0.0,0.0,0.0,0.0,0.0,0.0,0.0,0.0,0.0,0.0,0.0,0.0,0.0,-2.9993,-3.0496,-3.0425,-3.0091,-2.9844,-2.9449,-2.8876,-2.8668,-2.8657,-2.8657,-2.9179,-2.9499,-2.9499,-2.9766,-2.9913,-2.9913,-2.9913,-2.9913,-2.9913,-2.9913,-2.9913,-2.9913,-2.9913,-2.9913,-2.9913,-2.9913,-2.9913,-2.9913,-2.99,-2.9579,-2.9045,-2.9032,-2.8671,-2.8221,-2.8221,-2.8221,-2.8221,-2.8221,-2.8221,-2.814,-2.7482,-2.7081,-2.6747,-2.6172,-2.605,-2.5919,-2.5625,-2.5545,-2.5545,-2.5545,-2.5745,-2.605,-2.605,-2.5745,-2.5518,-2.5518,-2.5077,-2.4649,-2.4562,-2.4636,-2.4636,-2.4636,-2.5598,-2.6753,-2.7682,-2.7638,-2.7794,-2.8769,-2.96,0.0,-3.2003,-3.2472,-3.2912,-3.3272,-3.3038,-3.3148,-3.4004,-3.3652,-3.3706,-3.459,-3.3803,-3.3403,-3.3553,-3.3034,-3.2432,-3.1738,-2.9988,-2.8781,-2.803,0.0,0.0,0.0,0.0,0.0,0.0,0.0,0.0,0.0,0.0,0.0,0.0,0.0,0.0,0.0,0.0,0.0,0.0,0.0,0.0,0.0,-2.6082,-2.6815,-2.7582,-2.8197,-2.8921,-2.9971,-3.0178,-3.0267,-3.0536,-3.0164,-2.9873,-2.9873,-2.9833,-2.9793,-2.9793,-2.9873,-2.9913,-2.9913,-2.9913,-2.9913,-2.9913,-2.9913,-2.9913,-2.9913,-2.9913,-2.9913,-2.9913,-2.9913,-2.9913,-2.99,-2.9686,-2.9392,-2.9018,-2.8818,-2.8497,-2.8221,-2.8221,-2.8221,-2.8221,-2.8221,-2.8221,-2.8167,-2.7709,-2.7388,-2.7081,-2.6707,-2.644,-2.6253,-2.6172,-2.6146,-2.6146,-2.6146,-2.6213,-2.6266,-2.6266,-2.6052,-2.5785,-2.5558,-2.5224,-2.4903,-2.469,-2.4636,-2.4636,-2.4636,-2.477,-2.4832,-2.4946,-2.5775,-2.6429,-2.6471,-2.7753,0.0,-2.9271,-2.9422,-2.9907,-3.0964,-3.1267,-3.1779,-3.2724,-3.2942,-3.2873,-3.2606,-3.2377,-3.2123,-3.187,-3.2071,-3.2205,-3.2289,-3.0572,-2.9582,0.0,0.0,0.0,0.0,0.0,0.0,0.0,0.0,0.0,0.0,0.0,0.0,0.0,0.0,0.0,0.0,0.0,0.0,0.0,0.0,0.0,0.0,-2.6507,-2.7161,-2.7526,-2.8097,-2.8947,-3.0055,-3.0536,-3.0849,-3.1196,-3.0808,-3.0488,-3.0368,-3.0087,-2.9913,-2.9913,-2.9913,-2.9913,-2.9913,-2.9913,-2.9913,-2.9913,-2.9913,-2.9913,-2.9913,-2.9913,-2.9913,-2.9913,-2.9913,-2.9913,-2.99,-2.9606,-2.9312,-2.9018,-2.8724,-2.843,0.0,0.0,0.0,0.0,0.0,-2.8221,-2.8181,-2.7802,-2.7589,-2.7375,-2.6961,-2.6707,-2.6547,-2.6426,-2.6386,-2.6386,-2.6386,-2.6386,-2.6386,-2.6386,-2.6172,-2.5879,-2.5585,-2.5291,-2.4997,-2.4703,-2.4636,-2.4636,-2.4636,-2.4502,0.0,-2.3995,-2.4497,-2.4962,-2.5172,-2.6254,-2.7256,-2.7622,-2.7818,-2.8344,-2.9388,-2.9578,-3.0027,-3.0822,-3.0861,0.0,0.0,0.0,-2.9269,-2.8774,-2.9416,0.0,0.0,0.0,0.0,0.0,0.0,0.0,0.0,-2.8542,-2.9161,0.0,0.0,0.0,0.0,0.0,0.0,0.0,0.0,0.0,0.0,0.0,0.0,0.0,0.0,0.0,0.0,-2.7324,-2.815,-2.9018,-2.9419,-2.9833,-3.0354,-3.0889,-3.1223,-3.1223,-3.0969,-3.0675,-3.0381,-3.0087,-2.9913,-2.9913,-2.9913,0.0,0.0,0.0,-2.9913,-2.9913,-2.9913,-2.9913,-2.9913,-2.9913,-2.9913,-2.9913,-2.9913,-2.9913,-2.99,-2.9579,-2.9285,-2.9018,-2.8684,-2.839,-2.8221,-2.8221,-2.8221,-2.8221,-2.8221,-2.8221,-2.8194,-2.7843,0.0,0.0,-2.7054,-2.6854,-2.6774,-2.648,-2.6386,-2.6386,-2.6386,-2.6386,-2.6386,-2.6386,-2.6172,-2.5879,-2.5585,-2.5291,-2.4997,-2.4703,-2.4636,-2.4636,-2.4636,-2.4636,-2.4556,-2.4302,-2.3768,-2.3678,-2.4513,-2.4955,-2.5531,-2.6414,-2.6849,-2.7366,-2.814,0.0,0.0,-2.8813,-2.8374,-2.8129,-2.8425,-2.7082,-2.6052,-2.5414,-2.6236,-2.6936,-2.7349,-2.817,-2.8638,-2.8714,-2.8344,-2.7998,-2.7615,-2.8211,-2.9531,0.0,0.0,0.0,0.0,0.0,0.0,0.0,0.0,0.0,0.0,0.0,0.0,0.0,0.0,0.0,-2.7444,-2.8254,-2.9005,-2.9659,-3.0207,-3.0581,-3.0702,-3.1022,-3.1223,-3.1223,-3.0969,-3.0675,-3.0381,-3.0087,-2.9913,-2.9913,-2.9913,-2.9913,-2.9913,-2.9913,-2.9913,-2.9913,-2.9913,-2.9913,-2.9913,0.0,0.0,-2.9913,-2.9913,-2.9913,-2.9887,-2.9352,-2.9085,-2.8991,-2.8457,-2.8274,-2.8221,-2.8221,-2.8221,-2.8221,-2.8221,-2.8221,-2.8221,-2.8167,-2.7896,-2.7642,-2.7295,-2.7014,-2.6774,-2.648,-2.6386,0.0,-2.6386,-2.6386,-2.6386,-2.6386,-2.6172,-2.5879,-2.5585,-2.5291,-2.4997,-2.4703,-2.4636,-2.4636,-2.4636,-2.4636,-2.4549,-2.4556,-2.4075,-2.3651,-2.3622,-2.3488,-2.3434,-2.365,-2.376,-2.4345,-2.5809,-2.6186,-2.6861,-2.8012,-2.8293,-2.808,-2.7398,-2.6503,-2.5929,-2.5786,-2.5976,-2.6407,-2.7035,-2.7457,-2.7925,-2.8521,-2.8659,-2.8869,-2.9082,-2.8406,-2.8419,0.0,0.0,0.0,0.0,0.0,0.0,0.0,0.0,0.0,0.0,0.0,-2.5332,-2.5937,0.0,-2.7405,-2.8457,-2.9078,-2.9686,-3.0274,-3.0728,-3.0955,-3.0808,-3.1183,-3.1383,-3.1236,-3.0969,-3.0675,-3.0381,-3.0087,-2.9913,-2.9913,-2.9913,-2.9913,-2.9913,-2.9913,-2.9913,-2.9913,-2.9913,-2.9913,-2.9913,-2.9913,-2.9913,-2.9913,-2.9913,-2.9913,-2.9887,-2.9446,-2.9179,-2.8991,-2.839,-2.8221,-2.8221,-2.8221,-2.8221,-2.8221,-2.8221,-2.8221,-2.8221,-2.8221,-2.8127,-2.7843,-2.7402,-2.7161,-2.6961,-2.652,-2.6386,-2.6386,-2.6386,-2.6386,-2.6386,-2.6386,-2.6279,-2.6106,-2.5798,-2.5518,-2.5211,-2.4917,-2.4743,-2.4636,-2.4636,-2.4636,-2.4636,-2.4636,-2.4275,-2.3888,-2.3594,-2.3153,-2.2928,-2.2928,-2.2993,-2.3486,-2.4455,-2.4876,-2.5413,-2.6193,-2.6279,-2.6,-2.5232,-2.4815,-2.4567,-2.4392,-2.4988,-2.5686,-2.6474,-2.7274,-2.764,-2.7696,-2.7791,-2.7759,-2.7492,-2.7012,-2.7758,0.0,0.0,0.0,0.0,0.0,0.0,0.0,0.0,-2.5439,-2.5561,-2.5718,-2.6076,-2.7039,-2.7458,-2.8123,-2.9446,-2.9847,-3.0207,-3.0795,-3.1129,-3.1196,-3.0915,-3.1343,-3.153,-3.1169,-3.0929,-3.0648,-3.0301,-3.0047,-2.9913,-2.9913,-2.9913,-2.9913,-2.9913,-2.9913,-2.9913,-2.9913,-2.9913,-2.9913,-2.9913,-2.9913,-2.9913,-2.9913,-2.986,-2.9833,-2.9806,-2.9459,-2.9138,-2.8831,-2.8337,-2.8221,-2.8221,-2.8221,-2.8221,-2.8221,-2.8221,-2.8221,-2.8221,-2.8221,-2.8221,-2.8127,-2.7537,-2.7268,-2.7161,-2.6573,-2.6386,-2.6386,-2.6386,-2.6386,-2.6386,-2.6386,-2.6386,-2.6319,-2.6026,-2.5772,-2.5504,-2.5157,-2.489,-2.4703,-2.4649,-2.4636,-2.4636,-2.4636,-2.4396,-2.4128,-2.3888,-2.3394,-2.3046,-2.3046,-2.326,-2.3527,-2.3821,-2.4062,-2.4329,-2.4609,-2.4422,-2.4088,-2.3607,-2.3581,-2.3474,-2.322,-2.4177,-2.5011,-2.5711,-2.6713,-2.7042,-2.6616,-2.6674,-2.6374,-2.5772,-2.5772,-2.7255,-2.5092,-2.4863,-2.5213,-2.6076,-2.6228,-2.6324,0.0,0.0,-2.7075,-2.7095,-2.7671,-2.8288,-2.8422,-2.8845,-2.9459,-3.0154,-3.0287,-3.0515,-3.1089,-3.1436,-3.1517,-3.1209,-3.1476,-3.145,-3.0889,-3.0808,-3.0568,-3.0007,-2.994,-2.9913,-2.9913,-2.9913,-2.9913,-2.9913,-2.9913,-2.9913,-2.9913,-2.9913,-2.9913,-2.9913,-2.9913,-2.9913,-2.9913,-2.9646,-2.9526,-2.9499,-2.8951,-2.8524,-2.8243,-2.8261,-2.8221,-2.8221,-2.8221,-2.8221,-2.8221,-2.8221,-2.8221,-2.8221,-2.8221,-2.8221,-2.8127,-2.7537,-2.7268,-2.7161,-2.6573,-2.6386,-2.6386,-2.6386,-2.6386,-2.6386,-2.6386,-2.6386,-2.6319,-2.6026,-2.601,-2.5758,-2.5197,-2.505,-2.4957,-2.469,-2.4636,-2.4636,-2.4636,-2.4396,-2.4195,-2.4155,-2.3875,-2.3674,-2.3674,-2.3701,-2.3834,-2.4128,-2.4182,-2.4329,-2.4609,-2.4609,-2.4556,-2.4489,-2.4416,-2.4476,-2.4436,-2.434,-2.4413,-2.4736,-2.4896,-2.5181,-2.5639,-2.5986,-2.6262,-2.668,-2.668,-2.6853,-2.5886,-2.5798,-2.6152,-2.7271,-2.7736,-2.7947,-2.8191,-2.8235,-2.8179,-2.806,-2.8484,-2.8911,-2.9085,-2.9459,-2.9927,-3.0515,-3.0608,-3.0822,-3.1396,-3.1436,-3.137,-3.1236,-3.1183,-3.1062,-3.0822,-3.0635,-3.0368,-2.9953,-2.9913,-2.9913,-2.9913,-2.9913,-2.9913,-2.9913,-2.9913,-2.9913,-2.9913,-2.9913,-2.9833,-2.9659,-2.9659,-2.9579,-2.9406,-2.9285,-2.9219,-2.9205,-2.8791,-2.8537,-2.8404,-2.8301,-2.8221,-2.8221,-2.8221,-2.8221,-2.8221,-2.8221,-2.8221,-2.8221,-2.8221,-2.8221,-2.8154,-2.7655,-2.7402,-2.7188,-2.676,-2.652,-2.6386,-2.6386,-2.6386,-2.6386,-2.6386,-2.6386,-2.636,-2.6239,-2.6079,-2.5838,-2.5424,-2.5197,-2.4997,-2.469,-2.4636,-2.4636,-2.4636,-2.4529,-2.4449,-2.4449,-2.4062,-2.3768,-2.3768,-2.3915,-2.4142,-2.4422,-2.4449,-2.4502,-2.4623,-2.4636,-2.4636,-2.4636,-2.4636,-2.4636,-2.4636,-2.4516,-2.4516,-2.4636,-2.497,-2.5358,-2.5772,-2.6239,-2.6667,-2.7081,-2.7081,-2.7175,-2.6471,-2.6837,-2.7361,-2.8318,-2.9101,-2.948,-2.9168,-2.9145,-2.9163,-2.9132,-2.9259,-2.9472,-2.9686,-2.9833,-3.0114,-3.0702,-3.0795,-3.0996,-3.1583,-3.149,-3.1289,-3.1129,-3.0849,-3.0635,-3.0555,-3.0434,-3.0234,-2.994,-2.9362,-2.9362,-2.9824,-2.9362,-2.9362,-2.9913,-2.9913,-2.9913,-2.9913,-2.9833,-2.9686,-2.9486,-2.9406,-2.9245,-2.9032,-2.8951,-2.8871,-2.8778,-2.8564,-2.8484,-2.8457,-2.8315,-2.8221,-2.8221,-2.8221,-2.8221,-2.8221,-2.8221,-2.8221,-2.8221,-2.8221,-2.8221,-2.8181,-2.7789,-2.7509,-2.7215,-2.6907,-2.6613,-2.6386,-2.6386,-2.6386,-2.6386,-2.6386,-2.6386,-2.6386,-2.6386,-2.6226,-2.5999,-2.5692,-2.5464,-2.5211,-2.4836,-2.4756,-2.473,-2.4649,-2.4636,-2.4636,-2.4636,-2.4275,-2.4008,-2.4008,-2.4195,-2.4396,-2.4609,-2.4636,-2.4636,-2.4636,-2.4716,-2.4756,-2.4756,-2.4836,-2.4917,-2.4997,-2.4917,-2.4957,-2.5117,-2.5464,-2.5825,-2.6199,-2.6613,-2.7014,-2.7388,-2.7388,-2.7495,-2.6413,-2.7656,-2.8919,-2.9406,-3.0241,-3.071,-3.0211,-3.0231,-3.0392,-3.0301,-3.0314,-3.0327,-3.0327,-3.01,-3.0114,-3.0702,-3.0795,-3.0996,-3.1583,-3.1664,-3.145,-3.0875,-3.0555,-3.0261,0.0,-3.0194,-3.0234,-2.994,-2.8166,-2.7895,-2.9824,-2.8076,-2.7985,-2.9824,-2.9913,-2.9913,-2.9913,-2.9633,-2.9486,-2.9486,-2.9192,-2.9045,-2.9032,-2.8751,-2.8457,-2.8248,-2.8248,-2.8248,-2.8248,-2.8234,-2.8221,-2.8221,-2.8221,-2.8221,-2.8221,-2.8221,-2.8221,-2.8221,-2.8221,-2.8221,-2.8181,-2.7789,-2.7509,-2.7215,-2.6907,-2.6613,-2.6386,-2.6386,-2.6386,-2.6386,-2.6386,-2.6386,-2.6386,-2.6386,-2.6386,-2.6293,-2.6012,-2.601,-2.5836,-2.5184,-2.5064,-2.497,-2.469,-2.4636,-2.4636,-2.4636,-2.4623,-2.4609,-2.4609,-2.4549,-2.4623,-2.4636,-2.4636,-2.4636,-2.4636,-2.4903,-2.5064,-2.5064,-2.5331,-2.5611,-2.5905,-2.5638,-2.5758,-2.6319,-2.6079,-2.6226,-2.68,-2.6814,-2.7121,-2.7682,-2.7682,-2.7696,-2.7773,-2.9105,-3.0219,-3.0637,-3.1418,-3.1903,-3.1002,-3.0887,-3.0875,-3.0688,-3.0034,-2.9486,-2.9486,-2.9245,-2.9245,-2.9833,-3.0408,-3.0996,-3.1583,-3.1503,-3.1156,-3.0581,-3.0247,0.0,0.0,0.0,-2.982,-2.9913,-2.9272,-2.9182,-2.9824,-2.9272,-2.9182,-2.9913,-2.9726,-2.9633,-2.9633,-2.9339,-2.9098,-2.8898,-2.8591,-2.8444,-2.8444,-2.8337,-2.8328,-2.8221,-2.8221,-2.8221,-2.8221,-2.8221,-2.8221,-2.8221,-2.8221,-2.8221,-2.8221,-2.8221,-2.8221,-2.8221,-2.8221,-2.8221,-2.8207,-2.8114,-2.7669,-2.7241,-2.7148,-2.6774,-2.6386,-2.6386,-2.6386,-2.6386,-2.6386,-2.6386,-2.6386,-2.6386,-2.6386,-2.6306,-2.609,-2.6037,-2.5838,-2.5438,-2.5371,-2.5331,-2.5237,-2.5064,-2.4863,-2.4663,-2.4636,-2.4636,-2.4636,-2.4636,-2.4636,-2.4636,-2.4636,-2.4636,-2.4636,-2.4917,-2.5077,-2.5077,-2.5358,-2.5558,-2.5651,-2.5758,-2.5905,-2.6092,-2.6386,-2.672,-2.7121,-2.7308,-2.7602,-2.8073,-2.7789,-2.7696,-2.9295,-3.0612,-3.1569,-3.1873,-3.2603,-3.2866,-3.1625,-3.1383,-3.1276,-3.0875,-2.978,-2.8858,-2.8738,-2.8217,-2.815,-2.9165,-2.9793,-3.0515,-3.153,-3.133,-3.0889,-3.0421,-3.0007,-2.9686,0.0,0.0,0.0,-2.9887,-2.9272,-2.9182,-2.9824,-2.9272,-2.9182,-2.9913,-2.9633,-2.9486,-2.9486,-2.9085,-2.8738,-2.8444,-2.8243,-2.8221,-2.8221,-2.8221,-2.8221,-2.8221,-2.8221,-2.8221,-2.8221,-2.8221,-2.8221,-2.8221,-2.8114,-2.8043,-2.8221,-2.8114,-2.814,-2.8221,-2.8221,-2.8221,-2.8207,-2.81,-2.7655,-2.7241,-2.7134,-2.6774,-2.6386,-2.6386,-2.6386,-2.6386,-2.6386,-2.6386,-2.6386,-2.6386,-2.6386,-2.6333,-2.6146,-2.6106,-2.6026,-2.5732,-2.5678,-2.5638,-2.5531,-2.5358,-2.517,-2.4983,-2.4943,-2.4877,-2.4663,-2.4636,-2.4636,-2.4636,-2.473,-2.4796,-2.4796,-2.5064,-2.5237,-2.5237,-2.5411,-2.5611,-2.5812,-2.6012,-2.6253,-2.6573,-2.6947,-2.7281,-2.7575,-2.7655,-2.7802,-2.7976,-2.7682,-2.7482,-3.0861,-3.212,-3.3008,-3.3177,-3.3653,-3.3657,-3.2083,-3.1664,-3.1476,-3.0875,-2.9553,-2.843,0.0,0.0,-2.6961,-2.8738,-2.9072,-2.9713,-3.1423,-3.1196,-3.0715,0.0,0.0,0.0,0.0,0.0,0.0,-2.9873,-2.8153,-2.796,-2.9824,-2.8153,-2.796,-2.9797,-2.9593,-2.9446,-2.9446,-2.8871,-2.843,-2.8221,-2.8221,-2.8221,-2.8221,-2.8221,-2.8221,-2.8221,-2.8207,-2.8207,-2.8207,-2.8181,-2.8181,-2.8154,-2.7789,-2.7856,-2.814,-2.7776,-2.7856,-2.8181,-2.8181,-2.8194,-2.8154,-2.7789,-2.7495,-2.7188,-2.6907,-2.6613,-2.6386,-2.6386,-2.6386,-2.6386,-2.6386,-2.6386,-2.6386,-2.6386,-2.6386,-2.6386,-2.6386,-2.6386,-2.6306,-2.6039,-2.605,-2.5892,-2.5585,-2.5531,-2.5531,-2.5518,-2.5518,-2.5317,-2.4756,-2.4676,-2.4676,-2.4676,-2.493,-2.5104,-2.5104,-2.5371,-2.5531,-2.5531,-2.5545,-2.5812,-2.6373,-2.64,-2.68,-2.7642,-2.7669,-2.7816,-2.8181,-2.7816,-2.7682,-2.7669,-2.7375,-2.7094,-3.1944,-3.3451,-3.4435,-3.3714,-3.3975,-3.4018,-3.2137,-3.1503,-3.1116,-3.0301,-2.8617,-2.7321,0.0,-2.6881,-2.6907,-2.847,-2.9459,0.0,-3.1517,-3.1543,0.0,-3.0448,0.0,-2.9967,-2.9526,-2.9419,0.0,-2.9887,-2.9254,-2.9139,-2.981,-2.9254,-2.9047,-2.9593,-2.9098,-2.8831,-2.8831,-2.8457,-2.8301,-2.8221,-2.8221,-2.8221,-2.8221,-2.8221,-2.8221,-2.8221,-2.7909,-2.7816,-2.7789,-2.7575,-2.7495,-2.7482,-2.7402,-2.7415,-2.7482,-2.7402,-2.7428,-2.7495,-2.7495,-2.7629,-2.7802,-2.7722,-2.7348,-2.6921,-2.6841,-2.6613,-2.6386,-2.6386,-2.6386,-2.6386,-2.6386,-2.6386,-2.6386,-2.6386,-2.6386,-2.6386,-2.6386,-2.6386,-2.6373,-2.6293,-2.6279,-2.6186,-2.5892,-2.5838,-2.5772,-2.5545,-2.5518,-2.5451,-2.5304,-2.5291,-2.5291,-2.5291,-2.5358,-2.5398,-2.5398,-2.5678,-2.5838,-2.5838,-2.6052,-2.6226,-2.6386,-2.66,-2.6814,-2.7041,-2.7268,-2.7415,-2.7495,-2.7415,-2.7375,-2.7375,-2.7068,-2.7014,-3.3261,-3.4475,-3.525,-3.4448,-3.4297,-3.3879,-3.18,-3.0755,-2.994,-2.8791,-2.7121,-2.5905,-2.6079,-2.5732,-2.5999,-2.7736,-2.8898,0.0,-3.1289,-3.1476,-3.1289,0.0,-3.0515,0.0,-2.99,-2.9633,-2.9553,-2.9713,-2.9579,-2.9553,-2.9713,-2.9446,-2.9285,-2.9285,-2.8845,-2.8537,-2.8404,-2.8096,-2.8016,-2.8221,-2.8003,-2.7949,-2.7949,-2.7949,-2.7883,-2.7832,0.0,-2.7509,-2.7495,-2.7335,-2.7268,-2.7255,-2.7121,-2.7148,-2.7268,-2.7268,-2.7268,-2.7281,-2.7415,-2.7388,-2.7321,-2.7321,-2.7094,-2.68,-2.6667,-2.652,-2.6386,-2.6386,-2.6386,-2.6386,-2.6386,-2.6386,-2.6386,-2.6386,-2.6386,-2.6386,-2.6386,-2.6386,-2.6386,-2.6386,-2.6386,-2.6333,-2.6172,-2.6146,-2.6092,-2.5919,-2.5892,-2.5892,-2.5892,-2.5678,-2.5518,-2.5518,-2.5625,-2.5705,-2.5705,-2.5972,-2.6146,-2.6146,-2.6306,-2.6453,-2.6573,-2.6734,-2.6881,-2.7014,-2.7175,-2.7268,-2.7268,-2.7268,-2.7268,-2.7268,-2.7228,-2.7295,-3.4563,-3.5266,-3.5628,-3.5154,-3.4549,-3.3489,-3.1126,-2.9713,-2.8484,-2.6961,-2.5545,-2.4609,-2.473,-2.4516,-2.501,-2.7108,-2.8136,-2.9259,-3.0982,-3.1223,-3.1209,-3.1169,-3.0728,-3.0394,-3.0314,-2.9847,-2.9526,-2.9486,-2.9446,-2.9419,-2.9419,-2.9138,-2.8965,-2.8925,-2.8671,-2.8417,-2.8234,-2.7843,-2.7829,-2.8167,-2.7816,-2.7696,-2.7696,-2.7696,-2.7562,-2.7321,-2.7241,-2.7201,-2.7201,-2.7161,-2.7148,-2.7121,-2.6867,-2.6921,-2.7148,-2.7148,-2.7148,-2.7188,-2.7442,-2.7188,-2.6774,-2.6814,-2.68,-2.672,-2.6466,-2.6386,-2.6386,-2.6386,-2.6386,-2.6386,-2.6386,-2.6386,-2.6386,-2.6386,-2.6386,-2.6386,-2.6386,-2.6386,-2.6386,-2.6386,-2.6386,-2.6386,-2.6386,-2.6386,-2.6386,-2.6386,-2.6386,-2.6386,-2.6386,-2.5945,-2.5625,-2.5625,-2.5865,-2.6012,-2.6012,-2.6239,-2.6386,-2.6386,-2.6386,-2.6507,-2.6747,-2.68,-2.6947,-2.7201,-2.7241,-2.7268,-2.7268,-2.7268,-2.7268,-2.7268,-2.7522,-2.7669,-3.5222,-3.5749,-3.5803,-3.5061,-3.4361,-3.3097,-3.0479,-2.905,0.0,0.0,-2.4957,-2.4502,-2.5224,-2.513,-2.5678,-2.8003,-2.8711,-2.9499,-3.1009,-3.1223,-3.1129,0.0,-3.0782,-3.0528,-3.0047,-2.99,0.0,-2.9499,-2.9259,-2.9112,-2.9112,-2.8845,-2.8564,-2.831,-2.8243,-2.8274,-2.8221,-2.7843,-2.7722,-2.7776,-2.7722,-2.7696,-2.7696,-2.7696,-2.7669,-2.7602,-2.7108,0.0,-2.6881,-2.664,-2.6547,-2.6533,-2.648,-2.6493,-2.6547,-2.6547,-2.6547,-2.6547,-2.66,-2.6547,-2.6507,-2.6747,-2.6653,-2.6453,-2.64,-2.6386,-2.6386,-2.6386,-2.6386,-2.6386,-2.6386,-2.6386,-2.6386,-2.6386,-2.6386,-2.6386,-2.6386,-2.6386,-2.6386,-2.6386,-2.6386,-2.6386,-2.6386,-2.6386,-2.6386,-2.6386,-2.6386,-2.6386,-2.6386,-2.6306,-2.6239,-2.6239,-2.6279,-2.6319,-2.6319,-2.636,-2.6386,-2.6386,-2.6386,-2.6413,-2.6466,-2.6694,-2.6854,-2.6894,-2.7134,-2.7268,-2.7268,-2.7268,-2.7268,-2.7268,-2.7321,-2.7468,-3.561,-3.588,-3.5944,-3.514,-3.3974,-3.2217,-2.9487,0.0,0.0,0.0,-2.3794,-2.3688,-2.4262,-2.4516,-2.509,-2.6533,-2.7268,-2.8177,-2.9659,-2.9993,-3.0261,-3.0742,-3.0662,-3.0461,-3.0181,-2.9873,-2.9566,-2.9272,-2.8978,-2.8818,-2.8818,-2.8524,-2.8297,-2.8234,-2.8221,-2.8221,-2.8221,-2.7696,-2.7549,-2.7696,-2.7388,-2.7241,-2.7241,-2.7241,-2.7161,-2.7001,-2.672,-2.66,-2.6587,-2.6453,-2.6386,-2.6386,-2.6386,-2.6386,-2.6413,-2.656,-2.652,-2.6413,-2.656,-2.652,-2.6413,-2.6547,-2.6507,-2.6386,-2.6386,-2.6386,-2.6386,-2.6386,-2.6386,-2.6386,-2.6386,-2.6386,-2.6386,-2.6386,-2.6386,-2.6386,-2.6386,-2.6386,-2.6386,-2.6386,-2.6386,-2.6386,-2.6386,-2.6386,-2.6386,-2.6386,-2.6386,-2.6386,-2.6386,-2.6386,-2.6386,-2.6386,-2.6386,-2.6386,-2.6386,-2.6386,-2.6386,-2.6386,-2.6533,-2.6613,-2.6613,-2.6894,-2.7054,-2.7054,-2.7188,-2.7268,-2.7268,-2.7415,-2.7495,-2.7495,-2.7816,-2.8043,-3.5646,-3.588,-3.5827,-3.5049,-3.3528,-3.1502,-2.862,-2.6928,0.0,-2.3343,-2.2928,-2.2979,-2.3354,-2.3794,-2.4342,-2.5064,-2.5758,-2.676,-2.8377,-2.8804,-2.9379,-3.0555,-3.0501,0.0,-3.0181,-2.9753,0.0,-2.8978,-2.8671,-2.8511,-2.8511,-2.827,-2.8221,-2.8221,-2.8221,-2.8194,-2.8127,-2.7535,-2.7348,-2.7509,-2.7041,-2.6827,-2.6827,-2.6827,-2.6694,-2.648,-2.6413,-2.6386,-2.6386,-2.6386,-2.6386,-2.6386,-2.6386,-2.6386,-2.6413,-2.664,-2.6587,-2.6426,-2.6653,-2.6587,-2.6386,-2.6386,-2.6386,-2.6386,-2.6386,-2.6386,-2.6386,-2.6386,-2.6386,-2.6386,-2.6386,-2.6386,-2.6386,-2.6386,-2.6386,-2.6386,-2.6386,-2.6386,-2.6386,-2.6386,-2.6386,-2.6386,-2.6386,-2.6386,-2.6386,-2.6386,-2.6386,-2.6386,-2.6386,-2.6386,-2.6386,-2.6386,-2.6386,-2.6386,-2.6386,-2.6453,-2.648,-2.648,-2.676,-2.6921,-2.6921,-2.7268,-2.7428,-2.7362,-2.7482,-2.7522,-2.7455,-2.7682,-2.7789,-2.7802,-2.8283,-2.8537,-3.5675,-3.588,-3.5544,-3.4849,-3.3437,-3.138,-2.8466,0.0,-2.5561,-2.3372,-2.2928,-2.3046,-2.3621,-2.3768,-2.4182,-2.5291,-2.5545,-2.6293,-2.8323,-2.8631,-2.9085,-3.0261,0.0,0.0,-2.9619,-2.9513,-2.9245,-2.8684,-2.8364,-2.8274,-2.8274,-2.8248,-2.8221,-2.8221,-2.8221,-2.8016,-2.7749,-2.7428,-2.7148,-2.6907,-2.6854,-2.6827,-2.6827,-2.6827,-2.6814,-2.6774,-2.6507,-2.6386,0.0,-2.6386,-2.6386,-2.6386,-2.6386,-2.6386,-2.6386,-2.6413,-2.6413,-2.6386,-2.6413,-2.6413,-2.6386,-2.6386,-2.6386,-2.6386,-2.6386,-2.6386,-2.6386,-2.6386,-2.6386,-2.6386,-2.6386,-2.6386,-2.6386,-2.6386,-2.6386,-2.6386,-2.6386,-2.6386,-2.6386,-2.6386,-2.6386,-2.6386,-2.6386,-2.6386,-2.6386,-2.6386,-2.6386,-2.6386,-2.6386,-2.6386,-2.6386,-2.6386,-2.6386,-2.6386,-2.6386,-2.6627,-2.6787,-2.6787,-2.7054,-2.7228,-2.7228,-2.7846,-2.7936,-2.7669,-2.8203,-2.835,-2.814,-2.8167,-2.8181,-2.8181,-2.8248,-2.8337,-3.5163,-3.5588,-3.5441,-3.4622,-3.3024,-3.1034,-2.8382,-2.6785,-2.5221,-2.3303,-2.2928,-2.3008,-2.318,-2.322,-2.338,-2.3848,-2.3915,0.0,-2.6239,-2.664,-2.7375,-2.9098,-2.9299,-2.9352,0.0,0.0,-2.8778,-2.8364,-2.8301,-2.8221,-2.8221,-2.8221,-2.8221,-2.8221,-2.8221,-2.8003,-2.7696,-2.7415,-2.7121,-2.6814,-2.664,-2.656,-2.656,-2.656,-2.656,-2.656,-2.644,-2.6386,0.0,-2.6386,-2.6386,-2.6386,-2.6386,-2.6386,-2.6386,-2.6386,-2.6386,-2.6386,-2.6386,-2.6386,-2.6386,-2.6386,-2.6386,-2.6386,-2.6386,-2.6386,-2.6386,-2.6386,-2.6386,-2.6426,-2.66,-2.6787,-2.6867,-2.6694,-2.6653,-2.6653,-2.6653,-2.6653,-2.6707,-2.6881,-2.6921,-2.6921,-2.6921,-2.6921,-2.6921,-2.6921,-2.6921,-2.6921,-2.6921,-2.6921,-2.6921,-2.6921,-2.676,-2.6653,-2.6653,-2.6921,-2.7094,-2.7094,-2.7535,-2.7872,-2.7872,-2.8203,-2.8364,-2.8243,-2.8297,-2.827,-2.8221,-2.8221,-2.8221,-2.8234,-2.8337,-2.8484,-3.4314,-3.49,-3.4914,-3.4241,-3.2505,-3.0382,-2.8269,-2.6501,-2.4837,-2.3249,-2.2928,-2.2928,-2.2928,-2.2928,-2.2928,-2.2928,-2.2939,-2.346,-2.477,-2.5197,-2.6026,-2.7749,0.0,-2.8377,-2.8791,-2.8604,-2.8377,-2.8248,-2.8221,-2.8221,-2.8221,-2.8221,-2.8221,-2.8221,-2.814,-2.7869,-2.7575,-2.7281,-2.6987,-2.6694,-2.6493,-2.6386,-2.6386,-2.6386,-2.6386,-2.6386,-2.6386,-2.6386,0.0,-2.6386,-2.6386,-2.6386,-2.6386,-2.6386,-2.6386,-2.6386,-2.6386,-2.6386,-2.6386,-2.6386,-2.6386,-2.6386,-2.6386,-2.64,-2.6493,-2.6453,-2.6386,-2.6386,-2.6453,-2.6587,-2.6881,-2.7108,-2.7215,-2.7001,-2.6947,-2.6947,-2.6947,-2.6947,-2.7014,-2.7228,-2.7335,-2.7388,-2.7388,-2.7468,-2.7495,-2.7402,-2.7388,-2.7388,-2.7388,-2.7388,-2.7428,-2.7591,-2.7415,-2.7241,-2.6974,-2.7308,-2.7604,-2.7604,-2.8083,-2.8364,-2.8283,-2.8577,-2.8644,-2.847,-2.835,-2.8315,-2.8221,-2.8221,-2.8315,-2.8417,-2.8631,-2.8831,-3.3129,-3.3744,-3.3744,-3.3744,-3.1772,-2.9449,-2.8109,-2.6321,-2.4528,-2.3184,-2.2928,-2.2928,-2.2928,-2.2928,-2.2928,-2.2928,-2.3113,0.0,-2.4516,-2.4903,-2.5411,-2.6306,-2.6921,-2.7281,-2.7281,-2.7899,-2.8234,-2.8221,-2.8221,0.0,-2.8221,-2.8221,-2.8221,-2.8221,-2.7856,-2.7562,-2.7268,-2.6974,-2.668,-2.6386,-2.6386,-2.6386,-2.6386,-2.6386,-2.6386,-2.6386,-2.6386,-2.6386,0.0,-2.6386,-2.6386,-2.6386,-2.6386,-2.6386,-2.6386,-2.6386,-2.6386,-2.6386,-2.6386,-2.6386,-2.6386,-2.6386,-2.6386,-2.644,-2.6734,-2.6613,-2.6386,-2.6386,-2.66,-2.6881,-2.7188,-2.7268,-2.7268,-2.7268,-2.7268,-2.7268,-2.7268,-2.7268,-2.7268,-2.7268,-2.7495,-2.7696,-2.7696,-2.7936,-2.8114,-2.7736,-2.7696,-2.7696,-2.7696,-2.7696,-2.7802,-2.8181,-2.8404,-2.823,-2.7335,-2.7886,-2.8221,-2.8221,-2.8698,-2.8898,-2.8617,-2.8885,-2.8751,-2.8248,-2.8444,-2.8457,-2.8221,-2.8221,-2.8444,-2.9032,-2.9032,-2.9352,-3.0378,-3.1081,-3.1315,-3.0861,-2.9554,-2.8024,-2.6805,-2.5414,-2.4156,-2.3115,-2.2928,-2.2928,-2.2928,-2.2928,-2.3075,-2.342,-2.3567,0.0,-2.4275,-2.477,-2.5264,-2.5732,-2.6841,-2.7642,-2.7926,-2.8114,-2.8221,-2.8221,-2.8221,-2.8221,-2.8221,-2.7949,-2.7843,-2.7843,-2.7749,-2.7455,-2.6961,-2.6867,-2.668,-2.6386,-2.6386,-2.6386,-2.6386,-2.6386,-2.6386,-2.6386,-2.6386,-2.6386,-2.6386,-2.6386,-2.6386,-2.6386,-2.6386,-2.6386,-2.6386,-2.6386,-2.6386,-2.6386,-2.6386,-2.6386,-2.6386,-2.6386,-2.6386,-2.6413,-2.6493,-2.66,-2.672,-2.6934,-2.7201,-2.7442,-2.7535,-2.7709,-2.7899,-2.7615,-2.7562,-2.7562,-2.7562,-2.7562,-2.7615,-2.7913,-2.7936,-2.807,-2.8283,-2.8217,-2.8274,-2.8297,-2.8323,-2.8243,-2.803,-2.819,-2.827,-2.8248,-2.8315,-2.8257,-2.819,-2.8537,-2.8751,-2.8751,-2.9125,-2.9299,-2.9205,-2.9098,-2.8951,-2.8764,-2.8444,-2.835,-2.8457,-2.8457,-2.8764,-2.9352,-2.9539,-2.9847,-2.8622,-2.9398,-2.9705,-2.9295,-2.8216,-2.6979,-2.6129,-2.4864,-2.3682,-2.3048,-2.2928,-2.2832,-2.2712,-2.2699,-2.2819,-2.3193,-2.3447,-2.3621,-2.3688,-2.4302,-2.4943,-2.5451,-2.6413,-2.7281,-2.7909,-2.8167,-2.8221,-2.8221,-2.8221,-2.8181,-2.7976,-2.7802,-2.7602,-2.7375,-2.7362,-2.7188,-2.6827,-2.6707,-2.6573,-2.6386,-2.6386,-2.6386,-2.6386,-2.6386,-2.6386,-2.6386,-2.6386,-2.6386,0.0,-2.6386,-2.6386,-2.6386,-2.6386,-2.6386,-2.6386,-2.6386,-2.6386,-2.6386,-2.6386,-2.6466,-2.6533,-2.6426,-2.6466,-2.6573,-2.668,-2.676,-2.6881,-2.7188,-2.7468,-2.7722,-2.7843,-2.8003,-2.8181,-2.7909,-2.7869,-2.7869,-2.7869,-2.7869,-2.7923,-2.8194,-2.8243,-2.8377,-2.8577,-2.8537,-2.8511,-2.8591,-2.8604,-2.8537,-2.8337,-2.8484,-2.8577,-2.8484,-2.8484,-2.8564,-2.8751,-2.8831,-2.8871,-2.8871,-2.9259,-2.9379,-2.9165,-2.9085,-2.8991,-2.8871,-2.8617,-2.8631,-2.8938,-2.9272,-2.9566,-2.982,-3.0221,-3.0394,0.0,-2.8403,-2.8622,-2.8622,-2.7415,-2.6111,-2.5819,-2.4496,0.0,-2.2928,-2.2914,-2.2752,-2.2498,-2.2418,-2.2405,-2.2472,-2.2993,-2.3273,-2.2939,-2.3661,-2.4583,-2.5531,-2.5879,-2.6493,-2.7615,-2.7976,-2.8221,-2.8221,-2.8221,-2.8016,-2.7709,-2.7682,-2.7402,-2.6841,-2.68,-2.6787,-2.6787,-2.652,-2.6386,-2.6386,-2.6386,-2.6386,-2.6386,-2.6386,-2.6386,0.0,-2.6386,-2.6386,0.0,-2.6386,-2.6386,-2.6386,-2.6386,-2.6386,-2.6386,-2.6386,-2.6386,-2.6386,-2.6386,-2.6587,-2.6774,-2.6507,-2.6613,-2.6894,-2.7161,-2.7068,-2.6947,-2.7241,-2.7522,-2.7789,-2.8154,-2.8221,-2.8221,-2.8221,-2.8221,-2.8221,-2.8221,-2.8221,-2.8221,-2.8221,-2.8377,-2.8577,-2.8604,-2.8818,-2.8898,-2.8644,-2.8604,-2.8604,-2.8577,-2.8591,-2.8698,-2.8951,-2.8978,-2.8978,-2.8978,-2.8764,-2.8644,-2.8644,-2.9152,-2.9219,-2.8698,-2.8925,-2.8951,-2.8711,-2.8991,-2.9272,-2.9553,-3.0381,-3.0648,-3.0381,-3.0915,-3.0862,-2.571,0.0,-2.5959,-2.5959,-2.5238,-2.4538,0.0,-2.368,-2.2996,-2.2928,-2.2686,-2.2565,-2.2726,-2.2392,-2.2311,-2.3006,-2.3607,-2.3808,-2.3287,-2.3981,-2.5117,-2.6667,-2.6921,-2.7241,-2.7963,-2.8181,-2.8221,-2.8221,-2.8221,-2.8016,-2.7709,-2.7495,-2.7201,-2.6827,-2.66,-2.6493,-2.6493,-2.6426,-2.6386,-2.6386,-2.6386,-2.6386,-2.6386,-2.6386,-2.6386,-2.6386,-2.6386,-2.6386,-2.6386,-2.6386,-2.6386,-2.6386,-2.6386,-2.6386,-2.6386,-2.6386,-2.6386,-2.6386,-2.6386,-2.6587,-2.6814,-2.6747,-2.6921,-2.7134,-2.6974,-2.7188,-2.7549,-2.7856,-2.8073,-2.814,-2.8207,-2.8221,-2.8221,-2.8221,-2.8221,-2.8221,-2.8221,-2.8221,-2.8221,-2.8221,-2.8288,-2.8323,-2.8564,-2.847,-2.8417,-2.8577,-2.8604,-2.8524,-2.8283,-2.8457,-2.8537,-2.8377,-2.835,-2.835,-2.835,-2.8711,-2.8938,-2.8938,-2.9072,-2.9179,-2.9272,-2.9339,-2.9446,-2.9606,-2.99,-3.0087,-3.0154,-3.0581,-3.0648,-3.0368,-3.0501,-3.0368,-2.5119,-2.5119,-2.5119,-2.5119,-2.4781,-2.4442,-2.4102,-2.3582,-2.3066,-2.2727,-2.2418,-2.2231,-2.2258,-2.207,-2.1991,-2.2605,-2.3086,-2.3554,-2.4062,-2.4422,-2.5291,-2.7054,-2.7268,-2.7578,-2.8167,-2.8221,-2.8221,-2.8221,-2.81,-2.7816,-2.7509,-2.7228,-2.6921,-2.6627,-2.6466,-2.6386,-2.6386,-2.6386,-2.6386,-2.6386,-2.6386,-2.6386,-2.6386,-2.6386,-2.6386,-2.6386,-2.6386,-2.6386,-2.6386,-2.6386,-2.6386,-2.6386,-2.6386,-2.6386,-2.6386,-2.6386,-2.6386,-2.6386,-2.6386,-2.6587,-2.6867,-2.7134,-2.7241,-2.7268,-2.7228,-2.7442,-2.7736,-2.7896,-2.8043,-2.8221,-2.8221,-2.8221,-2.8221,-2.8221,-2.8221,-2.8221,-2.8221,-2.8221,-2.8221,-2.8221,-2.8221,-2.8274,-2.8364,-2.8341,-2.8288,-2.8364,-2.839,-2.8337,-2.8248,-2.8283,-2.8323,-2.8248,-2.8221,-2.8288,-2.8337,-2.8657,-2.8845,-2.8845,-2.9098,-2.9312,-2.9472,-2.974,-3.002,-3.0314,-3.0608,-3.0822,-3.0955,-3.1116,-3.1049,-3.0755,-3.0902,-3.0662,-2.5119,-2.5119,-2.5119,-2.5119,-2.4984,-2.4781,-2.417,-2.3646,-2.3156,-2.2553,-2.2151,-2.1857,-2.1722,-2.1641,-2.1762,-2.2124,-2.2552,-2.3447,-2.5224,-2.5184,-2.5571,-2.7201,-2.7402,-2.7671,-2.8181,-2.8221,-2.8221,-2.8221,-2.7869,-2.7575,-2.7281,-2.6987,-2.6694,-2.64,-2.6386,-2.6386,-2.6386,-2.6386,-2.6386,-2.6386,-2.6386,-2.6386,-2.6386,-2.6386,-2.6386,-2.6386,0.0,0.0,-2.6386,-2.6386,-2.6386,-2.6386,-2.6386,-2.6386,-2.6386,-2.6386,-2.6386,-2.64,-2.644,-2.664,-2.6974,-2.7468,-2.7522,-2.7442,-2.7642,-2.7736,-2.7762,-2.7762,-2.7949,-2.8234,-2.8288,-2.8301,-2.8301,-2.8301,-2.8301,-2.8288,-2.8234,-2.8221,-2.8221,-2.8221,-2.8221,-2.8221,-2.8221,-2.8221,-2.8221,-2.8221,-2.8221,-2.8221,-2.8221,-2.8274,-2.8274,-2.8234,-2.8315,-2.839,-2.8644,-2.8711,-2.8778,-2.8871,-2.9259,-2.9539,-2.9673,-3.0207,-3.0621,-3.0915,-3.1169,-3.1423,-3.1664,-3.1623,-3.145,-3.1169,-3.137,-3.1076,-2.5046,-2.5119,-2.5119,-2.5119,-2.4645,-2.417,-2.4034,-2.3241,-2.2553,-2.2418,-2.1991,-2.1748,-2.1884,-2.1724,-2.1963,-2.2953,-2.3995,-2.5291,-2.7041,-2.6827,-2.6867,-2.7966,-2.8087,-2.8127,-2.8221,-2.8221,-2.8221,-2.8221,-2.7869,-2.7575,-2.7281,-2.6987,-2.6694,-2.64,-2.6386,-2.6386,-2.6386,-2.6386,-2.6386,-2.6386,-2.6386,-2.6386,-2.6386,-2.6386,-2.6386,-2.6386,0.0,-2.6386,-2.6386,-2.6386,-2.6386,-2.6386,-2.6386,-2.6386,-2.6386,-2.6386,-2.6386,-2.6426,-2.6667,-2.6947,-2.7215,-2.7308,-2.7725,-2.806,-2.7762,-2.7883,-2.8154,-2.8154,-2.8194,-2.8288,-2.847,-2.8537,-2.8537,-2.8537,-2.8537,-2.847,-2.8288,-2.8221,-2.8221,-2.8221,-2.8221,-2.8221,-2.8221,-2.8221,-2.8221,-2.8221,-2.8221,-2.8221,-2.8221,-2.8377,-2.843,-2.8261,-2.8604,-2.8925,-2.8965,-2.9205,-2.9566,-3.006,-2.9713,-2.982,-3.0555,-3.0915,-3.1236,-3.153,-3.1583,-3.1623,-3.1664,-3.1423,-3.1142,-3.0849,-3.0648,-3.0488,-2.4496,-2.4657,-2.4876,-2.494,-2.4624,-2.4156,-2.3747,-2.3174,-2.2646,-2.2284,-2.1844,-2.1655,-2.1789,-2.2097,-2.2699,-2.4062,-2.4863,-2.5758,-2.7041,-2.6987,-2.7148,-2.8127,-2.8221,-2.8221,-2.8221,-2.8221,-2.8221,-2.8221,-2.7722,-2.7402,-2.7268,-2.6827,-2.6533,-2.6386,-2.6386,-2.6386,-2.6386,-2.6386,-2.6386,-2.6386,-2.6386,-2.6386,-2.6386,-2.6386,-2.6386,-2.6386,0.0,-2.6386,-2.6386,-2.6386,-2.6386,-2.6386,-2.6386,-2.6386,-2.6386,-2.6386,-2.6386,-2.6453,-2.6907,-2.7148,-2.7321,-2.7712,-2.8006,-2.8207,-2.7976,-2.8114,-2.8221,-2.8221,-2.8221,-2.8261,-2.8323,-2.835,-2.835,-2.835,-2.835,-2.8323,-2.8261,-2.8221,-2.8221,-2.8221,-2.8221,-2.8221,-2.8221,-2.8221,-2.8221,-2.8221,-2.8283,-2.839,-2.839,-2.8657,-2.8791,-2.8644,-2.9018,-2.9339,-2.9499,-2.978,-3.014,-3.0568,-3.0488,-3.0675,-3.1236,-3.1396,-3.145,-3.1423,-3.1583,-3.1597,-3.1423,-3.1289,-3.1316,-3.149,-3.1209,-3.1156,-2.4159,-2.432,-2.4517,-2.4542,-2.4488,-2.4323,-2.3997,-2.3529,-2.3052,-2.27,-2.2271,-2.1951,-2.1936,-2.2767,-2.3781,-2.4983,-2.5718,-2.636,-2.7041,-2.7134,-2.7388,-2.814,-2.8221,-2.8221,-2.8221,-2.8221,-2.8194,-2.8127,-2.7645,-2.7241,-2.7161,-2.6667,-2.6386,-2.6386,-2.6386,-2.6386,-2.6386,-2.6386,-2.6386,-2.6386,-2.6386,-2.6386,-2.6386,-2.6386,-2.6386,-2.6386,-2.6386,-2.6386,-2.6386,-2.6386,-2.6386,-2.6386,-2.6386,-2.6386,-2.6386,-2.6386,-2.6426,-2.656,-2.7001,-2.7255,-2.7442,-2.7896,-2.8167,-2.8221,-2.8221,-2.8221,-2.8221,-2.8221,-2.8221,-2.8248,-2.8315,-2.8243,-2.8243,-2.8243,-2.8243,-2.8315,-2.8248,-2.8221,-2.8221,-2.8221,-2.8288,-2.8243,-2.8243,-2.831,-2.835,-2.835,-2.8551,-2.8711,-2.8711,-2.9018,-2.9219,-2.9152,-2.9526,-2.9913,-3.0194,-3.0501,-3.0768,-3.0982,-3.1209,-3.1436,-3.1664,-3.1664,-3.1557,-3.133,-3.1557,-3.1517,-3.1223,-3.137,-3.1597,-3.1891,-3.181,-3.1891,-2.4364,-2.4335,-2.4072,-2.3676,-2.3823,-2.4261,-2.5258,-2.4566,-2.3892,-2.4342,-2.3781,-2.3113,-2.2819,-2.3941,-2.5037,-2.5424,-2.6867,-2.806,-2.8127,-2.8127,-2.8154,-2.8221,-2.8221,-2.8221,-2.8221,-2.8221,-2.8114,-2.7749,-2.7442,-2.7148,-2.6867,-2.656,-2.6386,-2.6386,-2.6386,-2.6386,-2.6386,-2.6386,-2.6386,-2.6386,-2.6386,-2.6386,-2.6386,-2.6386,-2.6386,-2.6386,-2.6386,-2.6386,-2.6386,-2.6386,-2.6386,-2.6386,-2.6386,-2.6386,-2.6386,-2.6386,-2.656,-2.68,-2.6841,-2.7215,-2.7669,-2.7722,-2.7923,-2.8221,-2.8221,-2.8221,-2.8221,-2.8221,-2.8221,-2.8301,-2.8497,-2.8577,-2.8577,-2.8577,-2.8577,-2.8497,-2.8288,-2.8221,-2.8221,-2.8221,-2.8377,-2.8577,-2.8577,-2.8804,-2.8978,-2.8978,-2.8991,-2.9005,-2.9005,-2.9499,-2.9753,-2.9486,-3.0194,-3.0822,-3.1102,-3.141,-3.1583,-3.1597,-3.1623,-3.165,-3.1664,-3.1664,-3.1664,-3.1637,-3.1664,-3.1517,-3.1223,-3.177,-3.1784,-3.1303,-3.1824,-3.2078,-2.3896,-2.3883,-2.3788,-2.3964,-2.4108,-2.4257,-2.4661,-2.4495,-2.4422,-2.4836,-2.4649,-2.4382,-2.4262,-2.4703,-2.5358,-2.6186,-2.7188,-2.7936,-2.8207,-2.8221,-2.8221,-2.8221,-2.7976,-2.7936,-2.8207,-2.7899,-2.7629,-2.7696,-2.7255,-2.6934,-2.6827,-2.6547,-2.6386,-2.6386,-2.6386,-2.6386,-2.6386,-2.6386,-2.6386,-2.6386,-2.6386,-2.6386,-2.6386,-2.6386,-2.6386,-2.6386,-2.6386,-2.6386,-2.6386,-2.6386,-2.6386,-2.6386,-2.6386,-2.6386,-2.6413,-2.6587,-2.6734,-2.6867,-2.7241,-2.7509,-2.7722,-2.7909,-2.814,-2.8221,-2.8221,-2.8221,-2.8221,-2.8221,-2.8221,-2.8261,-2.8283,-2.8323,-2.8323,-2.8323,-2.8323,-2.8283,-2.8248,-2.8221,-2.8288,-2.839,-2.8524,-2.8671,-2.8845,-2.8965,-2.9045,-2.9045,-2.9205,-2.9379,-2.9566,-2.994,-3.0221,-3.0287,-3.0755,-3.1183,-3.1476,-3.161,-3.1664,-3.1664,-3.1664,-3.1664,-3.1664,-3.1664,-3.1583,-3.1396,-3.157,-3.161,-3.1503,-3.173,-3.1998,-3.2318,-3.2358,-3.2572,-2.3432,-2.3356,-2.3306,-2.3523,-2.3887,-2.4208,-2.4428,-2.485,-2.5331,-2.5812,-2.5611,-2.5304,-2.5117,-2.5304,-2.5758,-2.656,-2.7335,-2.7909,-2.8194,-2.8221,-2.8194,-2.8016,-2.7909,-2.7843,-2.7953,-2.7589,-2.7415,-2.7415,-2.7054,-2.6787,-2.6694,-2.6493,-2.6386,-2.6386,-2.6386,-2.6386,-2.6386,-2.6386,-2.6386,-2.6386,-2.6386,-2.6386,-2.6386,-2.6386,-2.6386,-2.6386,-2.6386,-2.6386,-2.6386,-2.6386,-2.6386,-2.6386,-2.6386,-2.6386,-2.6426,-2.6707,-2.6881,-2.7028,-2.7522,-2.7762,-2.7869,-2.8167,-2.8221,-2.8221,-2.8221,-2.8221,-2.8221,-2.8221,-2.8221,-2.8221,-2.8221,-2.8221,-2.8221,-2.8221,-2.8221,-2.8261,-2.827,-2.8283,-2.8377,-2.8684,-2.8818,-2.8951,-2.9138,-2.9259,-2.9352,-2.9446,-2.9633,-2.986,-3.0154,-3.0448,-3.0742,-3.1036,-3.1249,-3.145,-3.165,-3.1664,-3.1664,-3.1664,-3.1664,-3.1664,-3.1664,-3.1664,-3.153,-3.1236,-3.1517,-3.1623,-3.153,-3.181,-3.2251,-3.2839,-3.2826,-3.3026,-2.3134,-2.2849,-2.2503,-2.2204,-2.2996,-2.4072,-2.4898,-2.5772,-2.664,-2.7522,-2.6774,-2.5862,-2.5211,-2.5798,-2.6386,-2.6386,-2.7375,-2.8221,-2.8221,-2.8221,-2.8114,-2.7736,-2.7949,-2.798,-2.7321,-2.7522,-2.7442,-2.6867,-2.6814,-2.6694,-2.64,-2.6386,-2.6386,-2.6386,-2.6386,-2.6386,-2.6386,-2.6386,-2.6386,-2.6386,-2.6386,-2.6386,-2.6386,-2.6386,-2.6386,-2.6386,-2.6386,-2.6386,-2.6386,-2.6386,-2.6386,-2.6386,-2.6386,-2.6386,-2.6426,-2.672,-2.7014,-2.7308,-2.7602,-2.7896,-2.8221,-2.8221,-2.8221,-2.8221,-2.8221,-2.8221,-2.8221,-2.8221,-2.8221,-2.8221,-2.8221,-2.8221,-2.8221,-2.8221,-2.8234,-2.8315,-2.8537,-2.8604,-2.8698,-2.8991,-2.9285,-2.9486,-2.9486,-2.9726,-3.002,-3.0314,-3.0368,-3.0474,-3.0755,-3.1049,-3.1343,-3.1637,-3.1664,-3.1664,-3.1664,-3.1664,-3.1664,-3.1664,-3.1664,-3.1664,-3.1664,-3.1664,-3.153,-3.1236,-3.1517,-3.153,-3.1236,-3.2118,-3.2656,-3.267,-3.3146,-3.3414,-2.3249,-2.2986,-2.2944,-2.3228,-2.4042,-2.5012,-2.6039,-2.6507,-2.6947,-2.7829,-2.7241,-2.6507,-2.6333,-2.6346,-2.6453,-2.6653,-2.7335,-2.7896,-2.8194,-2.7963,-2.7802,-2.7709,-2.7415,-2.7228,-2.7268,-2.6974,-2.6787,-2.6814,-2.664,-2.648,-2.6386,-2.6386,-2.6386,-2.6386,-2.6386,-2.6386,-2.6386,-2.6386,-2.6386,-2.6386,-2.6386,-2.6386,-2.6386,-2.6386,-2.6386,-2.6386,-2.6386,-2.6386,-2.6386,-2.6386,-2.6386,-2.6386,-2.6386,-2.6386,-2.6453,-2.6947,-2.7188,-2.7335,-2.7843,-2.8154,-2.8221,-2.8221,-2.8221,-2.8221,-2.8221,-2.8221,-2.8221,-2.8221,-2.8221,-2.8221,-2.8221,-2.8221,-2.8221,-2.8221,-2.831,-2.8497,-2.8591,-2.8764,-2.8991,-2.9299,-2.9419,-2.9619,-3.0034,-3.0167,-3.0327,-3.0621,-3.0662,-3.0768,-3.1062,-3.1356,-3.157,-3.1664,-3.1664,-3.1664,-3.1664,-3.1664,-3.1664,-3.1664,-3.1664,-3.1664,-3.1664,-3.1664,-3.1623,-3.1543,-3.1824,-3.2038,-3.2158,-3.2625,-3.2959,-3.316,-3.3334,-3.3414,-2.3111,-2.3004,-2.3073,-2.3473,-2.4354,-2.5451,-2.6854,-2.7255,-2.7495,-2.8114,-2.7629,-2.7175,-2.7175,-2.7028,-2.6961,-2.7134,-2.7468,-2.7762,-2.7936,-2.7709,-2.7482,-2.7362,-2.7134,-2.6974,-2.6921,-2.6707,-2.6587,-2.664,-2.6493,-2.6386,-2.6386,-2.6386,-2.6386,-2.6386,-2.6386,-2.6386,-2.6386,-2.6386,-2.6386,-2.6386,-2.6386,-2.6386,-2.6386,-2.6386,-2.6386,-2.6386,-2.6386,-2.6386,-2.6386,-2.6386,-2.6386,-2.6386,-2.6386,-2.6386,-2.6453,-2.7054,-2.7268,-2.7348,-2.802,-2.8221,-2.8221,-2.8221,-2.8221,-2.8221,-2.8221,-2.8221,-2.8221,-2.8221,-2.8221,-2.8221,-2.8221,-2.8221,-2.8221,-2.8221,-2.8377,-2.8644,-2.8751,-2.9005,-2.9299,-2.9593,-2.9659,-2.9806,-3.0274,-3.0354,-3.0461,-3.0755,-3.0889,-3.1076,-3.1356,-3.1557,-3.1664,-3.1664,-3.1664,-3.1664,-3.1664,-3.1664,-3.1664,-3.1664,-3.1557,-3.1543,-3.1664,-3.1664,-3.161,-3.149,-3.1784,-3.2078,-3.2372,-3.2666,-3.3013,-3.3414,-3.3414,-3.3414,-2.2921,-2.2969,-2.3093,-2.337,-2.4369,-2.5705,-2.7362,-2.7949,-2.8221,-2.8221,-2.7923,-2.7736,-2.7736,-2.7722,-2.7696,-2.7696,-2.7682,-2.7655,-2.7655,-2.7415,-2.7121,-2.6854,-2.7041,-2.6974,-2.644,-2.6627,-2.668,-2.6413,-2.6386,-2.6386,-2.6386,-2.6386,-2.6386,-2.6386,-2.6386,-2.6386,-2.6386,-2.6386,-2.6386,-2.6386,-2.6386,-2.6386,-2.6386,-2.6386,-2.6386,-2.6386,-2.6386,-2.6386,-2.6386,-2.6386,-2.6386,-2.6386,-2.6386,-2.6386,-2.6453,-2.7054,-2.7268,-2.7348,-2.802,-2.8221,-2.8221,-2.8221,-2.8221,-2.8221,-2.8221,-2.8221,-2.8221,-2.8221,-2.8221,-2.8221,-2.8221,-2.8248,-2.8274,-2.8274,-2.8417,-2.8724,-2.9018,-2.9312,-2.9606,-2.986,-2.9913,-3.0007,-3.0314,-3.0354,-3.0461,-3.0755,-3.1036,-3.1316,-3.1597,-3.165,-3.1664,-3.1664,-3.1664,-3.1664,-3.1664,-3.1664,-3.1664,-3.1664,-3.141,-3.1383,-3.1664,-3.1637,-3.1517,-3.1276,-3.1557,-3.1837,-3.2104,-3.2425,-3.2853,-3.3374,-3.34,-3.3414,-2.2725,-2.3254,-2.4045,-2.4281,-2.5585,-2.7014,-2.7939,-2.8181,-2.8221,-2.8221,-2.8181,-2.8127,-2.8127,-2.7856,-2.7696,-2.7696,-2.7509,-2.7362,-2.7362,-2.7108,-2.6894,-2.6827,-2.668,-2.6533,-2.64,-2.6453,-2.6453,-2.6386,-2.6386,-2.6386,-2.6386,-2.6386,-2.6386,-2.6386,-2.6386,-2.6386,-2.6386,-2.6386,-2.6386,-2.6386,-2.6386,-2.6386,-2.6386,-2.6386,-2.6386,-2.6386,-2.6386,-2.6386,-2.6386,-2.6386,-2.6386,-2.6386,-2.6386,-2.6386,-2.6453,-2.7054,-2.7268,-2.7348,-2.802,-2.8221,-2.8221,-2.8221,-2.8221,-2.8221,-2.8221,-2.8221,-2.8221,-2.8221,-2.8221,-2.8221,-2.8221,-2.8323,-2.8511,-2.8511,-2.8738,-2.9032,-2.9325,-2.9619,-2.9847,-2.99,-2.9913,-3.0007,-3.0314,-3.0354,-3.0461,-3.0755,-3.1036,-3.1249,-3.1316,-3.153,-3.1664,-3.1664,-3.1664,-3.1664,-3.1664,-3.1664,-3.1664,-3.1664,-3.161,-3.1597,-3.1664,-3.145,-3.1396,-3.157,-3.1864,-3.2038,-3.2104,-3.2625,-3.2946,-3.308,-3.3307,-3.3414,-2.2915,-2.3571,-2.448,-2.5259,-2.6266,-2.7175,-2.7615,-2.7829,-2.7896,-2.7832,-2.8033,-2.8181,-2.7963,-2.7802,-2.7655,-2.7509,-2.7241,-2.7054,-2.7054,-2.68,-2.6613,-2.6613,-2.648,-2.6386,-2.6386,-2.6386,-2.6386,-2.6386,-2.6386,-2.6386,-2.6386,-2.6386,-2.6386,-2.6386,-2.6386,-2.6386,-2.6386,-2.6386,-2.6386,-2.6386,-2.6386,-2.6386,-2.6386,-2.6386,-2.6386,-2.6386,-2.6386,-2.6386,-2.6386,-2.6386,-2.6386,-2.6386,-2.6386,-2.648,-2.6653,-2.7094,-2.7348,-2.7535,-2.8073,-2.8221,-2.8221,-2.8221,-2.8221,-2.8221,-2.8221,-2.8221,-2.8221,-2.8221,-2.8221,-2.8221,-2.8221,-2.8377,-2.8644,-2.8778,-2.9045,-2.9299,-2.9446,-2.9713,-2.9913,-2.9913,-2.9913,-3.0007,-3.0314,-3.0354,-3.0501,-3.0942,-3.1009,-3.1116,-3.1396,-3.157,-3.1664,-3.1664,-3.1664,-3.1664,-3.1664,-3.1664,-3.1664,-3.1664,-3.153,-3.1517,-3.1664,-3.1383,-3.137,-3.1664,-3.1824,-3.1971,-3.2104,-3.2412,-3.2706,-3.2986,-3.3133,-3.328,-2.3032,-2.3789,-2.4752,-2.605,-2.66,-2.6894,-2.7201,-2.7455,-2.7549,-2.7321,-2.7696,-2.7976,-2.7682,-2.7575,-2.7468,-2.7228,-2.6947,-2.6747,-2.6747,-2.6547,-2.6386,-2.6386,-2.6386,-2.6386,-2.6386,-2.6386,-2.6386,-2.6386,-2.6386,-2.6386,-2.6386,-2.6386,-2.6373,-2.6319,-2.6319,-2.6293,-2.6239,-2.6239,-2.6239,-2.6239,-2.6293,-2.6346,-2.6386,-2.6386,-2.6386,-2.6386,-2.6386,-2.6386,-2.6386,-2.6386,-2.6386,-2.6386,-2.6386,-2.656,-2.6854,-2.7161,-2.7455,-2.7749,-2.8043,-2.8221,-2.8221,-2.8221,-2.8221,-2.8221,-2.8221,-2.8221,-2.8221,-2.8221,-2.8221,-2.8234,-2.8301,-2.8457,-2.8751,-2.9045,-2.9339,-2.9566,-2.9566,-2.9753,-2.9913,-2.9913,-2.9913,-2.9993,-3.0247,-3.0287,-3.0448,-3.0929,-3.0889,-3.0969,-3.145,-3.161,-3.1664,-3.1664,-3.1664,-3.165,-3.1597,-3.1637,-3.165,-3.1597,-3.141,-3.141,-3.1664,-3.1436,-3.1423,-3.1664,-3.1664,-3.1784,-3.2024,-3.2131,-3.2425,-3.2906,-3.3013,-3.316,-2.2511,-2.3789,-2.5195,-2.6157,-2.66,-2.6894,-2.7201,-2.7295,-2.7308,-2.7268,-2.7535,-2.7669,-2.7375,-2.7108,-2.6934,-2.6894,-2.664,-2.6453,-2.6453,-2.6413,-2.6386,-2.6386,-2.6386,-2.6386,-2.6386,-2.6386,-2.6386,-2.6386,-2.6386,-2.6386,-2.6386,-2.6386,-2.6279,-2.6026,-2.6012,-2.5892,-2.5638,-2.5625,-2.5625,-2.5638,-2.5892,-2.6146,-2.6386,-2.6386,-2.6386,-2.6386,-2.6386,-2.6386,-2.6386,-2.6386,-2.6386,-2.6386,-2.6386,-2.656,-2.6854,-2.7161,-2.7455,-2.7749,-2.8043,-2.8221,-2.8221,-2.8221,-2.8221,-2.8221,-2.8221,-2.8221,-2.8221,-2.8221,-2.8221,-2.8288,-2.847,-2.8764,-2.9058,-2.9352,-2.9646,-2.986,-2.986,-2.9887,-2.9913,-2.9913,-2.9913,-2.9927,-2.9967,-2.998,-3.0007,-3.0074,-3.0488,-3.0822,-3.0902,-3.1356,-3.1664,-3.1664,-3.1664,-3.157,-3.1303,-3.1517,-3.1557,-3.1303,-3.149,-3.1623,-3.1664,-3.1637,-3.1623,-3.1664,-3.1664,-3.169,-3.173,-3.2238,-3.2532,-3.2612,-3.312,-3.324,-2.2984,-2.4053,-2.5119,-2.5929,-2.6239,-2.6413,-2.6707,-2.6894,-2.6974,-2.6814,-2.7001,-2.7175,-2.7041,-2.6907,-2.6774,-2.66,-2.6466,-2.6386,-2.6386,-2.6386,-2.6386,-2.6386,-2.6386,-2.6386,-2.6386,-2.6386,-2.6386,-2.6386,-2.6386,-2.6386,-2.6386,-2.6386,-2.6253,-2.605,-2.6037,-2.5812,-2.5518,-2.5518,-2.5518,-2.5518,-2.5812,-2.6026,-2.6146,-2.6319,-2.6386,-2.6386,-2.6386,-2.6386,-2.6386,-2.6386,-2.6386,-2.6386,-2.6386,-2.6667,-2.7094,-2.7215,-2.7549,-2.7963,-2.8181,-2.8221,-2.8221,-2.8221,-2.8221,-2.8221,-2.8221,-2.8221,-2.8221,-2.8221,-2.8221,-2.8301,-2.8524,-2.8818,-2.9112,-2.9419,-2.97,-2.9967,-3.0127,-3.0034,-2.9913,-2.9913,-2.9913,-2.9913,-2.9913,-2.9913,-3.0034,-3.0354,-3.0635,-3.0915,-3.1236,-3.1503,-3.1664,-3.1664,-3.1517,-3.137,-3.1236,-3.1196,-3.1196,-3.1223,-3.1343,-3.149,-3.1664,-3.1664,-3.1664,-3.1664,-3.1664,-3.1664,-3.1664,-3.1931,-3.2225,-3.2643,-3.2639,-3.2786,-2.3018,-2.3859,-2.4531,-2.5141,-2.5604,-2.594,-2.6012,-2.64,-2.6653,-2.6426,-2.656,-2.6707,-2.6707,-2.6707,-2.664,-2.6426,-2.6386,-2.6386,-2.6386,-2.6386,-2.6386,-2.6386,-2.6386,-2.6386,-2.6386,-2.6386,-2.6386,-2.6386,-2.6386,-2.6386,-2.6386,-2.6319,-2.6146,-2.5852,-2.5772,-2.5585,-2.5291,-2.5291,-2.5331,-2.5411,-2.5705,-2.5879,-2.605,-2.6253,-2.6386,-2.6386,-2.6386,-2.6386,-2.6386,-2.6386,-2.6386,-2.6386,-2.6386,-2.6747,-2.7268,-2.7268,-2.7725,-2.8221,-2.8221,-2.8221,-2.8221,-2.8221,-2.8221,-2.8221,-2.8221,-2.8221,-2.8221,-2.8221,-2.8288,-2.8337,-2.8631,-2.8938,-2.9232,-2.9526,-2.9753,-2.9993,-3.0301,-3.0247,-3.0114,-3.0047,-3.0087,-3.0114,-3.0047,-3.0087,-3.0287,-3.0728,-3.0795,-3.0982,-3.149,-3.1557,-3.1583,-3.1664,-3.1476,-3.1303,-3.1236,-3.1102,-3.1076,-3.1223,-3.1289,-3.1436,-3.1664,-3.1664,-3.1664,-3.1664,-3.1664,-3.1664,-3.1664,-3.1744,-3.2051,-3.2545,-3.2318,-3.2452,-2.2004,-2.2851,-2.3535,-2.3434,-2.4521,-2.5582,-2.5219,-2.5798,-2.6413,-2.6386,-2.64,-2.6413,-2.6413,-2.6413,-2.6413,-2.6386,-2.6386,-2.6386,-2.6386,-2.6386,-2.6386,-2.6386,-2.6386,-2.6386,-2.6386,-2.6386,-2.6386,-2.6386,-2.6386,-2.6386,-2.6386,-2.6132,-2.5838,-2.5545,-2.5264,-2.4983,-2.469,-2.4676,-2.4823,-2.5104,-2.5398,-2.5678,-2.605,-2.6253,-2.6386,-2.6386,-2.6386,-2.6386,-2.6386,-2.6386,-2.6386,-2.6386,-2.6386,-2.6747,-2.7268,-2.7268,-2.7725,-2.8221,-2.8221,-2.8221,-2.8221,-2.8221,-2.8221,-2.8221,-2.8221,-2.8221,-2.8221,-2.8221,-2.835,-2.8644,-2.8938,-2.9232,-2.9539,-2.982,-2.99,-2.9993,-3.0301,-3.0568,-3.0662,-3.0394,-3.0555,-3.0662,-3.0381,-3.0568,-3.0755,-3.0795,-3.0795,-3.0902,-3.1209,-3.1249,-3.1356,-3.1637,-3.165,-3.153,-3.1249,-3.1476,-3.1517,-3.1249,-3.149,-3.165,-3.1664,-3.1664,-3.1664,-3.1664,-3.1664,-3.1664,-3.1664,-3.1944,-3.2238,-3.2643,-3.2629,-3.2629,-2.1403,-2.2124,-2.2907,-2.3008,-2.3625,-2.4218,-2.4697,-2.5184,-2.5651,-2.6039,-2.6266,-2.6386,-2.6386,-2.6386,-2.6386,-2.6386,-2.6386,-2.6386,-2.6386,-2.6386,-2.6386,-2.6386,-2.6386,-2.6386,-2.6386,-2.6386,-2.6386,-2.6386,-2.6386,-2.6386,-2.6386,-2.6119,-2.5825,-2.5518,-2.5237,-2.493,-2.4562,-2.4636,-2.4783,-2.5077,-2.5371,-2.5665,-2.605,-2.6253,-2.6386,-2.6386,-2.6386,-2.6386,-2.6386,-2.6386,-2.6386,-2.6386,-2.6386,-2.6747,-2.7268,-2.7268,-2.7725,-2.8221,-2.8221,-2.8221,-2.8221,-2.8221,-2.8221,-2.8221,-2.8221,-2.8283,-2.8444,-2.8444,-2.8915,-2.9285,-2.9333,-2.967,-2.9907,-2.9936,-3.0207,-3.0515,-3.0621,-3.0421,-3.0314,-3.0581,-3.0568,-3.0541,-3.0621,-3.0728,-3.0662,-3.0287,-3.0555,-3.0688,-3.0421,-3.0715,-3.0982,-3.1102,-3.0942,-3.0862,-3.0942,-3.0875,-3.0942,-3.1209,-3.133,-3.1476,-3.1664,-3.1664,-3.1664,-3.1664,-3.1664,-3.1664,-3.1664,-3.1957,-3.2251,-3.2545,-3.2345,-3.2358,-2.0916,-2.1491,-2.2243,-2.2312,-2.2662,-2.3283,-2.4143,-2.4656,-2.513,-2.5812,-2.6186,-2.6386,-2.6386,-2.6386,-2.6386,-2.6386,-2.6386,-2.6386,-2.6386,-2.6386,-2.6386,-2.6386,-2.6386,-2.6386,-2.6386,-2.6386,-2.6386,-2.6386,-2.6386,0.0,-2.6386,-2.6026,-2.5625,-2.5237,-2.5037,-2.4836,-2.4562,-2.4636,-2.4783,-2.5077,-2.5371,-2.5665,-2.605,-2.6253,-2.6386,-2.6386,-2.6386,-2.6386,-2.6386,-2.6386,-2.6386,-2.6386,-2.6386,-2.6827,-2.7513,-2.735,-2.7808,-2.8403,-2.8221,-2.8318,-2.8403,-2.8234,-2.8318,-2.8416,-2.8355,-2.8444,-2.8631,-2.8724,-2.9298,-2.9831,-2.9521,-2.9818,-3.0117,-2.9963,-3.0221,-3.0528,-3.0621,-3.0488,-3.0434,-3.0728,-3.0635,-3.0541,-3.0635,-3.0728,-3.0662,-3.0274,-3.0461,-3.0541,-3.0247,-3.0461,-3.0688,-3.0782,-3.0702,-3.0728,-3.0929,-3.0849,-3.0969,-3.1356,-3.137,-3.1463,-3.1664,-3.1664,-3.1664,-3.1664,-3.1664,-3.1664,-3.1664,-3.1864,-3.2158,-3.2629,-3.2144,-3.2064,0.0,0.0,0.0,-2.1261,-2.1812,-2.2637,-2.353,-2.413,-2.481,-2.5795,-2.6146,-2.636,-2.6386,-2.6386,-2.6386,-2.6386,-2.6386,-2.6386,-2.6386,-2.6386,-2.6386,-2.6386,-2.6386,-2.6386,-2.6386,-2.6386,-2.6386,-2.6386,-2.6386,-2.6386,-2.6386,-2.5825,-2.5237,-2.4649,-2.4636,-2.4636,-2.4636,-2.4649,-2.4796,-2.5104,-2.5384,-2.5678,-2.605,-2.6266,-2.6386,-2.6386,-2.6386,-2.6386,-2.6386,-2.6386,-2.6386,-2.6386,-2.6386,-2.6987,-2.7839,-2.7431,-2.7973,-2.874,-2.8318,-2.8487,-2.874,-2.8305,-2.8487,-2.8794,-2.8596,-2.8617,-2.8684,-2.8965,-2.9609,-3.0104,-2.9662,-2.97,-2.9913,-2.9913,-2.9927,-3.0007,-3.0301,-3.0808,-3.1116,-3.0849,-3.0782,-3.0688,-3.0421,-3.0608,-3.0782,-3.0755,-3.0515,-3.0434,-3.0715,-3.0501,-3.0448,-3.0755,-3.1049,-3.1209,-3.1223,-3.149,-3.1664,-3.1664,-3.1664,-3.1664,-3.1664,-3.1664,-3.1664,-3.1664,-3.1677,-3.1677,-3.1677,-3.1677,-3.1971,-3.2616,-3.1944,-3.1677,-2.1137,0.0,0.0,0.0,0.0,0.0,0.0,-2.2462,-2.3188,-2.4734,-2.5241,-2.5638,-2.6266,-2.6386,-2.6386,-2.6386,-2.6386,-2.6386,-2.6386,-2.6386,-2.6386,-2.6386,-2.6386,-2.6386,-2.6386,-2.6386,-2.6386,0.0,-2.6386,-2.6386,-2.6386,-2.5825,-2.5237,-2.4649,-2.4636,-2.4636,-2.4636,-2.485,-2.5104,-2.5398,-2.5692,-2.5985,-2.6279,-2.636,-2.6386,-2.6386,-2.6386,-2.6386,-2.6386,-2.6386,-2.6386,-2.6465,-2.6702,-2.7067,-2.7513,-2.7676,-2.7973,-2.8403,-2.8571,-2.874,-2.874,-2.8655,-2.874,-2.8794,-2.8596,-2.9009,-2.9499,-2.9798,-3.0437,-3.0848,-3.0404,-3.0115,-2.9913,-2.9913,-3.0074,-3.0261,-3.0341,-3.0488,-3.0635,-3.0768,-3.0621,-3.0528,-3.0648,-3.0742,-3.0581,-2.994,-2.978,-2.9753,-2.9833,-2.978,-3.0007,-3.0715,-3.0862,-3.0996,-3.1209,-3.1303,-3.1436,-3.165,-3.1664,-3.1664,-3.1664,-3.1664,-3.1664,-3.1664,-3.1877,-3.1984,-3.1984,-3.1984,-3.2064,-3.2225,-3.2064,-3.1877,-2.2319,0.0,0.0,0.0,0.0,0.0,-2.177,-2.2215,-2.2869,-2.4361,-2.4842,-2.5133,-2.5865,-2.5825,-2.5785,-2.6146,-2.6213,-2.6253,-2.6373,-2.6386,-2.6386,-2.6386,-2.6386,-2.6386,-2.6386,-2.6386,-2.6386,-2.6386,-2.6386,-2.6333,-2.6213,-2.5772,-2.538,-2.506,-2.5033,-2.5053,-2.5079,-2.535,-2.5572,-2.5747,-2.5889,-2.6106,-2.6386,-2.6544,-2.6623,-2.6623,-2.6623,-2.6623,-2.6623,-2.6623,-2.6623,-2.6716,-2.7089,-2.751,-2.7853,-2.8058,-2.8247,-2.8487,-2.874,-2.8908,-2.9076,-2.8824,-2.899,-2.9226,-2.9114,-2.9412,-2.9973,-3.0539,-3.0834,-3.0973,-3.0705,-3.0272,-2.9913,-2.9913,-3.0047,-3.0181,-3.0181,-3.0181,-3.0261,-3.0555,-3.0381,-3.0234,-3.0394,-3.0421,-3.0247,-2.974,-2.9766,-2.9936,-3.0115,-3.0133,-3.0311,-3.1004,-3.0995,-3.1036,-3.1209,-3.1343,-3.149,-3.1664,-3.1664,-3.1717,-3.1851,-3.1851,-3.1904,-3.2024,-3.2078,-3.2038,-3.1917,-3.2051,-3.2038,-3.1917,-3.1917,-3.1837,-2.386,-2.3245,0.0,0.0,-2.1653,0.0,-2.2019,-2.2476,-2.3116,-2.4161,-2.4432,-2.4603,-2.5214,-2.4898,-2.4817,-2.5644,-2.5913,-2.6063,-2.6346,-2.6386,-2.6386,-2.6386,-2.6386,-2.6386,-2.6386,-2.6386,-2.6386,-2.6465,-2.6465,-2.6345,-2.605,-2.5705,-2.5577,-2.5746,-2.5718,-2.5805,-2.5898,-2.6033,-2.6183,-2.6183,-2.6098,-2.6224,-2.6465,-2.686,-2.7032,-2.7032,-2.7032,-2.7032,-2.6953,-2.7032,-2.7032,-2.7059,-2.744,-2.7983,-2.8518,-2.851,-2.8647,-2.8824,-2.8908,-2.9244,-2.9481,-2.9076,-2.9353,-2.9914,-2.9804,-3.0019,-3.0511,-3.1198,-3.109,-3.0719,-3.0746,-3.0375,-3.0093,-3.0093,-3.0093,-3.0093,-3.0093,-3.0093,-3.0173,-3.0442,-3.0191,-3.0003,-3.0003,-3.003,-3.0057,-3.0057,-3.0258,-3.0613,-3.1163,-3.108,-3.115,-3.1601,-3.1488,-3.137,-3.137,-3.1517,-3.1664,-3.1664,-3.1664,-3.1784,-3.2051,-3.2051,-3.2171,-3.2438,-3.2185,-3.1944,-3.1717,-3.1944,-3.1917,-3.1664,-3.1664,-3.1664,-2.5374,-2.4509,-2.3409,-2.236,0.0,0.0,-2.0582,-2.0975,-2.1722,-2.2405,-2.2725,-2.3153,-2.3984,-2.426,-2.4329,-2.426,-2.5062,-2.5824,-2.6358,-2.6386,-2.6386,-2.6386,-2.6386,-2.6386,-2.6386,-2.6386,-2.6544,-2.6874,-2.6874,-2.6659,-2.605,-2.5905,-2.5963,-2.606,-2.6033,-2.6233,-2.6617,-2.6537,-2.6498,-2.6498,-2.6721,-2.6819,-2.6874,-2.7333,-2.7333,-2.7032,-2.7412,-2.7175,-2.6544,-2.7254,-2.7254,-2.7138,-2.8156,-2.8305,-2.8125,-2.9086,-2.9146,-2.8908,-2.9663,-3.0012,-2.9998,-2.9495,-2.986,-3.0354,-2.989,-3.0455,-3.1447,-3.209,-3.1987,-3.1667,-3.1547,-3.1332,-3.1062,-3.1062,-3.1062,-3.1062,-3.1062,-3.1062,-3.1076,-3.1131,-3.0746,-3.0437,-3.0437,-3.0641,-3.0895,-3.0895,-3.0745,-3.0895,-3.171,-3.1698,-3.1986,-3.2817,-3.2487,-3.2137,-3.2137,-3.1921,-3.1664,-3.1664,-3.1664,-3.169,-3.1757,-3.1757,-3.1784,-3.1837,-3.1784,-3.1837,-3.2011,-3.1837,-3.1717,-3.1664,-3.1664,-3.1664,-2.6494,-2.569,-2.4774,-2.4414,0.0,0.0,0.0,-2.1744,-2.2007,-2.2051,-2.1916,-2.2131,-2.2953,-2.3022,-2.3078,-2.3537,-2.4634,-2.5538,-2.5766,-2.6165,-2.6386,-2.6386,-2.6386,-2.6465,-2.6716,-2.6702,-2.6781,-2.6953,-2.7175,-2.7028,-2.65,-2.6571,-2.673,-2.6976,-2.6962,-2.6968,-2.7027,-2.7277,-2.7276,-2.689,-2.7195,-2.7333,-2.7333,-2.7805,-2.7726,-2.7333,-2.7805,-2.7647,-2.7018,-2.7726,-2.7903,-2.7993,-2.8702,-2.8934,-2.8933,-2.9656,-2.962,-2.9244,-2.9928,-3.0179,-3.0179,-2.9914,-3.0325,-3.0824,-3.0464,-3.1265,-3.225,-3.2212,-3.2094,-3.1905,-3.1601,-3.1441,-3.1315,-3.1315,-3.1315,-3.1315,-3.1315,-3.1315,-3.1371,-3.1525,-3.1567,-3.1477,-3.1208,-3.1152,-3.1213,-3.1637,-3.1665,-3.1922,-3.2659,-3.2668,-3.2752,-3.3121,-3.2691,-3.2327,-3.2043,-3.1853,-3.1664,-3.1664,-3.1664,-3.173,-3.1877,-3.1891,-3.1891,-3.1891,-3.1891,-3.1891,-3.1891,-3.1744,-3.1664,-3.1664,-3.1664,-3.1664,0.0,0.0,0.0,0.0,0.0,-2.4282,0.0,0.0,0.0,0.0,0.0,0.0,0.0,-2.1987,0.0,-2.2799,0.0,0.0,0.0,-2.5554,0.0,-2.6354,-2.6516,-2.6754,-2.7028,-2.7038,-2.7052,-2.7097,-2.7379,-2.7443,-2.7097,-2.7254,-2.7502,-2.7903,-2.7903,-2.7774,-2.7592,-2.8109,-2.799,-2.7424,-2.76,-2.7712,-2.7712,-2.8197,-2.8197,-2.779,-2.8197,-2.8118,-2.7633,-2.8197,-2.8583,-2.8876,-2.92,-2.9502,-2.9735,-3.0133,-2.9998,-2.9747,-3.0165,-3.0346,-3.0346,-3.0263,-3.0609,-3.1138,-3.1354,-3.2091,-3.2689,-3.2304,-3.2186,-3.2069,-3.1756,-3.1638,-3.1596,-3.1596,-3.1638,-3.1681,-3.1681,-3.1723,-3.185,-3.2104,-3.2432,-3.2522,-3.2056,-3.175,-3.1784,-3.2401,-3.2788,-3.3064,-3.3543,-3.3492,-3.346,-3.3351,-3.288,-3.2327,-3.1853,-3.1758,-3.1664,-3.1664,-3.1664,-3.177,-3.2011,-3.2024,-3.2024,-3.2024,-3.2024,-3.1904,-3.1664,-3.1664,-3.1664,-3.1664,-3.1664,-3.1704,0.0,0.0,0.0,0.0,-2.6117,0.0,0.0,0.0,-2.3691,-2.349,0.0,0.0,0.0,0.0,0.0,0.0,0.0,0.0,-2.3227,-2.4232,-2.5302,-2.6121,-2.6989,-2.7379,-2.7178,-2.7219,-2.7367,-2.7513,-2.7438,-2.7367,-2.7527,-2.7527,-2.7748,-2.8232,-2.8232,-2.8359,-2.8705,-2.8481,-2.8261,-2.8154,-2.8182,-2.8197,-2.8211,-2.8666,-2.8588,-2.8197,-2.8666,-2.8339,-2.7633,-2.8495,-2.8935,-2.9177,-2.9609,-2.9746,-2.9818,-3.0466,-3.0499,-3.0179,-3.0582,-3.0734,-3.0665,-3.0346,-3.0609,-3.1311,-3.231,-3.2705,-3.2822,-3.3025,-3.2894,-3.2748,-3.2936,-3.2805,-3.2586,-3.2586,-3.2805,-3.3008,-3.3008,-3.3227,-3.3445,-3.3489,-3.3201,-3.2928,-3.2837,-3.3079,-3.3293,-3.3336,-3.3579,-3.3765,-3.3858,-3.4291,-3.432,-3.3916,-3.3351,-3.2894,-3.2421,-3.1948,-3.1664,-3.1664,-3.1664,-3.1677,-3.1717,-3.1717,-3.1717,-3.1717,-3.1717,-3.1704,-3.1664,-3.1664,-3.1664,-3.1664,-3.1664,-3.181,0.0,0.0,0.0,0.0,0.0,0.0,-2.4548,0.0,-2.4297,0.0,0.0,0.0,0.0,0.0,0.0,0.0,-2.2282,0.0,0.0,0.0,-2.5057,0.0,0.0,0.0,-2.6404,-2.6831,-2.7121,-2.7112,-2.7449,-2.7683,-2.7742,-2.8082,-2.8417,-2.8666,-2.8666,-2.8588,-2.8588,-2.8588,-2.851,-2.8289,-2.851,-2.8666,-2.8666,-2.8808,-2.8666,-2.8289,-2.8744,-2.8588,-2.804,-2.8651,-2.9202,-2.9624,-2.9785,-3.0092,-3.0393,-3.069,-3.0665,-3.0582,-3.0749,-3.0817,-3.0807,-3.1017,-3.1453,-3.1903,-3.2632,-3.2778,-3.2793,-3.2939,-3.288,-3.2807,-3.2939,-3.2866,-3.2778,-3.2778,-3.3012,-3.3246,-3.3246,-3.3495,-3.3788,-3.3978,-3.3823,-3.379,-3.3978,-3.3686,-3.3622,-3.4103,-3.4327,-3.4399,-3.4399,-3.4305,-3.4024,-3.354,-3.3069,-3.2516,-3.2043,-3.1853,-3.1664,-3.1664,-3.1664,-3.1664,-3.1664,-3.1664,-3.1664,-3.1664,-3.1664,-3.1664,-3.1664,-3.1664,-3.1664,-3.1677,-3.1837,-3.1984,-2.9785,0.0,0.0,0.0,0.0,0.0,0.0,0.0,0.0,0.0,0.0,0.0,0.0,0.0,0.0,0.0,0.0,-2.3521,0.0,-2.3948,0.0,0.0,0.0,0.0,0.0,-2.6284,-2.6561,-2.6834,-2.7157,-2.7565,-2.7928,-2.8482,-2.8798,-2.8886,-2.8886,-2.8744,-2.8431,-2.873,-2.873,-2.8431,-2.8744,-2.8886,-2.8886,-2.8886,-2.8744,-2.851,-2.873,-2.8744,-2.8524,-2.891,-2.9354,-2.9866,-2.9954,-3.0334,-3.0817,-3.0817,-3.0817,-3.0817,-3.0817,-3.0876,-3.1066,-3.1724,-3.209,-3.2339,-3.2676,-3.2778,-3.2778,-3.2778,-3.2778,-3.2778,-3.2778,-3.2778,-3.2793,-3.288,-3.3144,-3.3407,-3.3495,-3.3773,-3.4066,-3.43,-3.4358,-3.4432,-3.4666,-3.4225,-3.4045,-3.4572,-3.471,-3.4601,-3.4508,-3.4118,-3.3634,-3.3069,-3.2597,-3.2232,-3.1758,-3.1664,-3.1664,-3.1664,-3.1664,-3.1664,-3.1664,-3.1664,-3.1664,-3.1664,-3.1664,-3.1664,-3.1664,-3.1664,-3.1704,-3.1797,-3.2011,-3.2144,0.0,0.0,0.0,-2.9238,0.0,0.0,0.0,0.0,-2.7175,0.0,0.0,0.0,0.0,0.0,0.0,0.0,0.0,0.0,0.0,0.0,0.0,0.0,0.0,0.0,0.0,-2.5476,-2.5637,0.0,-2.6427,-2.6764,-2.8282,-2.837,-2.8578,-2.8886,-2.8886,-2.8886,-2.8886,-2.8886,-2.8886,-2.8886,-2.8886,-2.8886,-2.8886,-2.8886,-2.8886,-2.8886,-2.8886,-2.8886,-2.8915,-2.9222,-2.9559,-2.9895,-3.0299,-3.0539,-3.0817,-3.0817,-3.0817,-3.0817,-3.0817,-3.1037,-3.1402,-3.2061,-3.228,-3.2339,-3.2676,-3.2778,-3.2778,-3.2778,-3.2778,-3.2778,-3.2778,-3.2778,-3.2851,-3.3158,-3.348,-3.3802,-3.4124,-3.4446,-3.468,-3.4695,-3.4695,-3.4695,-3.471,-3.4695,-3.4695,-3.471,-3.471,-3.4508,-3.401,-3.3916,-3.354,-3.2502,-3.2421,-3.2232,-3.1758,-3.1664,-3.1664,-3.1664,-3.1664,-3.1664,-3.1664,-3.1664,-3.1664,-3.1664,-3.1664,-3.1664,-3.1664,-3.1664,-3.181,-3.2091,-3.2104,-3.2251,0.0,0.0,-3.0781,-3.0332,0.0,0.0,0.0,0.0,0.0,0.0,0.0,0.0,0.0,0.0,0.0,0.0,0.0,0.0,0.0,0.0,0.0,0.0,0.0,0.0,0.0,0.0,0.0,0.0,-2.5696,0.0,-2.7422,-2.7891,-2.818,-2.8578,-2.8783,-2.8886,-2.8886,-2.8886,-2.8886,-2.8886,-2.8886,-2.8886,-2.8886,-2.8886,-2.8886,-2.8886,-2.8886,-2.9017,-2.9222,-2.9325,-2.969,-3.0284,-3.0387,-3.0539,-3.0817,-3.0817,-3.0817,-3.0861,-3.1066,-3.1359,-3.171,-3.2149,-3.2427,-3.2632,-3.2734,-3.2778,-3.2778,-3.2778,-3.2778,-3.2778,-3.2778,-3.2924,-3.3115,-3.3217,-3.3656,-3.408,-3.4197,-3.4475,-3.471,-3.471,-3.471,-3.471,-3.471,-3.471,-3.471,-3.471,-3.471,-3.4508,-3.401,-3.3634,-3.3163,-3.2502,-3.2138,-3.1853,-3.1664,-3.1664,-3.1664,-3.1664,-3.1664,-3.1853,-3.2138,-3.2138,-3.2327,-3.2705,-3.2327,-3.2138,-3.2138,-3.2055,-3.2011,-3.2118,-3.2505,-3.2732,-3.3184,-3.2656,0.0,-3.1641,-3.041,0.0,-2.8535,0.0,0.0,0.0,0.0,0.0,0.0,0.0,0.0,0.0,0.0,0.0,0.0,-2.4447,0.0,0.0,0.0,0.0,0.0,0.0,-2.3984,-2.5046,-2.5037,0.0,0.0,0.0,-2.7934,-2.818,-2.8666,-2.8886,-2.8886,-2.8886,-2.8886,-2.8886,-2.8886,-2.8886,-2.8886,-2.8886,-2.8886,-2.89,-2.9017,-2.9178,-2.9398,-2.9632,-3.0049,-3.0446,-3.0481,-3.0642,-3.0817,-3.0817,-3.089,-3.1037,-3.1373,-3.1695,-3.2017,-3.2354,-3.2602,-3.2778,-3.2778,-3.2778,-3.2778,-3.2778,-3.2778,-3.2778,-3.2778,-3.3012,-3.3276,-3.3393,-3.3832,-3.4256,-3.4358,-3.4549,-3.471,-3.471,-3.471,-3.471,-3.471,-3.471,-3.471,-3.471,-3.471,-3.4508,-3.401,-3.3445,-3.2988,-3.2408,-3.1948,-3.1664,-3.1664,-3.2043,-3.2138,-3.1948,-3.2138,-3.2327,-3.2691,-3.2691,-3.28,-3.288,-3.2597,-3.2368,-3.2287,-3.2203,-3.2211,-3.2425,-3.2799,-3.3026]},{"header":{"parameterUnit":"m.s-1","parameterCategory":1,"la1":30.6,"la2":29.2853,"lo1":-89.7004,"lo2":-87.6739,"dy":0.0162,"dx":0.0183,"nx":112,"ny":82,"refTime":"2026-02-27T12:00:00:Z","depth":0,"parameterNumber":3,"parameterNumberName":"V-component_of_WINDS"},"data":[0.0,0.0,0.0,0.0,0.0,0.0,0.0,0.0,0.0,0.0,0.0,0.0,0.0,0.0,0.0,0.0,0.0,0.0,0.0,0.0,0.0,0.0,0.0,0.0,0.0,0.0,0.0,0.0,0.0,0.0,0.0,0.0,0.0,0.0,0.0,0.0,0.0,0.0,0.0,0.0,0.0,0.0,0.0,0.0,0.0,0.0,0.0,0.0,0.0,0.0,0.0,0.0,0.0,0.0,0.0,0.0,0.0,0.0,0.0,0.0,0.0,0.0,0.0,0.0,0.0,0.0,0.0,0.0,0.0,0.0,0.0,0.0,0.0,0.0,0.0,0.0,0.0,0.0,0.0,0.0,0.0,0.0,0.0,0.0,0.0,0.0,0.0,0.0,0.0,0.0,3.9237,3.9015,4.0561,4.1847,4.2497,4.2014,4.0464,3.7696,0.0,0.0,0.0,0.0,0.0,0.0,0.0,0.0,0.0,0.0,0.0,0.0,0.0,0.0,0.0,0.0,0.0,0.0,0.0,0.0,0.0,0.0,0.0,0.0,0.0,0.0,0.0,0.0,0.0,0.0,0.0,0.0,0.0,0.0,0.0,0.0,0.0,0.0,0.0,0.0,0.0,0.0,0.0,0.0,0.0,0.0,0.0,0.0,0.0,0.0,0.0,0.0,0.0,0.0,0.0,0.0,0.0,0.0,0.0,0.0,0.0,0.0,0.0,0.0,0.0,0.0,0.0,0.0,0.0,0.0,0.0,0.0,0.0,0.0,0.0,0.0,0.0,0.0,0.0,0.0,0.0,0.0,0.0,0.0,0.0,0.0,0.0,0.0,0.0,0.0,0.0,0.0,0.0,0.0,0.0,0.0,0.0,0.0,0.0,0.0,0.0,0.0,0.0,0.0,3.8569,4.131,4.2281,4.2613,4.2283,4.1693,4.0159,3.7369,0.0,0.0,0.0,0.0,0.0,0.0,0.0,0.0,0.0,0.0,0.0,0.0,0.0,0.0,0.0,0.0,0.0,0.0,0.0,0.0,0.0,0.0,0.0,0.0,0.0,0.0,0.0,0.0,0.0,0.0,0.0,0.0,0.0,0.0,0.0,0.0,0.0,0.0,0.0,0.0,0.0,0.0,0.0,0.0,0.0,0.0,0.0,0.0,0.0,0.0,0.0,0.0,0.0,0.0,0.0,0.0,0.0,0.0,0.0,0.0,0.0,0.0,0.0,0.0,0.0,0.0,0.0,0.0,0.0,0.0,0.0,0.0,0.0,0.0,0.0,0.0,0.0,0.0,0.0,0.0,0.0,0.0,0.0,0.0,0.0,0.0,0.0,0.0,0.0,0.0,0.0,0.0,0.0,0.0,0.0,0.0,0.0,0.0,0.0,0.0,0.0,0.0,0.0,3.8316,3.9149,4.1647,4.2004,4.2184,4.2394,4.1595,4.0127,3.7959,3.7659,0.0,0.0,0.0,0.0,0.0,0.0,0.0,0.0,0.0,0.0,0.0,0.0,0.0,0.0,0.0,0.0,0.0,0.0,0.0,0.0,0.0,0.0,0.0,0.0,0.0,0.0,0.0,0.0,0.0,0.0,0.0,0.0,0.0,0.0,0.0,0.0,0.0,0.0,0.0,0.0,0.0,0.0,0.0,0.0,0.0,0.0,0.0,0.0,0.0,0.0,0.0,0.0,0.0,0.0,0.0,0.0,0.0,0.0,0.0,0.0,0.0,0.0,0.0,0.0,0.0,0.0,0.0,0.0,0.0,0.0,0.0,0.0,0.0,0.0,0.0,0.0,0.0,0.0,0.0,0.0,0.0,0.0,0.0,0.0,0.0,0.0,0.0,0.0,0.0,0.0,0.0,0.0,0.0,0.0,0.0,0.0,0.0,0.0,0.0,0.0,0.0,0.0,3.9922,4.0694,4.2028,4.1802,4.1776,4.2424,4.1334,3.9933,3.8397,3.7592,0.0,0.0,0.0,0.0,0.0,0.0,0.0,0.0,0.0,0.0,0.0,0.0,0.0,0.0,0.0,0.0,0.0,0.0,0.0,0.0,0.0,0.0,0.0,0.0,0.0,0.0,0.0,0.0,0.0,0.0,0.0,0.0,0.0,0.0,0.0,0.0,0.0,0.0,0.0,0.0,0.0,0.0,0.0,0.0,0.0,0.0,0.0,0.0,0.0,0.0,0.0,0.0,0.0,0.0,0.0,0.0,0.0,0.0,0.0,0.0,0.0,0.0,0.0,0.0,0.0,0.0,0.0,0.0,0.0,0.0,0.0,0.0,0.0,0.0,0.0,0.0,0.0,0.0,0.0,0.0,0.0,0.0,0.0,0.0,0.0,0.0,0.0,0.0,0.0,0.0,0.0,0.0,0.0,0.0,0.0,0.0,0.0,0.0,0.0,0.0,0.0,0.0,4.1721,4.3431,4.3566,4.2693,4.2186,4.2213,4.0697,3.9185,3.7984,3.681,0.0,0.0,0.0,0.0,0.0,0.0,0.0,0.0,0.0,0.0,0.0,0.0,0.0,0.0,0.0,0.0,0.0,0.0,0.0,0.0,0.0,0.0,0.0,0.0,0.0,0.0,0.0,0.0,0.0,0.0,0.0,0.0,0.0,0.0,0.0,0.0,0.0,0.0,0.0,0.0,0.0,0.0,0.0,0.0,0.0,0.0,0.0,0.0,0.0,0.0,0.0,0.0,0.0,0.0,0.0,0.0,0.0,0.0,0.0,0.0,0.0,0.0,0.0,0.0,0.0,0.0,0.0,0.0,0.0,0.0,0.0,0.0,0.0,0.0,0.0,0.0,0.0,0.0,0.0,0.0,0.0,0.0,0.0,0.0,0.0,0.0,0.0,0.0,0.0,0.0,0.0,0.0,0.0,0.0,0.0,0.0,0.0,0.0,0.0,0.0,0.0,0.0,4.1824,4.3324,0.0,4.3726,4.3533,4.3533,4.2903,4.1671,3.9727,0.0,0.0,0.0,0.0,0.0,0.0,0.0,0.0,0.0,0.0,0.0,0.0,0.0,0.0,0.0,0.0,0.0,0.0,0.0,0.0,0.0,0.0,0.0,0.0,0.0,0.0,0.0,0.0,0.0,0.0,0.0,0.0,0.0,0.0,0.0,0.0,0.0,0.0,0.0,0.0,0.0,0.0,0.0,0.0,0.0,0.0,0.0,0.0,0.0,0.0,0.0,0.0,0.0,0.0,0.0,0.0,0.0,0.0,0.0,0.0,0.0,0.0,0.0,0.0,0.0,0.0,0.0,0.0,0.0,0.0,0.0,0.0,0.0,0.0,0.0,0.0,0.0,0.0,0.0,0.0,0.0,0.0,0.0,0.0,0.0,0.0,0.0,0.0,0.0,0.0,0.0,0.0,0.0,0.0,0.0,0.0,0.0,0.0,0.0,0.0,0.0,0.0,4.0957,4.2763,4.43,0.0,4.5308,4.5315,4.5512,4.5025,4.3702,4.1377,0.0,0.0,0.0,0.0,0.0,0.0,0.0,0.0,0.0,0.0,0.0,0.0,0.0,0.0,0.0,0.0,0.0,0.0,0.0,0.0,0.0,0.0,0.0,0.0,0.0,0.0,0.0,0.0,0.0,0.0,0.0,0.0,0.0,0.0,0.0,0.0,0.0,0.0,0.0,0.0,0.0,0.0,0.0,0.0,0.0,0.0,0.0,0.0,0.0,0.0,0.0,0.0,0.0,0.0,0.0,0.0,0.0,0.0,0.0,0.0,0.0,0.0,0.0,0.0,0.0,0.0,0.0,0.0,0.0,0.0,0.0,0.0,0.0,0.0,0.0,0.0,0.0,0.0,0.0,0.0,0.0,0.0,0.0,0.0,0.0,0.0,0.0,0.0,0.0,0.0,0.0,0.0,0.0,0.0,0.0,0.0,0.0,0.0,0.0,0.0,0.0,0.0,4.2129,4.4909,4.7102,4.7788,4.7538,4.7596,4.8189,4.6571,4.4705,0.0,0.0,0.0,0.0,0.0,0.0,0.0,0.0,0.0,0.0,0.0,0.0,0.0,0.0,0.0,0.0,0.0,0.0,0.0,0.0,0.0,0.0,0.0,0.0,0.0,0.0,0.0,0.0,0.0,0.0,0.0,0.0,0.0,0.0,0.0,0.0,0.0,0.0,0.0,0.0,0.0,0.0,0.0,0.0,0.0,0.0,0.0,0.0,0.0,0.0,0.0,0.0,0.0,0.0,0.0,0.0,0.0,0.0,0.0,0.0,0.0,0.0,0.0,0.0,0.0,0.0,0.0,0.0,0.0,0.0,0.0,0.0,0.0,0.0,0.0,0.0,0.0,0.0,0.0,0.0,0.0,0.0,0.0,0.0,0.0,0.0,0.0,0.0,0.0,0.0,0.0,0.0,0.0,0.0,0.0,0.0,0.0,0.0,0.0,0.0,0.0,0.0,0.0,4.4258,4.7184,4.9423,5.0122,5.0124,5.011,5.0287,4.9392,4.7596,4.4696,0.0,0.0,0.0,0.0,0.0,0.0,0.0,0.0,0.0,0.0,0.0,0.0,0.0,0.0,0.0,0.0,0.0,0.0,0.0,0.0,0.0,0.0,0.0,0.0,0.0,0.0,0.0,0.0,0.0,0.0,0.0,0.0,0.0,0.0,0.0,0.0,0.0,0.0,0.0,0.0,0.0,0.0,0.0,0.0,0.0,0.0,0.0,0.0,0.0,0.0,0.0,0.0,0.0,0.0,0.0,0.0,0.0,0.0,0.0,0.0,0.0,0.0,0.0,0.0,0.0,0.0,0.0,0.0,0.0,0.0,0.0,0.0,0.0,0.0,0.0,0.0,0.0,0.0,0.0,0.0,0.0,0.0,0.0,0.0,0.0,0.0,0.0,0.0,0.0,0.0,0.0,0.0,0.0,0.0,0.0,0.0,0.0,0.0,0.0,0.0,0.0,0.0,4.5289,4.8637,5.1269,5.2201,5.258,5.2803,5.3122,5.2231,5.0276,4.6978,0.0,0.0,0.0,0.0,0.0,0.0,0.0,0.0,0.0,0.0,0.0,0.0,0.0,0.0,0.0,0.0,0.0,0.0,0.0,0.0,0.0,0.0,0.0,0.0,0.0,0.0,0.0,0.0,0.0,0.0,0.0,0.0,0.0,0.0,0.0,0.0,0.0,0.0,0.0,0.0,0.0,0.0,0.0,0.0,0.0,0.0,0.0,0.0,0.0,0.0,0.0,0.0,0.0,0.0,0.0,0.0,0.0,0.0,0.0,0.0,0.0,0.0,0.0,0.0,0.0,0.0,0.0,0.0,0.0,0.0,0.0,0.0,0.0,0.0,0.0,0.0,0.0,0.0,0.0,0.0,0.0,0.0,0.0,0.0,0.0,0.0,0.0,0.0,0.0,0.0,0.0,0.0,0.0,0.0,0.0,0.0,0.0,0.0,0.0,0.0,0.0,0.0,4.5849,4.9809,5.2963,5.4291,5.4914,5.5457,5.6066,5.4831,5.2625,4.9413,0.0,0.0,0.0,0.0,0.0,0.0,0.0,0.0,0.0,0.0,0.0,0.0,0.0,0.0,0.0,0.0,0.0,0.0,0.0,0.0,0.0,0.0,0.0,0.0,0.0,0.0,0.0,0.0,0.0,0.0,0.0,0.0,0.0,0.0,0.0,0.0,0.0,0.0,0.0,0.0,0.0,0.0,0.0,0.0,0.0,0.0,0.0,0.0,0.0,0.0,0.0,0.0,0.0,0.0,0.0,0.0,0.0,0.0,0.0,0.0,5.1787,4.9582,0.0,0.0,0.0,0.0,0.0,0.0,0.0,0.0,0.0,0.0,0.0,0.0,0.0,0.0,0.0,0.0,0.0,0.0,0.0,0.0,0.0,0.0,0.0,0.0,0.0,0.0,0.0,0.0,0.0,0.0,0.0,0.0,0.0,0.0,0.0,0.0,0.0,0.0,0.0,0.0,4.8351,5.2744,5.6227,5.7652,5.7246,5.6962,5.7117,5.5184,5.3055,5.0855,4.7632,0.0,0.0,0.0,0.0,0.0,0.0,0.0,0.0,0.0,0.0,0.0,0.0,0.0,0.0,0.0,0.0,0.0,0.0,0.0,0.0,0.0,0.0,0.0,0.0,0.0,0.0,0.0,0.0,0.0,0.0,0.0,0.0,0.0,0.0,0.0,0.0,0.0,0.0,0.0,0.0,0.0,0.0,0.0,0.0,0.0,0.0,0.0,0.0,0.0,0.0,0.0,0.0,0.0,0.0,0.0,0.0,0.0,0.0,0.0,5.634,5.4133,0.0,0.0,0.0,0.0,0.0,0.0,0.0,0.0,0.0,0.0,0.0,0.0,0.0,0.0,0.0,0.0,0.0,0.0,0.0,0.0,0.0,0.0,0.0,0.0,0.0,0.0,0.0,0.0,0.0,0.0,0.0,0.0,0.0,0.0,0.0,0.0,0.0,0.0,0.0,0.0,4.9826,5.415,5.7592,5.9041,5.8754,5.8437,5.8437,5.7078,5.5317,5.3363,5.0285,0.0,0.0,0.0,0.0,0.0,0.0,0.0,0.0,0.0,0.0,0.0,0.0,0.0,0.0,0.0,0.0,0.0,0.0,0.0,0.0,0.0,0.0,0.0,0.0,0.0,0.0,0.0,0.0,0.0,0.0,0.0,0.0,0.0,0.0,0.0,0.0,0.0,0.0,0.0,0.0,0.0,0.0,0.0,0.0,0.0,0.0,0.0,0.0,0.0,0.0,0.0,0.0,0.0,6.2681,6.3567,6.4045,6.4795,6.4863,6.4283,6.2327,6.0408,5.866,5.866,0.0,0.0,0.0,0.0,0.0,0.0,0.0,0.0,0.0,0.0,0.0,0.0,0.0,0.0,0.0,0.0,0.0,0.0,0.0,0.0,0.0,0.0,0.0,0.0,5.5008,5.5095,5.0692,0.0,0.0,0.0,0.0,0.0,0.0,0.0,0.0,0.0,0.0,0.0,5.0848,5.5042,5.8367,5.9738,5.987,5.9849,5.9849,5.9037,5.7761,5.6084,5.3361,5.0729,0.0,0.0,0.0,0.0,0.0,0.0,0.0,0.0,0.0,0.0,0.0,0.0,0.0,0.0,0.0,0.0,0.0,0.0,0.0,0.0,0.0,0.0,0.0,0.0,0.0,0.0,0.0,0.0,0.0,0.0,0.0,0.0,5.9352,5.7953,0.0,0.0,0.0,0.0,0.0,0.0,0.0,0.0,0.0,0.0,0.0,0.0,0.0,6.2745,6.2883,6.5514,6.66,6.6215,6.9648,7.1014,7.0526,7.1262,7.189,7.245,7.2135,0.0,6.1806,6.1806,0.0,0.0,0.0,0.0,0.0,0.0,0.0,0.0,0.0,0.0,0.0,0.0,0.0,0.0,0.0,0.0,0.0,0.0,0.0,0.0,0.0,0.0,5.9873,5.9219,5.8795,5.8349,0.0,5.3953,5.0285,4.8704,4.6956,0.0,0.0,0.0,0.0,0.0,0.0,0.0,5.2073,5.6646,6.0112,6.0981,6.0943,6.082,6.082,5.9379,5.8437,5.8261,5.5562,5.3625,5.2776,4.9393,0.0,0.0,0.0,0.0,0.0,0.0,0.0,0.0,0.0,0.0,0.0,0.0,0.0,0.0,0.0,0.0,0.0,0.0,0.0,0.0,0.0,0.0,0.0,0.0,0.0,0.0,0.0,0.0,0.0,5.9443,6.0454,5.7251,5.9039,5.9043,0.0,0.0,0.0,0.0,0.0,0.0,0.0,0.0,0.0,6.4787,6.5986,6.7157,6.8434,7.0238,7.1371,7.19,7.356,7.4444,7.4514,7.4832,7.5186,7.5501,7.5501,7.3315,6.9575,6.7225,6.4897,6.2576,0.0,0.0,0.0,0.0,5.9622,5.9988,6.1549,6.1604,6.0968,6.1207,0.0,0.0,0.0,0.0,0.0,0.0,0.0,0.0,0.0,0.0,6.1623,6.2114,6.2298,6.2266,6.1849,5.9208,5.6003,0.0,5.0686,4.894,4.7233,0.0,0.0,0.0,0.0,5.1934,5.3478,5.7058,5.9945,6.1163,6.1217,6.1354,6.1756,6.1098,6.0517,6.0175,5.8169,5.6697,5.6032,5.2874,5.0291,0.0,0.0,0.0,0.0,0.0,0.0,0.0,0.0,0.0,0.0,0.0,0.0,0.0,0.0,0.0,0.0,0.0,0.0,0.0,0.0,0.0,0.0,0.0,0.0,0.0,0.0,0.0,0.0,6.0977,6.1987,5.7593,6.0847,6.1473,0.0,0.0,0.0,0.0,0.0,0.0,6.5462,6.6375,6.7722,6.9639,7.0676,7.1969,7.3689,7.4476,7.5442,7.6513,7.6728,7.7121,7.7619,7.7871,7.7978,7.7978,7.7978,7.7369,7.6117,7.2044,6.8893,6.6529,6.5009,6.444,6.4534,6.4305,6.4429,6.4979,6.6614,6.6682,6.5927,6.5386,6.3541,6.0879,5.7608,0.0,0.0,0.0,0.0,5.831,6.1241,6.2408,6.3146,6.4472,6.4915,6.4858,6.4324,6.2914,6.0563,0.0,5.4328,5.2257,4.9523,0.0,0.0,0.0,0.0,5.3145,5.4702,5.7306,5.9438,6.0588,6.0892,6.1298,6.2042,6.211,6.1941,6.1603,6.0351,5.9336,5.8795,5.6292,5.4126,5.2368,0.0,0.0,0.0,0.0,0.0,0.0,0.0,0.0,0.0,0.0,0.0,0.0,0.0,0.0,0.0,0.0,0.0,0.0,0.0,0.0,0.0,0.0,0.0,0.0,0.0,0.0,0.0,0.0,0.0,6.1391,6.5756,0.0,0.0,0.0,0.0,6.3879,6.6716,6.8796,6.9557,7.2443,7.4441,7.5243,7.681,7.7684,7.7794,7.8526,7.8926,7.9036,7.98,8.0201,8.0237,8.1002,8.133,8.133,8.133,8.0456,7.8717,7.4726,7.2579,7.1586,7.0097,6.9529,6.9421,6.8629,6.8782,6.9449,6.949,6.8976,6.8684,7.0834,6.8094,6.3589,6.1893,5.9335,0.0,0.0,6.0683,6.2968,6.5221,6.5852,6.6095,6.6921,6.6021,6.4999,6.4928,6.3789,6.1973,0.0,5.704,5.4716,5.2465,0.0,5.1016,5.098,5.2401,5.3991,5.548,5.7611,5.9032,5.9133,5.9742,6.0486,6.1298,6.1366,6.1637,6.2279,6.1603,6.1163,6.1129,5.9573,5.7712,5.5547,5.3213,0.0,0.0,0.0,0.0,0.0,0.0,0.0,0.0,0.0,0.0,0.0,0.0,0.0,0.0,0.0,0.0,0.0,0.0,0.0,0.0,0.0,0.0,0.0,0.0,0.0,0.0,0.0,0.0,6.4776,6.8965,0.0,6.7465,6.8073,6.8902,6.9369,7.1874,7.3933,7.5248,7.651,7.7514,7.8322,7.9421,7.997,7.997,8.074,8.1143,8.1143,8.1403,8.1549,8.1549,8.1842,8.2022,8.2022,8.2022,8.1037,7.9499,7.8055,7.627,7.423,7.3212,7.2879,7.2971,7.2647,7.2765,7.3076,7.3031,7.2534,7.1728,7.1032,6.9161,6.6893,6.5286,6.402,6.3393,6.442,6.5323,6.6373,6.8192,6.8666,6.8633,6.8385,6.7884,6.7375,6.6867,6.583,6.4657,6.3321,6.0357,5.7645,5.6344,5.5022,5.4023,5.3507,5.4292,5.5277,5.6292,5.7509,5.849,5.8964,5.9268,5.9708,6.0452,6.052,6.0655,6.0892,6.025,6.0047,6.052,5.9539,5.8423,5.7137,5.5378,5.257,0.0,0.0,0.0,0.0,0.0,0.0,0.0,0.0,0.0,0.0,0.0,0.0,0.0,0.0,0.0,0.0,0.0,0.0,0.0,0.0,0.0,0.0,0.0,0.0,0.0,6.652,6.9596,6.8482,7.2541,7.4469,7.1978,7.2911,7.3893,7.4401,7.6418,7.8065,7.9128,7.959,8.0057,8.0571,8.1122,8.1415,8.1415,8.1929,8.2186,8.2186,8.2186,8.2186,8.2186,8.2186,8.2186,8.2186,8.2186,8.1269,7.98,7.98,7.8353,7.6121,7.5603,7.5482,7.5574,7.5574,7.5635,7.5652,7.5102,7.4368,7.334,7.1211,7.0146,6.9486,6.8128,6.7724,6.7834,6.8348,6.8715,6.9155,7.022,7.0293,6.9963,6.9449,6.8898,6.8348,6.7797,6.7193,6.6628,6.6131,6.3019,6.0184,5.9159,5.7872,5.6644,5.5692,5.6089,5.6575,5.6838,5.755,5.8157,5.8592,5.8663,5.9004,5.9674,5.9505,5.9573,6.008,5.9167,5.9001,5.9783,5.8832,5.7952,5.7279,5.5278,5.2703,4.9542,0.0,0.0,0.0,0.0,0.0,0.0,0.0,0.0,0.0,0.0,0.0,0.0,0.0,0.0,0.0,0.0,0.0,0.0,0.0,0.0,0.0,0.0,0.0,6.506,6.9928,7.3227,7.2647,7.6745,7.9027,7.749,7.8233,7.8736,7.8736,8.0167,8.1048,8.1048,8.1782,8.2186,8.2186,8.2186,8.2186,8.2186,8.2186,8.2186,8.2186,8.2186,8.2186,8.2186,8.2186,8.2186,8.2186,8.215,8.1269,7.98,7.9764,7.8772,7.7273,7.7273,7.7273,7.7273,7.7273,7.7273,7.7053,7.5506,7.4404,7.3487,7.1908,7.1329,7.1211,7.0403,7.0183,7.0183,7.0183,7.0734,7.1329,7.1329,7.0734,7.011,7.011,6.8898,6.7724,6.7714,6.7687,6.7687,6.7687,6.4984,6.2269,6.0919,5.9951,5.8931,5.7545,5.7781,0.0,5.7292,5.7836,5.8171,5.792,5.8099,5.8441,5.8896,5.8287,5.8527,5.9911,5.8696,5.8296,5.9154,5.7652,5.6601,5.6097,5.3138,5.1262,5.0697,0.0,0.0,0.0,0.0,0.0,0.0,0.0,0.0,0.0,0.0,0.0,0.0,0.0,0.0,0.0,0.0,0.0,0.0,0.0,0.0,0.0,6.664,6.8954,6.8482,7.1811,7.5343,7.8078,8.0715,8.2598,8.3331,8.2594,8.2076,8.2076,8.1966,8.1856,8.1856,8.2076,8.2186,8.2186,8.2186,8.2186,8.2186,8.2186,8.2186,8.2186,8.2186,8.2186,8.2186,8.2186,8.2186,8.215,8.1562,8.0755,7.9727,7.9176,7.8295,7.7273,7.7273,7.7273,7.7273,7.7273,7.7273,7.7127,7.613,7.5249,7.4404,7.3377,7.2642,7.2129,7.1908,7.1835,7.1835,7.1835,7.2018,7.2165,7.2165,7.1578,7.0844,7.022,6.9302,6.8421,6.7834,6.7687,6.7687,6.7687,6.6472,6.5113,6.4148,6.2807,6.1516,6.0518,6.0028,0.0,5.952,5.9663,5.9334,5.8082,5.8496,5.853,5.7693,5.7929,5.8103,5.8074,5.7665,5.736,5.7054,5.712,5.7359,5.7804,5.487,5.3231,0.0,0.0,0.0,0.0,0.0,0.0,0.0,0.0,0.0,0.0,0.0,0.0,0.0,0.0,0.0,0.0,0.0,0.0,0.0,0.0,0.0,0.0,7.066,7.3376,7.3866,7.5904,7.8463,8.1469,8.3331,8.4756,8.571,8.4646,8.3765,8.3434,8.2663,8.2186,8.2186,8.2186,8.2186,8.2186,8.2186,8.2186,8.2186,8.2186,8.2186,8.2186,8.2186,8.2186,8.2186,8.2186,8.2186,8.215,8.1342,8.0534,7.9727,7.8919,7.8112,0.0,0.0,0.0,0.0,0.0,7.7273,7.7163,7.6387,7.5799,7.5212,7.4074,7.3377,7.2936,7.2606,7.2496,7.2496,7.2496,7.2496,7.2496,7.2496,7.1908,7.1101,7.0293,6.9486,6.8678,6.7871,6.7687,6.7687,6.7687,6.732,0.0,6.5925,6.4446,6.2967,6.1914,6.1293,6.0683,6.0088,6.0342,6.0269,5.9593,5.9978,6.0061,5.9525,5.9284,0.0,0.0,0.0,5.6678,5.557,5.5764,0.0,0.0,0.0,0.0,0.0,0.0,0.0,0.0,5.3397,5.3017,0.0,0.0,0.0,0.0,0.0,0.0,0.0,0.0,0.0,0.0,0.0,0.0,0.0,0.0,0.0,0.0,7.4315,7.7341,7.9727,8.0828,8.1966,8.3398,8.4866,8.5783,8.5783,8.5086,8.4278,8.3471,8.2663,8.2186,8.2186,8.2186,0.0,0.0,0.0,8.2186,8.2186,8.2186,8.2186,8.2186,8.2186,8.2186,8.2186,8.2186,8.2186,8.215,8.1269,8.0461,7.9727,7.8809,7.8002,7.7273,7.7273,7.7273,7.7273,7.7273,7.7273,7.72,7.6497,0.0,0.0,7.4331,7.378,7.356,7.2753,7.2496,7.2496,7.2496,7.2496,7.2496,7.2496,7.1908,7.1101,7.0293,6.9486,6.8678,6.7871,6.7687,6.7687,6.7687,6.7687,6.7467,6.6769,6.5301,6.3753,6.243,6.196,6.126,6.0031,6.048,6.1105,6.1569,0.0,0.0,6.2679,6.1548,6.1016,6.1481,5.8745,5.651,5.5127,5.4697,5.4922,5.5764,5.4695,5.5904,5.953,5.8928,6.0043,6.2576,5.6121,5.5393,0.0,0.0,0.0,0.0,0.0,0.0,0.0,0.0,0.0,0.0,0.0,0.0,0.0,0.0,0.0,7.3646,7.6845,7.969,8.1489,8.2994,8.4022,8.4352,8.5233,8.5783,8.5783,8.5086,8.4278,8.3471,8.2663,8.2186,8.2186,8.2186,8.2186,8.2186,8.2186,8.2186,8.2186,8.2186,8.2186,8.2186,0.0,0.0,8.2186,8.2186,8.2186,8.2113,8.0645,7.991,7.9653,7.8185,7.742,7.7273,7.7273,7.7273,7.7273,7.7273,7.7273,7.7273,7.7127,7.6644,7.5946,7.4992,7.4221,7.356,7.2753,7.2496,0.0,7.2496,7.2496,7.2496,7.2496,7.1908,7.1101,7.0293,6.9486,6.8678,6.7871,6.7687,6.7687,6.7687,6.7687,6.7677,6.7467,6.6145,6.4761,6.3815,6.3031,6.2468,6.2219,6.2303,6.2202,6.1736,6.2256,6.2521,6.2185,6.2444,6.2154,6.1176,5.9351,5.8238,5.7917,5.7833,5.8452,5.984,6.0249,6.1453,6.3498,6.3993,6.484,6.5899,6.2693,6.2,0.0,0.0,0.0,0.0,0.0,0.0,0.0,0.0,0.0,0.0,0.0,6.7305,6.8913,0.0,7.4535,7.7395,7.9622,8.1562,8.3177,8.4425,8.5049,8.4646,8.5673,8.6224,8.582,8.5086,8.4278,8.3471,8.2663,8.2186,8.2186,8.2186,8.2186,8.2186,8.2186,8.2186,8.2186,8.2186,8.2186,8.2186,8.2186,8.2186,8.2186,8.2186,8.2186,8.2113,8.0901,8.0167,7.9653,7.8002,7.7273,7.7273,7.7273,7.7273,7.7273,7.7273,7.7273,7.7273,7.7273,7.7017,7.6497,7.5285,7.4625,7.4074,7.2863,7.2496,7.2496,7.2496,7.2496,7.2496,7.2496,7.2202,7.1725,7.0881,7.011,6.9265,6.8458,6.7981,6.7687,6.7687,6.7687,6.7687,6.7687,6.6696,6.5632,6.4824,6.3613,6.278,6.278,6.3172,6.3449,6.35,6.4175,6.4721,6.483,6.4838,6.415,6.2649,6.1806,6.119,6.0755,6.0512,6.1068,6.2558,6.2725,6.3759,6.5646,6.6073,6.7017,6.8476,6.728,6.6807,0.0,0.0,0.0,0.0,0.0,0.0,0.0,0.0,6.5842,6.7468,6.8787,7.0446,7.3047,7.4932,7.7268,8.0901,8.2003,8.2994,8.4609,8.5527,8.571,8.4939,8.6114,8.6628,8.5637,8.4976,8.4205,8.3251,8.2553,8.2186,8.2186,8.2186,8.2186,8.2186,8.2186,8.2186,8.2186,8.2186,8.2186,8.2186,8.2186,8.2186,8.2186,8.2039,8.1966,8.1893,8.0938,8.0057,7.9213,7.7855,7.7273,7.7273,7.7273,7.7273,7.7273,7.7273,7.7273,7.7273,7.7273,7.7273,7.7017,7.5402,7.4918,7.4625,7.301,7.2496,7.2496,7.2496,7.2496,7.2496,7.2496,7.2496,7.2312,7.1505,7.0807,7.0073,6.9119,6.8385,6.7871,6.7724,6.7687,6.7687,6.7687,6.7026,6.6292,6.5632,6.4273,6.3319,6.3319,6.3906,6.464,6.5448,6.6109,6.6843,6.7614,6.71,6.6182,6.4861,6.4787,6.4494,6.3796,6.3189,6.3494,6.4855,6.4491,6.5285,6.7353,6.7499,6.8706,7.0807,7.0807,7.0543,6.1525,6.1154,6.2404,6.4541,6.5742,6.7258,0.0,0.0,7.2658,7.3692,7.5769,7.7457,7.7824,7.925,8.0938,8.2847,8.3214,8.3838,8.5416,8.6371,8.6591,8.5747,8.6481,8.6407,8.4866,8.4646,8.3985,8.2443,8.226,8.2186,8.2186,8.2186,8.2186,8.2186,8.2186,8.2186,8.2186,8.2186,8.2186,8.2186,8.2186,8.2186,8.2186,8.1452,8.1122,8.1048,7.9543,7.8369,7.7598,7.7384,7.7273,7.7273,7.7273,7.7273,7.7273,7.7273,7.7273,7.7273,7.7273,7.7273,7.7017,7.5402,7.4918,7.4625,7.301,7.2496,7.2496,7.2496,7.2496,7.2496,7.2496,7.2496,7.2312,7.1505,7.1219,7.077,6.9229,6.8825,6.8568,6.7834,6.7687,6.7687,6.7687,6.7026,6.6476,6.6366,6.5595,6.5044,6.5044,6.5118,6.5485,6.6292,6.6439,6.6843,6.7614,6.7614,6.7467,6.7283,6.731,6.7247,6.7136,6.6423,6.6396,6.7276,6.7259,6.8028,6.9733,7.0437,7.1668,7.3303,7.3303,7.3281,6.407,6.3852,6.4931,6.8354,7.0187,7.1866,7.4409,7.5269,7.5873,7.6833,7.8259,7.9433,7.991,8.0938,8.2223,8.3838,8.4095,8.4682,8.6261,8.6371,8.6187,8.582,8.5673,8.5343,8.4682,8.4168,8.3434,8.2296,8.2186,8.2186,8.2186,8.2186,8.2186,8.2186,8.2186,8.2186,8.2186,8.2186,8.1966,8.1489,8.1489,8.1269,8.0791,8.0461,8.0277,8.0241,7.9103,7.8405,7.8038,7.7494,7.7273,7.7273,7.7273,7.7273,7.7273,7.7273,7.7273,7.7273,7.7273,7.7273,7.709,7.5983,7.5285,7.4698,7.3523,7.2863,7.2496,7.2496,7.2496,7.2496,7.2496,7.2496,7.2422,7.2092,7.1651,7.0991,6.9853,6.9229,6.8678,6.7834,6.7687,6.7687,6.7687,6.7393,6.7173,6.7173,6.6109,6.5301,6.5301,6.5705,6.6329,6.71,6.7173,6.732,6.765,6.7687,6.7687,6.7687,6.7687,6.7687,6.7687,6.7357,6.7357,6.7687,6.8605,6.9669,7.0807,7.2092,7.3266,7.4404,7.4404,7.4661,6.5518,6.6424,6.815,7.1889,7.4352,7.63,7.7756,7.8473,7.905,7.9769,8.0388,8.0975,8.1562,8.1966,8.2737,8.4352,8.4609,8.5159,8.6775,8.6518,8.5967,8.5527,8.4756,8.4168,8.3948,8.3618,8.3067,8.226,8.2343,8.2343,8.2219,8.2343,8.2343,8.2186,8.2186,8.2186,8.2186,8.1966,8.1562,8.1012,8.0791,8.0351,7.9764,7.9543,7.9323,7.9066,7.8479,7.8259,7.8185,7.753,7.7273,7.7273,7.7273,7.7273,7.7273,7.7273,7.7273,7.7273,7.7273,7.7273,7.7163,7.635,7.5579,7.4771,7.3927,7.312,7.2496,7.2496,7.2496,7.2496,7.2496,7.2496,7.2496,7.2496,7.2055,7.1431,7.0587,6.9963,6.9265,6.8238,6.8017,6.7944,6.7724,6.7687,6.7687,6.7687,6.6696,6.5962,6.5962,6.6476,6.7026,6.7614,6.7687,6.7687,6.7687,6.7907,6.8017,6.8017,6.8238,6.8458,6.8678,6.8458,6.8568,6.9009,6.9963,7.0954,7.1982,7.312,7.4221,7.5249,7.5249,7.5542,6.5374,6.8452,7.2029,7.4651,7.7764,8.0263,8.0535,8.1945,8.3218,8.3251,8.3287,8.3324,8.3324,8.27,8.2737,8.4352,8.4609,8.5159,8.6775,8.6995,8.6407,8.4829,8.3948,8.3141,0.0,8.2957,8.3067,8.226,8.2678,8.2769,8.2219,8.2708,8.2739,8.2219,8.2186,8.2186,8.2186,8.1415,8.1012,8.1012,8.0204,7.98,7.9764,7.8993,7.8185,7.7347,7.7347,7.7347,7.7347,7.731,7.7273,7.7273,7.7273,7.7273,7.7273,7.7273,7.7273,7.7273,7.7273,7.7273,7.7163,7.635,7.5579,7.4771,7.3927,7.312,7.2496,7.2496,7.2496,7.2496,7.2496,7.2496,7.2496,7.2496,7.2496,7.2239,7.1468,7.1219,7.0742,6.9192,6.8862,6.8605,6.7834,6.7687,6.7687,6.7687,6.765,6.7614,6.7614,6.7677,6.765,6.7687,6.7687,6.7687,6.7687,6.8421,6.8862,6.8862,6.9596,7.0367,7.1174,7.044,7.077,7.2312,7.1651,7.2055,7.3634,7.367,7.4515,7.6056,7.6056,7.6093,6.8742,7.2038,7.5505,7.8784,8.1581,8.3654,8.4034,8.4575,8.4829,8.4315,8.2517,8.1012,8.1012,8.0351,8.0351,8.1966,8.3544,8.5159,8.6775,8.6554,8.56,8.4022,8.3104,0.0,0.0,0.0,8.1929,8.2186,8.2375,8.2407,8.2219,8.2375,8.2407,8.2186,8.1672,8.1415,8.1415,8.0608,7.9947,7.9396,7.8552,7.8148,7.8148,7.7855,7.7567,7.7273,7.7273,7.7273,7.7273,7.7273,7.7273,7.7273,7.7273,7.7273,7.7273,7.7273,7.7273,7.7273,7.7273,7.7273,7.7237,7.698,7.6019,7.4845,7.4588,7.356,7.2496,7.2496,7.2496,7.2496,7.2496,7.2496,7.2496,7.2496,7.2496,7.2275,7.1439,7.1293,7.0991,6.9889,6.9706,6.9596,6.9339,6.8862,6.8311,6.776,6.7687,6.7687,6.7687,6.7687,6.7687,6.7687,6.7687,6.7687,6.7687,6.8458,6.8898,6.8898,6.9669,7.022,7.0477,7.077,7.1174,7.1688,7.2496,7.3413,7.4515,7.5028,7.5836,7.687,7.635,7.6093,7.2509,7.5768,7.8878,8.2494,8.4934,8.6464,8.6302,8.6224,8.593,8.4829,8.1819,7.9286,7.8956,7.7524,7.7341,8.0131,8.1856,8.3838,8.6628,8.6077,8.4866,8.3581,8.2443,8.1562,0.0,0.0,0.0,8.2113,8.2375,8.2407,8.2219,8.2375,8.2407,8.2186,8.1415,8.1012,8.1012,7.991,7.8956,7.8148,7.7598,7.7273,7.7273,7.7273,7.7273,7.7273,7.7273,7.7273,7.7273,7.7273,7.7273,7.7273,7.698,7.7047,7.7273,7.698,7.7053,7.7273,7.7273,7.7273,7.7237,7.6943,7.5983,7.4845,7.4551,7.356,7.2496,7.2496,7.2496,7.2496,7.2496,7.2496,7.2496,7.2496,7.2496,7.2349,7.1835,7.1725,7.1505,7.0697,7.055,7.044,7.0146,6.9669,6.9155,6.8641,6.8531,6.8348,6.776,6.7687,6.7687,6.7687,6.7944,6.8128,6.8128,6.8862,6.9339,6.9339,6.9816,7.0367,7.0917,7.1468,7.2129,7.301,7.4037,7.4955,7.5763,7.5983,7.6387,7.6864,7.6056,7.5506,7.6384,7.9499,8.2215,8.5591,8.7669,8.8545,8.7257,8.6995,8.6481,8.4829,8.1195,7.8112,0.0,0.0,7.4074,7.8956,7.9874,8.1636,8.6334,8.571,8.4389,0.0,0.0,0.0,0.0,0.0,0.0,8.2076,8.2641,8.2665,8.2219,8.2641,8.2665,8.2145,8.1305,8.0901,8.0901,7.9323,7.8112,7.7273,7.7273,7.7273,7.7273,7.7273,7.7273,7.7273,7.7237,7.7237,7.7237,7.7163,7.7163,7.709,7.635,7.6533,7.7053,7.6313,7.6533,7.7163,7.7163,7.72,7.709,7.635,7.5542,7.4698,7.3927,7.312,7.2496,7.2496,7.2496,7.2496,7.2496,7.2496,7.2496,7.2496,7.2496,7.2496,7.2496,7.2496,7.2275,7.1541,7.1329,7.1138,7.0293,7.0146,7.0146,7.011,7.011,6.9559,6.8017,6.7797,6.7797,6.7797,6.8495,6.8972,6.8972,6.9706,7.0146,7.0146,7.0183,7.0917,7.2459,7.2532,7.3634,7.5946,7.6019,7.6423,7.7163,7.6423,7.6056,7.6019,7.5212,7.4441,7.9064,8.2794,8.5767,8.6975,8.8508,8.9202,8.7404,8.6554,8.549,8.3251,7.8626,7.5065,0.0,7.3854,7.3927,7.8222,8.0938,0.0,8.6591,8.6664,0.0,8.3654,0.0,8.2333,8.1122,8.0828,0.0,8.2113,8.176,8.1718,8.2182,8.176,8.146,8.1305,7.9947,7.9213,7.9213,7.8185,7.7494,7.7273,7.7273,7.7273,7.7273,7.7273,7.7273,7.7273,7.668,7.6423,7.635,7.5763,7.5542,7.5506,7.5285,7.5322,7.5506,7.5285,7.5359,7.5542,7.5542,7.5909,7.6387,7.6166,7.5139,7.3964,7.3744,7.312,7.2496,7.2496,7.2496,7.2496,7.2496,7.2496,7.2496,7.2496,7.2496,7.2496,7.2496,7.2496,7.2459,7.2239,7.2202,7.1945,7.1138,7.0991,7.0807,7.0183,7.011,6.9926,6.9522,6.9486,6.9486,6.9486,6.9669,6.9779,6.9779,7.055,7.0991,7.0991,7.1578,7.2055,7.2496,7.3083,7.367,7.4294,7.4918,7.5322,7.5542,7.5322,7.5212,7.5212,7.4368,7.4221,8.2324,8.533,8.7797,8.8869,8.9346,8.8837,8.6487,8.4499,8.226,7.9103,7.4515,7.1174,7.1651,7.0697,7.1431,7.6203,7.9396,0.0,8.5967,8.6481,8.5967,0.0,8.3838,0.0,8.215,8.1415,8.1195,8.1636,8.1269,8.1195,8.1636,8.0901,8.0461,8.0461,7.925,7.8405,7.8038,7.7194,7.6974,7.7273,7.6937,7.679,7.679,7.679,7.6607,7.6209,0.0,7.5579,7.5542,7.5102,7.4918,7.4882,7.4515,7.4588,7.4918,7.4918,7.4918,7.4955,7.5322,7.5249,7.5065,7.5065,7.4441,7.3634,7.3266,7.2863,7.2496,7.2496,7.2496,7.2496,7.2496,7.2496,7.2496,7.2496,7.2496,7.2496,7.2496,7.2496,7.2496,7.2496,7.2496,7.2349,7.1908,7.1835,7.1688,7.1211,7.1138,7.1138,7.1138,7.055,7.011,7.011,7.0403,7.0624,7.0624,7.1358,7.1835,7.1835,7.2275,7.2679,7.301,7.345,7.3854,7.4221,7.4661,7.4918,7.4918,7.4918,7.4918,7.4918,7.4808,7.4992,8.5547,8.7285,8.874,9.0397,8.971,8.7815,8.4654,8.1636,7.8259,7.4074,7.0183,6.7614,6.7944,6.7357,6.8715,7.4478,7.7304,8.0388,8.5123,8.5783,8.5747,8.5637,8.4425,8.3508,8.3287,8.2003,8.1122,8.1012,8.0901,8.0828,8.0828,8.0057,7.958,7.947,7.8772,7.8075,7.731,7.6497,7.646,7.7127,7.6423,7.6093,7.6093,7.6093,7.5726,7.5065,7.4845,7.4735,7.4735,7.4625,7.4588,7.4515,7.3817,7.3964,7.4588,7.4588,7.4588,7.4698,7.5395,7.4698,7.356,7.367,7.3634,7.3413,7.2716,7.2496,7.2496,7.2496,7.2496,7.2496,7.2496,7.2496,7.2496,7.2496,7.2496,7.2496,7.2496,7.2496,7.2496,7.2496,7.2496,7.2496,7.2496,7.2496,7.2496,7.2496,7.2496,7.2496,7.2496,7.1284,7.0403,7.0403,7.1064,7.1468,7.1468,7.2092,7.2496,7.2496,7.2496,7.2826,7.3487,7.3634,7.4037,7.4735,7.4845,7.4918,7.4918,7.4918,7.4918,7.4918,7.5616,7.6019,8.7177,8.8481,8.9175,8.9007,8.8359,8.6502,8.152,7.9008,0.0,0.0,6.8568,6.732,6.9302,6.9045,7.055,7.6937,7.8883,8.1048,8.5196,8.5783,8.5527,0.0,8.4572,8.3875,8.2553,8.215,0.0,8.1048,8.0388,7.9984,7.9984,7.925,7.8479,7.7781,7.7598,7.742,7.7273,7.6497,7.6166,7.6313,7.6166,7.6093,7.6093,7.6093,7.6019,7.5836,7.4478,0.0,7.3854,7.3193,7.2936,7.2899,7.2753,7.2789,7.2936,7.2936,7.2936,7.2936,7.3083,7.2936,7.2826,7.3487,7.323,7.2679,7.2532,7.2496,7.2496,7.2496,7.2496,7.2496,7.2496,7.2496,7.2496,7.2496,7.2496,7.2496,7.2496,7.2496,7.2496,7.2496,7.2496,7.2496,7.2496,7.2496,7.2496,7.2496,7.2496,7.2496,7.2496,7.2275,7.2092,7.2092,7.2202,7.2312,7.2312,7.2422,7.2496,7.2496,7.2496,7.2569,7.2716,7.334,7.378,7.3891,7.4551,7.4918,7.4918,7.4918,7.4918,7.4918,7.5065,7.5469,8.7862,8.8807,8.9244,8.864,8.7084,8.4203,7.8345,0.0,0.0,0.0,6.5375,6.5081,6.6659,6.7357,6.8935,7.2899,7.4918,7.7414,8.1489,8.2406,8.3141,8.4462,8.4242,8.3691,8.292,8.2076,8.1232,8.0424,7.9617,7.9176,7.9176,7.8369,7.7745,7.731,7.7273,7.7273,7.7273,7.6093,7.5689,7.6093,7.5249,7.4845,7.4845,7.4845,7.4625,7.4184,7.3413,7.3083,7.3046,7.2679,7.2496,7.2496,7.2496,7.2496,7.2569,7.2973,7.2863,7.2569,7.2973,7.2863,7.2569,7.2936,7.2826,7.2496,7.2496,7.2496,7.2496,7.2496,7.2496,7.2496,7.2496,7.2496,7.2496,7.2496,7.2496,7.2496,7.2496,7.2496,7.2496,7.2496,7.2496,7.2496,7.2496,7.2496,7.2496,7.2496,7.2496,7.2496,7.2496,7.2496,7.2496,7.2496,7.2496,7.2496,7.2496,7.2496,7.2496,7.2496,7.2899,7.312,7.312,7.3891,7.4331,7.4331,7.4698,7.4918,7.4918,7.5322,7.5542,7.5542,7.6423,7.7047,8.8227,8.8807,8.8954,8.813,8.5664,8.18,7.5541,7.2504,0.0,6.3918,6.278,6.3135,6.4163,6.5375,6.688,6.8862,7.077,7.3523,7.7965,7.914,8.0718,8.3948,8.3801,0.0,8.292,8.1746,0.0,7.9617,7.8772,7.8332,7.8332,7.7671,7.7273,7.7273,7.7273,7.72,7.7017,7.5652,7.5139,7.5579,7.4294,7.3707,7.3707,7.3707,7.334,7.2753,7.2569,7.2496,7.2496,7.2496,7.2496,7.2496,7.2496,7.2496,7.2569,7.3193,7.3046,7.2606,7.323,7.3046,7.2496,7.2496,7.2496,7.2496,7.2496,7.2496,7.2496,7.2496,7.2496,7.2496,7.2496,7.2496,7.2496,7.2496,7.2496,7.2496,7.2496,7.2496,7.2496,7.2496,7.2496,7.2496,7.2496,7.2496,7.2496,7.2496,7.2496,7.2496,7.2496,7.2496,7.2496,7.2496,7.2496,7.2496,7.2496,7.2679,7.2753,7.2753,7.3523,7.3964,7.3964,7.4918,7.5359,7.5175,7.5506,7.5616,7.5432,7.6056,7.635,7.6387,7.7708,7.8405,8.83,8.8807,8.7974,8.6527,8.381,7.9919,7.3676,0.0,6.8595,6.3782,6.278,6.3319,6.4897,6.5301,6.6439,6.9486,7.0183,7.2239,7.7818,7.8662,7.991,8.3141,0.0,0.0,8.1379,8.1085,8.0351,7.8809,7.7928,7.742,7.742,7.7347,7.7273,7.7273,7.7273,7.6974,7.624,7.5359,7.4588,7.3927,7.378,7.3707,7.3707,7.3707,7.367,7.356,7.2826,7.2496,0.0,7.2496,7.2496,7.2496,7.2496,7.2496,7.2496,7.2569,7.2569,7.2496,7.2569,7.2569,7.2496,7.2496,7.2496,7.2496,7.2496,7.2496,7.2496,7.2496,7.2496,7.2496,7.2496,7.2496,7.2496,7.2496,7.2496,7.2496,7.2496,7.2496,7.2496,7.2496,7.2496,7.2496,7.2496,7.2496,7.2496,7.2496,7.2496,7.2496,7.2496,7.2496,7.2496,7.2496,7.2496,7.2496,7.2496,7.3156,7.3597,7.3597,7.4331,7.4808,7.4808,7.6246,7.6754,7.6019,7.7488,7.7892,7.7053,7.7127,7.7163,7.7163,7.7347,7.7855,8.7032,8.8082,8.772,8.5692,8.3302,7.9803,7.3458,7.0931,6.8596,6.3807,6.278,6.3,6.3686,6.3796,6.4237,6.5521,6.5705,0.0,7.2092,7.3193,7.5212,7.9947,8.0498,8.0645,0.0,0.0,7.9066,7.7928,7.7494,7.7273,7.7273,7.7273,7.7273,7.7273,7.7273,7.6937,7.6093,7.5322,7.4515,7.367,7.3193,7.2973,7.2973,7.2973,7.2973,7.2973,7.2642,7.2496,0.0,7.2496,7.2496,7.2496,7.2496,7.2496,7.2496,7.2496,7.2496,7.2496,7.2496,7.2496,7.2496,7.2496,7.2496,7.2496,7.2496,7.2496,7.2496,7.2496,7.2496,7.2606,7.3083,7.3597,7.3817,7.334,7.323,7.323,7.323,7.323,7.3377,7.3854,7.3964,7.3964,7.3964,7.3964,7.3964,7.3964,7.3964,7.3964,7.3964,7.3964,7.3964,7.3964,7.3523,7.323,7.323,7.3964,7.4441,7.4441,7.5652,7.6319,7.6319,7.7488,7.7928,7.7598,7.7745,7.7671,7.7273,7.7273,7.7273,7.731,7.7855,7.8259,8.4931,8.638,8.6416,8.475,8.1995,7.838,7.3166,7.0412,6.778,6.3661,6.278,6.278,6.278,6.278,6.278,6.278,6.3025,6.4457,6.8054,6.9229,7.1505,7.624,0.0,7.7965,7.9103,7.8589,7.7965,7.7347,7.7273,7.7273,7.7273,7.7273,7.7273,7.7273,7.7053,7.657,7.5763,7.4955,7.4147,7.334,7.2789,7.2496,7.2496,7.2496,7.2496,7.2496,7.2496,7.2496,0.0,7.2496,7.2496,7.2496,7.2496,7.2496,7.2496,7.2496,7.2496,7.2496,7.2496,7.2496,7.2496,7.2496,7.2496,7.2532,7.2789,7.2679,7.2496,7.2496,7.2679,7.3046,7.3854,7.4478,7.4771,7.4184,7.4037,7.4037,7.4037,7.4037,7.4221,7.4808,7.5102,7.5249,7.5249,7.5469,7.5542,7.5285,7.5249,7.5249,7.5249,7.5249,7.5359,7.5549,7.5322,7.4845,7.4111,7.5028,7.5586,7.5586,7.7157,7.7928,7.7708,7.8516,7.8699,7.8222,7.7892,7.753,7.7273,7.7273,7.753,7.8075,7.8662,7.9213,8.1998,8.3519,8.3519,8.3519,7.9386,7.476,7.2516,6.9018,6.5603,6.3269,6.278,6.278,6.278,6.278,6.278,6.278,6.3503,0.0,6.7357,6.8421,6.9816,7.2275,7.3964,7.4955,7.4955,7.6393,7.731,7.7273,7.7273,0.0,7.7273,7.7273,7.7273,7.7273,7.6533,7.5726,7.4918,7.4111,7.3303,7.2496,7.2496,7.2496,7.2496,7.2496,7.2496,7.2496,7.2496,7.2496,0.0,7.2496,7.2496,7.2496,7.2496,7.2496,7.2496,7.2496,7.2496,7.2496,7.2496,7.2496,7.2496,7.2496,7.2496,7.2642,7.345,7.312,7.2496,7.2496,7.3083,7.3854,7.4698,7.4918,7.4918,7.4918,7.4918,7.4918,7.4918,7.4918,7.4918,7.4918,7.5542,7.6093,7.6093,7.6754,7.698,7.6203,7.6093,7.6093,7.6093,7.6093,7.6387,7.7163,7.8038,7.7561,7.5102,7.6356,7.7273,7.7273,7.8846,7.9396,7.8626,7.936,7.8993,7.7347,7.8148,7.8185,7.7273,7.7273,7.8148,7.9764,7.9764,8.0645,7.5189,7.6927,7.7507,7.6384,7.4551,7.2297,6.9377,6.7524,6.57,6.3294,6.278,6.278,6.278,6.278,6.3184,6.4347,6.4751,0.0,6.6696,6.8054,6.9412,7.0697,7.3744,7.5946,7.6466,7.698,7.7273,7.7273,7.7273,7.7273,7.7273,7.679,7.6497,7.6497,7.624,7.5432,7.4074,7.3817,7.3303,7.2496,7.2496,7.2496,7.2496,7.2496,7.2496,7.2496,7.2496,7.2496,7.2496,7.2496,7.2496,7.2496,7.2496,7.2496,7.2496,7.2496,7.2496,7.2496,7.2496,7.2496,7.2496,7.2496,7.2496,7.2569,7.2789,7.3083,7.3413,7.4001,7.4735,7.5395,7.5652,7.613,7.6393,7.5873,7.5726,7.5726,7.5726,7.5726,7.5873,7.643,7.6754,7.7121,7.7708,7.7524,7.742,7.7745,7.7818,7.7598,7.7011,7.7451,7.7671,7.7347,7.753,7.7635,7.7451,7.8405,7.8993,7.8993,8.0021,8.0498,8.0241,7.9947,7.9543,7.9029,7.8148,7.7892,7.8185,7.8185,7.9029,8.0645,8.1158,8.2003,7.0842,7.2762,7.3523,7.2509,7.1174,6.9602,6.7628,6.6062,6.4626,6.311,6.278,6.2732,6.2401,6.2365,6.2695,6.3723,6.442,6.4897,6.5081,6.6769,6.8531,6.9926,7.2569,7.4955,7.668,7.7127,7.7273,7.7273,7.7273,7.7163,7.6864,7.6387,7.5836,7.5212,7.5175,7.4698,7.3707,7.3377,7.301,7.2496,7.2496,7.2496,7.2496,7.2496,7.2496,7.2496,7.2496,7.2496,0.0,7.2496,7.2496,7.2496,7.2496,7.2496,7.2496,7.2496,7.2496,7.2496,7.2496,7.2716,7.2899,7.2606,7.2716,7.301,7.3303,7.3523,7.3854,7.4698,7.5469,7.6166,7.6497,7.6937,7.7163,7.668,7.657,7.657,7.657,7.657,7.6717,7.72,7.7598,7.7965,7.8516,7.8405,7.8332,7.8552,7.8589,7.8405,7.7855,7.8259,7.8516,7.8259,7.8259,7.8479,7.8993,7.9213,7.9323,7.9323,8.0388,8.0718,8.0131,7.991,7.9653,7.9323,7.8626,7.8662,7.9507,8.0424,8.1232,8.1929,8.303,8.3508,0.0,7.0299,7.0842,7.0842,6.8717,6.6713,6.6826,6.4656,0.0,6.278,6.2743,6.2511,6.1814,6.1594,6.1557,6.1741,6.3172,6.3943,6.3025,6.5007,6.754,7.0146,7.1101,7.2789,7.5873,7.6864,7.7273,7.7273,7.7273,7.6974,7.613,7.6056,7.5285,7.3744,7.3634,7.3597,7.3597,7.2863,7.2496,7.2496,7.2496,7.2496,7.2496,7.2496,7.2496,0.0,7.2496,7.2496,0.0,7.2496,7.2496,7.2496,7.2496,7.2496,7.2496,7.2496,7.2496,7.2496,7.2496,7.3046,7.356,7.2826,7.312,7.3891,7.4625,7.4368,7.4037,7.4845,7.5616,7.635,7.709,7.7273,7.7273,7.7273,7.7273,7.7273,7.7273,7.7273,7.7273,7.7273,7.7965,7.8516,7.8589,7.9176,7.9396,7.8699,7.8589,7.8589,7.8516,7.8552,7.8846,7.9543,7.9617,7.9617,7.9617,7.9029,7.8699,7.8699,8.0094,8.0277,7.8846,7.947,7.9543,7.8883,7.9653,8.0424,8.1195,8.3471,8.4205,8.3471,8.4939,8.4792,6.3635,0.0,6.4251,6.4251,6.3866,6.351,0.0,6.3126,6.2755,6.278,6.2328,6.1998,6.2438,6.152,6.13,6.3209,6.4861,6.5411,6.398,6.5888,6.9009,7.3266,7.3964,7.4845,7.6827,7.7163,7.7273,7.7273,7.7273,7.6974,7.613,7.5542,7.4735,7.3707,7.3083,7.2789,7.2789,7.2606,7.2496,7.2496,7.2496,7.2496,7.2496,7.2496,7.2496,7.2496,7.2496,7.2496,7.2496,7.2496,7.2496,7.2496,7.2496,7.2496,7.2496,7.2496,7.2496,7.2496,7.2496,7.3046,7.367,7.3487,7.3964,7.4551,7.4111,7.4698,7.5689,7.6533,7.687,7.7053,7.7237,7.7273,7.7273,7.7273,7.7273,7.7273,7.7273,7.7273,7.7273,7.7273,7.7457,7.7818,7.8479,7.8222,7.8075,7.8516,7.8589,7.8369,7.7708,7.8185,7.8405,7.7965,7.7892,7.7892,7.7892,7.8883,7.9507,7.9507,7.9874,8.0167,8.0424,8.0608,8.0901,8.1342,8.215,8.2663,8.2847,8.4022,8.4205,8.3434,8.3801,8.3434,6.1978,6.1978,6.1978,6.1978,6.2114,6.2248,6.2381,6.2245,6.2105,6.223,6.1594,6.108,6.1153,6.0432,6.0419,6.2108,6.3429,6.4714,6.6109,6.71,6.9486,7.4331,7.4918,7.5512,7.7127,7.7273,7.7273,7.7273,7.6943,7.6423,7.5579,7.4808,7.3964,7.3156,7.2716,7.2496,7.2496,7.2496,7.2496,7.2496,7.2496,7.2496,7.2496,7.2496,7.2496,7.2496,7.2496,7.2496,7.2496,7.2496,7.2496,7.2496,7.2496,7.2496,7.2496,7.2496,7.2496,7.2496,7.2496,7.3046,7.3817,7.4551,7.4845,7.4918,7.4808,7.5395,7.6203,7.6644,7.7047,7.7273,7.7273,7.7273,7.7273,7.7273,7.7273,7.7273,7.7273,7.7273,7.7273,7.7273,7.7273,7.742,7.7928,7.7604,7.7457,7.7928,7.8002,7.7855,7.7347,7.7708,7.7818,7.7347,7.7273,7.7457,7.7855,7.8736,7.925,7.925,7.9947,8.0534,8.0975,8.1709,8.248,8.3287,8.4095,8.4682,8.5049,8.549,8.5306,8.4499,8.4903,8.4242,6.1978,6.1978,6.1978,6.1978,6.2033,6.2114,6.2354,6.1802,6.132,6.1545,6.086,6.0052,5.9478,5.9258,5.9588,6.0786,6.1961,6.442,6.9302,6.9192,7.0257,7.4735,7.5285,7.5769,7.7163,7.7273,7.7273,7.7273,7.657,7.5763,7.4955,7.4147,7.334,7.2532,7.2496,7.2496,7.2496,7.2496,7.2496,7.2496,7.2496,7.2496,7.2496,7.2496,7.2496,7.2496,0.0,0.0,7.2496,7.2496,7.2496,7.2496,7.2496,7.2496,7.2496,7.2496,7.2496,7.2532,7.2642,7.3193,7.4111,7.5469,7.5616,7.5395,7.5946,7.6203,7.6276,7.6276,7.679,7.731,7.7457,7.7494,7.7494,7.7494,7.7494,7.7457,7.731,7.7273,7.7273,7.7273,7.7273,7.7273,7.7273,7.7273,7.7273,7.7273,7.7273,7.7273,7.7273,7.742,7.742,7.731,7.753,7.8002,7.8699,7.8883,7.9066,7.9323,8.0388,8.1158,8.1525,8.2994,8.4132,8.4939,8.5637,8.6334,8.6995,8.6885,8.6407,8.5637,8.6187,8.538,6.1797,6.1978,6.1978,6.1978,6.2168,6.2354,6.2407,6.1956,6.1545,6.1594,6.0419,5.9551,6.0126,5.9685,6.0138,6.3062,6.5925,6.9486,7.4294,7.3707,7.3817,7.6576,7.6907,7.7017,7.7273,7.7273,7.7273,7.7273,7.657,7.5763,7.4955,7.4147,7.334,7.2532,7.2496,7.2496,7.2496,7.2496,7.2496,7.2496,7.2496,7.2496,7.2496,7.2496,7.2496,7.2496,0.0,7.2496,7.2496,7.2496,7.2496,7.2496,7.2496,7.2496,7.2496,7.2496,7.2496,7.2606,7.3266,7.4037,7.4771,7.5028,7.5916,7.6833,7.6276,7.6607,7.709,7.709,7.72,7.7457,7.8222,7.8405,7.8405,7.8405,7.8405,7.8222,7.7457,7.7273,7.7273,7.7273,7.7273,7.7273,7.7273,7.7273,7.7273,7.7273,7.7273,7.7273,7.7273,7.7965,7.8112,7.7384,7.8589,7.947,7.958,8.0241,8.1232,8.259,8.1636,8.1929,8.3948,8.4939,8.582,8.6628,8.6775,8.6885,8.6995,8.6334,8.5563,8.4756,8.4205,8.3765,6.0629,6.1027,6.1571,6.2513,6.2512,6.2318,6.2475,6.1981,6.1385,6.1019,6.0015,5.9294,5.9661,6.0505,6.2365,6.6109,6.8311,7.077,7.4294,7.4147,7.4588,7.7017,7.7273,7.7273,7.7273,7.7273,7.7273,7.7273,7.6166,7.5285,7.4918,7.3707,7.2899,7.2496,7.2496,7.2496,7.2496,7.2496,7.2496,7.2496,7.2496,7.2496,7.2496,7.2496,7.2496,7.2496,0.0,7.2496,7.2496,7.2496,7.2496,7.2496,7.2496,7.2496,7.2496,7.2496,7.2496,7.2679,7.3927,7.4588,7.5065,7.5879,7.6686,7.7237,7.6864,7.698,7.7273,7.7273,7.7273,7.7384,7.7818,7.7892,7.7892,7.7892,7.7892,7.7818,7.7384,7.7273,7.7273,7.7273,7.7273,7.7273,7.7273,7.7273,7.7273,7.7273,7.7708,7.8002,7.8002,7.8736,7.9103,7.8699,7.9727,8.0608,8.1048,8.1819,8.281,8.3985,8.3765,8.4278,8.582,8.6261,8.6407,8.6334,8.6775,8.6811,8.6334,8.5967,8.604,8.6518,8.5747,8.56,5.9796,6.0194,6.0873,6.2503,6.2566,6.2546,6.3758,6.3141,6.2277,6.2156,6.119,6.0309,6.0065,6.234,6.5338,6.8641,7.066,7.2422,7.4294,7.4551,7.5249,7.7053,7.7273,7.7273,7.7273,7.7273,7.72,7.7017,7.5696,7.4845,7.4625,7.3266,7.2496,7.2496,7.2496,7.2496,7.2496,7.2496,7.2496,7.2496,7.2496,7.2496,7.2496,7.2496,7.2496,7.2496,7.2496,7.2496,7.2496,7.2496,7.2496,7.2496,7.2496,7.2496,7.2496,7.2496,7.2606,7.2973,7.4184,7.4882,7.5395,7.6644,7.7127,7.7273,7.7273,7.7273,7.7273,7.7273,7.7273,7.7347,7.753,7.7598,7.7598,7.7598,7.7598,7.753,7.7347,7.7273,7.7273,7.7273,7.7457,7.7598,7.7598,7.7781,7.7892,7.7892,7.8442,7.8883,7.8883,7.9727,8.0277,8.0094,8.1122,8.2186,8.2957,8.3801,8.4535,8.5123,8.5747,8.6371,8.6995,8.6995,8.6701,8.6077,8.6701,8.6591,8.5783,8.6187,8.6811,8.7619,8.7399,8.7619,6.0303,6.0231,5.9957,6.108,6.186,6.3408,6.7332,6.6589,6.5422,6.688,6.5338,6.3503,6.2695,6.5778,6.8788,6.9853,7.3817,7.6833,7.7017,7.7017,7.709,7.7273,7.7273,7.7273,7.7273,7.7273,7.698,7.624,7.5395,7.4588,7.3817,7.2973,7.2496,7.2496,7.2496,7.2496,7.2496,7.2496,7.2496,7.2496,7.2496,7.2496,7.2496,7.2496,7.2496,7.2496,7.2496,7.2496,7.2496,7.2496,7.2496,7.2496,7.2496,7.2496,7.2496,7.2496,7.2973,7.3634,7.3744,7.4771,7.6019,7.6166,7.6717,7.7273,7.7273,7.7273,7.7273,7.7273,7.7273,7.7494,7.8295,7.8516,7.8516,7.8516,7.8516,7.8295,7.7457,7.7273,7.7273,7.7273,7.7965,7.8516,7.8516,7.914,7.9617,7.9617,7.9653,7.969,7.969,8.1048,8.1746,8.1012,8.2957,8.4682,8.5453,8.6297,8.6775,8.6811,8.6885,8.6958,8.6995,8.6995,8.6995,8.6921,8.6995,8.6591,8.5783,8.7288,8.7325,8.6004,8.7435,8.8133,5.9144,5.9486,6.0197,6.2225,6.3424,6.4662,6.6846,6.7073,6.71,6.8238,6.7724,6.699,6.6659,6.7871,6.9669,7.1945,7.4698,7.6754,7.7237,7.7273,7.7273,7.7273,7.6864,7.6754,7.7237,7.6393,7.5909,7.6093,7.4882,7.4001,7.3707,7.2936,7.2496,7.2496,7.2496,7.2496,7.2496,7.2496,7.2496,7.2496,7.2496,7.2496,7.2496,7.2496,7.2496,7.2496,7.2496,7.2496,7.2496,7.2496,7.2496,7.2496,7.2496,7.2496,7.2569,7.3046,7.345,7.3817,7.4845,7.5579,7.6166,7.668,7.7053,7.7273,7.7273,7.7273,7.7273,7.7273,7.7273,7.7384,7.7708,7.7818,7.7818,7.7818,7.7818,7.7708,7.7347,7.7273,7.7457,7.8002,7.8369,7.8772,7.925,7.958,7.98,7.98,8.0241,8.0718,8.1232,8.226,8.303,8.3214,8.4499,8.5673,8.6481,8.6848,8.6995,8.6995,8.6995,8.6995,8.6995,8.6995,8.6775,8.6261,8.6738,8.6848,8.6554,8.7178,8.7912,8.8793,8.8904,8.9491,5.8362,5.8729,5.9547,6.1682,6.3466,6.5181,6.689,6.8274,6.9596,7.0917,7.0367,6.9522,6.9009,6.9522,7.077,7.2973,7.5102,7.668,7.72,7.7273,7.72,7.6974,7.668,7.6497,7.654,7.5799,7.5322,7.5322,7.4331,7.3597,7.334,7.2789,7.2496,7.2496,7.2496,7.2496,7.2496,7.2496,7.2496,7.2496,7.2496,7.2496,7.2496,7.2496,7.2496,7.2496,7.2496,7.2496,7.2496,7.2496,7.2496,7.2496,7.2496,7.2496,7.2606,7.3377,7.3854,7.4258,7.5616,7.6276,7.657,7.7127,7.7273,7.7273,7.7273,7.7273,7.7273,7.7273,7.7273,7.7273,7.7273,7.7273,7.7273,7.7273,7.7273,7.7384,7.7671,7.7708,7.7965,7.8809,7.9176,7.9543,8.0057,8.0388,8.0645,8.0901,8.1415,8.2039,8.2847,8.3654,8.4462,8.527,8.5857,8.6407,8.6958,8.6995,8.6995,8.6995,8.6995,8.6995,8.6995,8.6995,8.6628,8.582,8.6591,8.6885,8.6628,8.7399,8.861,9.0225,9.0188,9.0739,5.8355,5.8006,5.768,5.8799,6.1506,6.4815,6.8174,7.0807,7.3193,7.5616,7.356,7.0816,6.9265,7.0881,7.2496,7.2496,7.5212,7.7273,7.7273,7.7273,7.698,7.6203,7.679,7.6613,7.5065,7.5616,7.5395,7.3817,7.367,7.334,7.2532,7.2496,7.2496,7.2496,7.2496,7.2496,7.2496,7.2496,7.2496,7.2496,7.2496,7.2496,7.2496,7.2496,7.2496,7.2496,7.2496,7.2496,7.2496,7.2496,7.2496,7.2496,7.2496,7.2496,7.2606,7.3413,7.4221,7.5028,7.5836,7.6644,7.7273,7.7273,7.7273,7.7273,7.7273,7.7273,7.7273,7.7273,7.7273,7.7273,7.7273,7.7273,7.7273,7.7273,7.731,7.753,7.8405,7.8589,7.8846,7.9653,8.0461,8.1012,8.1012,8.1672,8.248,8.3287,8.3434,8.3728,8.4499,8.5306,8.6114,8.6921,8.6995,8.6995,8.6995,8.6995,8.6995,8.6995,8.6995,8.6995,8.6995,8.6995,8.6628,8.582,8.6591,8.6628,8.582,8.8243,8.9419,8.9455,9.1069,9.1803,5.8646,5.8917,5.9771,6.1919,6.4951,6.8257,7.1541,7.2826,7.4037,7.646,7.4845,7.2826,7.2349,7.2386,7.2679,7.323,7.5102,7.6644,7.72,7.6827,7.6387,7.613,7.5322,7.4808,7.4918,7.4111,7.3597,7.367,7.3193,7.2753,7.2496,7.2496,7.2496,7.2496,7.2496,7.2496,7.2496,7.2496,7.2496,7.2496,7.2496,7.2496,7.2496,7.2496,7.2496,7.2496,7.2496,7.2496,7.2496,7.2496,7.2496,7.2496,7.2496,7.2496,7.2679,7.4037,7.4698,7.5102,7.6497,7.709,7.7273,7.7273,7.7273,7.7273,7.7273,7.7273,7.7273,7.7273,7.7273,7.7273,7.7273,7.7273,7.7273,7.7273,7.7781,7.8295,7.8552,7.9029,7.9653,8.0498,8.0828,8.1379,8.2517,8.2884,8.3324,8.4132,8.4242,8.4535,8.5343,8.6151,8.6738,8.6995,8.6995,8.6995,8.6995,8.6995,8.6995,8.6995,8.6995,8.6995,8.6995,8.6995,8.6885,8.6664,8.7435,8.8023,8.8353,8.9638,9.0555,9.1106,9.1583,9.1803,5.9623,6.0124,6.1101,6.3412,6.6459,6.9926,7.378,7.4882,7.5542,7.698,7.5909,7.4661,7.4661,7.4258,7.4074,7.4551,7.5469,7.6276,7.6754,7.613,7.5506,7.5175,7.4551,7.4111,7.3964,7.3377,7.3046,7.3193,7.2789,7.2496,7.2496,7.2496,7.2496,7.2496,7.2496,7.2496,7.2496,7.2496,7.2496,7.2496,7.2496,7.2496,7.2496,7.2496,7.2496,7.2496,7.2496,7.2496,7.2496,7.2496,7.2496,7.2496,7.2496,7.2496,7.2679,7.4331,7.4918,7.5139,7.6723,7.7273,7.7273,7.7273,7.7273,7.7273,7.7273,7.7273,7.7273,7.7273,7.7273,7.7273,7.7273,7.7273,7.7273,7.7273,7.7965,7.8699,7.8993,7.969,8.0498,8.1305,8.1489,8.1893,8.3177,8.3398,8.3691,8.4499,8.4866,8.538,8.6151,8.6701,8.6995,8.6995,8.6995,8.6995,8.6995,8.6995,8.6995,8.6995,8.6701,8.6664,8.6995,8.6995,8.6848,8.6518,8.7325,8.8133,8.894,8.9748,9.0702,9.1803,9.1803,9.1803,6.0699,6.1432,6.2178,6.3991,6.6953,7.0624,7.5175,7.679,7.7273,7.7273,7.6717,7.6203,7.6203,7.6166,7.6093,7.6093,7.6056,7.5983,7.5983,7.5322,7.4515,7.378,7.4294,7.4111,7.2642,7.3156,7.3303,7.2569,7.2496,7.2496,7.2496,7.2496,7.2496,7.2496,7.2496,7.2496,7.2496,7.2496,7.2496,7.2496,7.2496,7.2496,7.2496,7.2496,7.2496,7.2496,7.2496,7.2496,7.2496,7.2496,7.2496,7.2496,7.2496,7.2496,7.2679,7.4331,7.4918,7.5139,7.6723,7.7273,7.7273,7.7273,7.7273,7.7273,7.7273,7.7273,7.7273,7.7273,7.7273,7.7273,7.7273,7.7347,7.742,7.742,7.8075,7.8919,7.9727,8.0534,8.1342,8.2039,8.2186,8.2443,8.3287,8.3398,8.3691,8.4499,8.527,8.604,8.6811,8.6958,8.6995,8.6995,8.6995,8.6995,8.6995,8.6995,8.6995,8.6995,8.6297,8.6224,8.6995,8.6921,8.6591,8.593,8.6701,8.7472,8.8206,8.9087,9.0262,9.1693,9.1767,9.1803,5.9395,6.1784,6.4741,6.6486,7.0293,7.4221,7.6503,7.7163,7.7273,7.7273,7.7163,7.7017,7.7017,7.6533,7.6093,7.6093,7.5579,7.5175,7.5175,7.4478,7.3891,7.3707,7.3303,7.2899,7.2532,7.2679,7.2679,7.2496,7.2496,7.2496,7.2496,7.2496,7.2496,7.2496,7.2496,7.2496,7.2496,7.2496,7.2496,7.2496,7.2496,7.2496,7.2496,7.2496,7.2496,7.2496,7.2496,7.2496,7.2496,7.2496,7.2496,7.2496,7.2496,7.2496,7.2679,7.4331,7.4918,7.5139,7.6723,7.7273,7.7273,7.7273,7.7273,7.7273,7.7273,7.7273,7.7273,7.7273,7.7273,7.7273,7.7273,7.7818,7.8332,7.8332,7.8956,7.9764,8.0571,8.1379,8.2003,8.215,8.2186,8.2443,8.3287,8.3398,8.3691,8.4499,8.527,8.5857,8.604,8.6628,8.6995,8.6995,8.6995,8.6995,8.6995,8.6995,8.6995,8.6995,8.6848,8.6811,8.6995,8.6407,8.6261,8.6738,8.7545,8.8023,8.8206,8.9638,9.0519,9.0886,9.151,9.1803,6.0284,6.2834,6.5913,6.9165,7.2165,7.4661,7.5873,7.646,7.6644,7.6209,7.676,7.7163,7.6827,7.6387,7.5983,7.5579,7.4845,7.4331,7.4331,7.3634,7.312,7.312,7.2753,7.2496,7.2496,7.2496,7.2496,7.2496,7.2496,7.2496,7.2496,7.2496,7.2496,7.2496,7.2496,7.2496,7.2496,7.2496,7.2496,7.2496,7.2496,7.2496,7.2496,7.2496,7.2496,7.2496,7.2496,7.2496,7.2496,7.2496,7.2496,7.2496,7.2496,7.2753,7.323,7.4441,7.5139,7.5652,7.687,7.7273,7.7273,7.7273,7.7273,7.7273,7.7273,7.7273,7.7273,7.7273,7.7273,7.7273,7.7273,7.7965,7.8699,7.9066,7.98,8.0498,8.0901,8.1636,8.2186,8.2186,8.2186,8.2443,8.3287,8.3398,8.3801,8.5013,8.5196,8.549,8.6261,8.6738,8.6995,8.6995,8.6995,8.6995,8.6995,8.6995,8.6995,8.6995,8.6628,8.6591,8.6995,8.6224,8.6187,8.6995,8.7435,8.7839,8.8206,8.905,8.9858,9.0629,9.1033,9.1436,6.0991,6.3628,6.6646,7.1329,7.3083,7.3891,7.4735,7.5432,7.5689,7.5065,7.6093,7.6864,7.6056,7.5763,7.5469,7.4808,7.4037,7.3487,7.3487,7.2936,7.2496,7.2496,7.2496,7.2496,7.2496,7.2496,7.2496,7.2496,7.2496,7.2496,7.2496,7.2496,7.2459,7.2312,7.2312,7.2239,7.2092,7.2092,7.2092,7.2092,7.2239,7.2386,7.2496,7.2496,7.2496,7.2496,7.2496,7.2496,7.2496,7.2496,7.2496,7.2496,7.2496,7.2973,7.378,7.4625,7.5432,7.624,7.7047,7.7273,7.7273,7.7273,7.7273,7.7273,7.7273,7.7273,7.7273,7.7273,7.7273,7.731,7.7494,7.8185,7.8993,7.98,8.0608,8.1232,8.1232,8.1746,8.2186,8.2186,8.2186,8.2406,8.3104,8.3214,8.3654,8.4976,8.4866,8.5086,8.6407,8.6848,8.6995,8.6995,8.6995,8.6958,8.6811,8.6921,8.6958,8.6811,8.6297,8.6297,8.6995,8.6371,8.6334,8.6995,8.6995,8.7325,8.7986,8.828,8.9087,9.0408,9.0702,9.1106,5.7886,6.2584,6.8065,7.1623,7.3083,7.3891,7.4735,7.4992,7.5028,7.4918,7.5652,7.6019,7.5212,7.4478,7.4001,7.3891,7.3193,7.2679,7.2679,7.2569,7.2496,7.2496,7.2496,7.2496,7.2496,7.2496,7.2496,7.2496,7.2496,7.2496,7.2496,7.2496,7.2202,7.1505,7.1468,7.1138,7.044,7.0403,7.0403,7.044,7.1138,7.1835,7.2496,7.2496,7.2496,7.2496,7.2496,7.2496,7.2496,7.2496,7.2496,7.2496,7.2496,7.2973,7.378,7.4625,7.5432,7.624,7.7047,7.7273,7.7273,7.7273,7.7273,7.7273,7.7273,7.7273,7.7273,7.7273,7.7273,7.7457,7.8222,7.9029,7.9837,8.0645,8.1452,8.2039,8.2039,8.2113,8.2186,8.2186,8.2186,8.2223,8.2333,8.237,8.2443,8.2627,8.3765,8.4682,8.4903,8.6151,8.6995,8.6995,8.6995,8.6738,8.6004,8.6591,8.6701,8.6004,8.6518,8.6885,8.6995,8.6921,8.6885,8.6995,8.6995,8.7068,8.7178,8.8573,8.9381,8.9601,9.0996,9.1326,5.9295,6.3487,6.7634,7.0999,7.2092,7.2569,7.3377,7.3891,7.4111,7.367,7.4184,7.4661,7.4294,7.3927,7.356,7.3083,7.2716,7.2496,7.2496,7.2496,7.2496,7.2496,7.2496,7.2496,7.2496,7.2496,7.2496,7.2496,7.2496,7.2496,7.2496,7.2496,7.2129,7.1329,7.1293,7.0917,7.011,7.011,7.011,7.011,7.0917,7.1505,7.1835,7.2312,7.2496,7.2496,7.2496,7.2496,7.2496,7.2496,7.2496,7.2496,7.2496,7.3266,7.4441,7.4771,7.5689,7.6827,7.7163,7.7273,7.7273,7.7273,7.7273,7.7273,7.7273,7.7273,7.7273,7.7273,7.7273,7.7494,7.8369,7.9176,7.9984,8.0828,8.1599,8.2333,8.2774,8.2517,8.2186,8.2186,8.2186,8.2186,8.2186,8.2186,8.2517,8.3398,8.4168,8.4939,8.582,8.6554,8.6995,8.6995,8.6591,8.6187,8.582,8.571,8.571,8.5783,8.6114,8.6518,8.6995,8.6995,8.6995,8.6995,8.6995,8.6995,8.6995,8.7729,8.8536,8.9382,8.9674,9.0078,5.9575,6.2767,6.5394,6.8376,6.987,7.0787,7.1468,7.2532,7.323,7.2606,7.2973,7.3377,7.3377,7.3377,7.3193,7.2606,7.2496,7.2496,7.2496,7.2496,7.2496,7.2496,7.2496,7.2496,7.2496,7.2496,7.2496,7.2496,7.2496,7.2496,7.2496,7.2312,7.1835,7.1027,7.0807,7.0293,6.9486,6.9486,6.9596,6.9816,7.0624,7.1101,7.1329,7.2129,7.2496,7.2496,7.2496,7.2496,7.2496,7.2496,7.2496,7.2496,7.2496,7.3487,7.4918,7.4918,7.5916,7.7273,7.7273,7.7273,7.7273,7.7273,7.7273,7.7273,7.7273,7.7273,7.7273,7.7273,7.7457,7.7855,7.8662,7.9507,8.0314,8.1122,8.1746,8.2406,8.3251,8.3104,8.2737,8.2553,8.2663,8.2737,8.2553,8.2663,8.3214,8.4425,8.4609,8.5123,8.6518,8.6701,8.6775,8.6995,8.6481,8.6004,8.582,8.5453,8.538,8.5783,8.5967,8.6371,8.6995,8.6995,8.6995,8.6995,8.6995,8.6995,8.6995,8.7215,8.8059,8.9417,8.8793,8.916,5.5861,5.8383,6.0715,6.2676,6.6023,6.8879,6.9054,7.0881,7.2569,7.2496,7.2532,7.2569,7.2569,7.2569,7.2569,7.2496,7.2496,7.2496,7.2496,7.2496,7.2496,7.2496,7.2496,7.2496,7.2496,7.2496,7.2496,7.2496,7.2496,7.2496,7.2496,7.1798,7.0991,7.0183,6.9412,6.8641,6.7834,6.7797,6.8201,6.8972,6.9779,7.055,7.1329,7.2129,7.2496,7.2496,7.2496,7.2496,7.2496,7.2496,7.2496,7.2496,7.2496,7.3487,7.4918,7.4918,7.5916,7.7273,7.7273,7.7273,7.7273,7.7273,7.7273,7.7273,7.7273,7.7273,7.7273,7.7273,7.7892,7.8699,7.9507,8.0314,8.1158,8.1929,8.215,8.2406,8.3251,8.3985,8.4242,8.3508,8.3948,8.4242,8.3471,8.3985,8.4499,8.4609,8.4609,8.4903,8.5747,8.5857,8.6151,8.6921,8.6958,8.6628,8.5857,8.6481,8.6591,8.5857,8.6518,8.6958,8.6995,8.6995,8.6995,8.6995,8.6995,8.6995,8.6995,8.7766,8.8573,8.9382,8.9345,8.9345,5.4335,5.6528,5.8906,6.1334,6.3397,6.5427,6.7623,6.9192,7.0477,7.1541,7.2165,7.2496,7.2496,7.2496,7.2496,7.2496,7.2496,7.2496,7.2496,7.2496,7.2496,7.2496,7.2496,7.2496,7.2496,7.2496,7.2496,7.2496,7.2496,7.2496,7.2496,7.1762,7.0954,7.011,6.9339,6.8495,6.7714,6.7687,6.8091,6.8898,6.9706,7.0513,7.1329,7.2129,7.2496,7.2496,7.2496,7.2496,7.2496,7.2496,7.2496,7.2496,7.2496,7.3487,7.4918,7.4918,7.5916,7.7273,7.7273,7.7273,7.7273,7.7273,7.7273,7.7273,7.7273,7.7708,7.8148,7.8148,7.8642,7.938,8.0319,8.0695,8.1065,8.197,8.2994,8.3838,8.4132,8.3581,8.3287,8.4022,8.3985,8.3911,8.4132,8.4425,8.4242,8.3214,8.3948,8.4315,8.3581,8.4389,8.5123,8.5453,8.5013,8.4792,8.5013,8.4829,8.5013,8.5747,8.6077,8.6481,8.6995,8.6995,8.6995,8.6995,8.6995,8.6995,8.6995,8.7802,8.861,8.9417,8.8867,8.8904,5.2427,5.4384,5.6649,5.8507,6.0212,6.2274,6.5663,6.7513,6.9045,7.0917,7.1945,7.2496,7.2496,7.2496,7.2496,7.2496,7.2496,7.2496,7.2496,7.2496,7.2496,7.2496,7.2496,7.2496,7.2496,7.2496,7.2496,7.2496,7.2496,0.0,7.2496,7.1505,7.0403,6.9339,6.8788,6.8238,6.7714,6.7687,6.8091,6.8898,6.9706,7.0513,7.1329,7.2129,7.2496,7.2496,7.2496,7.2496,7.2496,7.2496,7.2496,7.2496,7.2496,7.3458,7.4829,7.4888,7.5886,7.7248,7.7273,7.7279,7.7248,7.731,7.7279,7.7285,7.764,7.8148,7.8662,7.8919,7.9416,8.0052,8.0833,8.1098,8.1362,8.2043,8.303,8.3875,8.4132,8.3765,8.3618,8.4425,8.4168,8.3911,8.4168,8.4425,8.4242,8.3177,8.3691,8.3911,8.3104,8.3691,8.4315,8.4572,8.4352,8.4425,8.4976,8.4756,8.5086,8.6151,8.6187,8.6444,8.6995,8.6995,8.6995,8.6995,8.6995,8.6995,8.6995,8.7545,8.8353,8.9345,8.8316,8.8096,0.0,0.0,0.0,5.3803,5.6272,5.9554,6.2933,6.5626,6.8164,7.0632,7.1835,7.2422,7.2496,7.2496,7.2496,7.2496,7.2496,7.2496,7.2496,7.2496,7.2496,7.2496,7.2496,7.2496,7.2496,7.2496,7.2496,7.2496,7.2496,7.2496,7.2496,7.0954,6.9339,6.7724,6.7687,6.7687,6.7687,6.7724,6.8128,6.8972,6.9743,7.055,7.1329,7.2165,7.2496,7.2496,7.2496,7.2496,7.2496,7.2496,7.2496,7.2496,7.2496,7.3399,7.4708,7.4859,7.5825,7.7124,7.7279,7.7217,7.7124,7.7243,7.7217,7.727,7.8301,7.8626,7.8809,7.958,8.0259,8.0784,8.0947,8.1599,8.2186,8.2186,8.2223,8.2443,8.3251,8.4646,8.549,8.4756,8.4572,8.4315,8.3581,8.4095,8.4572,8.4499,8.3838,8.3618,8.4389,8.3801,8.3654,8.4499,8.5306,8.5747,8.5783,8.6518,8.6995,8.6995,8.6995,8.6995,8.6995,8.6995,8.6995,8.6995,8.7031,8.7031,8.7031,8.7031,8.7839,8.9308,8.7766,8.7031,4.8611,0.0,0.0,0.0,0.0,0.0,0.0,6.0079,6.2643,6.6819,6.888,7.044,7.2165,7.2496,7.2496,7.2496,7.2496,7.2496,7.2496,7.2496,7.2496,7.2496,7.2496,7.2496,7.2496,7.2496,7.2496,0.0,7.2496,7.2496,7.2496,7.0954,6.9339,6.7724,6.7687,6.7687,6.7687,6.8274,6.8972,6.9779,7.0587,7.1394,7.2202,7.2422,7.2496,7.2496,7.2496,7.2496,7.2496,7.2496,7.2496,7.2467,7.238,7.3369,7.4829,7.4768,7.5825,7.7248,7.7186,7.7124,7.7124,7.7155,7.7124,7.727,7.8301,7.8898,7.9425,8.0231,8.0868,8.1422,8.1589,8.1905,8.2186,8.2186,8.2627,8.3141,8.3361,8.3765,8.4168,8.4535,8.4132,8.3875,8.4205,8.4462,8.4022,8.226,8.1819,8.1746,8.1966,8.1819,8.2443,8.4389,8.4792,8.5159,8.5747,8.6004,8.6371,8.6958,8.6995,8.6995,8.6995,8.6995,8.6995,8.6995,8.7582,8.7876,8.7876,8.7876,8.8096,8.8536,8.8096,8.7582,4.7864,0.0,0.0,0.0,0.0,0.0,5.6163,5.8251,6.0761,6.5374,6.7112,6.8587,7.1064,7.0954,7.0844,7.1835,7.2018,7.2129,7.2459,7.2496,7.2496,7.2496,7.2496,7.2496,7.2496,7.2496,7.2496,7.2496,7.2496,7.2349,7.2018,7.0807,6.9495,6.8156,6.8083,6.7909,6.7524,6.8715,6.9549,7.0026,7.0889,7.1725,7.2496,7.2438,7.2409,7.2409,7.2409,7.2409,7.2409,7.2409,7.2409,7.2416,7.2695,7.358,7.4744,7.5043,7.6056,7.7217,7.7124,7.7061,7.6998,7.7092,7.728,7.7651,7.8652,7.9458,8.0166,8.0871,8.1386,8.1751,8.1852,8.2055,8.2186,8.2186,8.2553,8.292,8.292,8.292,8.3141,8.3948,8.3471,8.3067,8.3508,8.3581,8.3104,8.1709,8.1782,8.197,8.1905,8.2231,8.2997,8.4324,8.4869,8.527,8.5747,8.6114,8.6518,8.6995,8.6995,8.7142,8.7509,8.7509,8.7655,8.7986,8.8133,8.8023,8.7692,8.8059,8.8023,8.7692,8.7692,8.7472,4.7596,4.9286,0.0,0.0,5.1322,0.0,5.5898,5.7984,6.0416,6.4406,6.5347,6.6243,6.8807,6.8174,6.7954,6.9981,7.0714,7.1366,7.2386,7.2496,7.2496,7.2496,7.2496,7.2496,7.2496,7.2496,7.2496,7.2467,7.2467,7.2137,7.1329,7.0624,6.9797,6.886,6.8787,6.8337,6.7466,6.9169,7.0031,7.0031,7.0979,7.1806,7.2467,7.2321,7.2299,7.2299,7.2299,7.2299,7.2329,7.2299,7.2299,7.2372,7.3147,7.3861,7.4535,7.5499,7.6366,7.7092,7.7061,7.6934,7.6801,7.6998,7.7477,7.8183,7.9186,8.0023,8.0798,8.154,8.179,8.1889,8.1962,8.2058,8.2121,8.2121,8.2121,8.2121,8.2121,8.2121,8.2341,8.3074,8.2667,8.2154,8.2154,8.2227,8.23,8.23,8.2851,8.3261,8.3349,8.3963,8.4437,8.452,8.5353,8.5896,8.5896,8.6591,8.6995,8.6995,8.6995,8.7325,8.8059,8.8059,8.839,8.9124,8.8426,8.7766,8.7142,8.7766,8.7692,8.6995,8.6995,8.6995,4.8356,4.8757,4.9078,4.935,0.0,0.0,5.0624,5.2908,5.5678,5.7802,5.9395,6.1112,6.3513,6.4244,6.4427,6.4244,6.703,6.9998,7.2173,7.2496,7.2496,7.2496,7.2496,7.2496,7.2496,7.2496,7.2438,7.2358,7.2358,7.2021,7.1329,7.1174,7.0612,6.9701,6.9628,6.947,6.9114,7.0274,7.0872,7.0872,7.1706,7.2212,7.2358,7.2144,7.2144,7.2299,7.2114,7.2204,7.2438,7.2174,7.2174,7.2343,7.2875,7.3738,7.4726,7.5279,7.6177,7.7061,7.6773,7.668,7.6643,7.6838,7.7283,7.8055,7.9154,7.9858,8.0606,8.199,8.1989,8.1694,8.2452,8.2158,8.1717,8.1717,8.1717,8.1717,8.1717,8.1717,8.1754,8.19,8.1962,8.1952,8.1952,8.2501,8.2907,8.2907,8.2504,8.2907,8.4813,8.3941,8.3873,8.5772,8.6315,8.6529,8.6529,8.6817,8.6995,8.6995,8.6995,8.7068,8.7252,8.7252,8.7325,8.7472,8.7325,8.7472,8.7949,8.7472,8.7142,8.6995,8.6995,8.6995,4.7796,4.8189,4.8754,4.9371,0.0,0.0,0.0,5.1538,5.346,5.5801,5.6357,5.7279,6.0186,6.0368,6.0514,6.1719,6.5021,6.7853,6.9144,7.1162,7.2496,7.2496,7.2496,7.2467,7.2416,7.238,7.2351,7.2329,7.2204,7.205,7.183,7.1304,7.0785,7.0274,7.0237,7.0025,6.95,7.0827,7.1288,7.0975,7.1779,7.2144,7.2144,7.1964,7.1994,7.2144,7.1964,7.2024,7.2263,7.1994,7.2219,7.2687,7.3333,7.4165,7.5129,7.577,7.6413,7.6934,7.6712,7.6614,7.6614,7.6676,7.748,7.8501,7.9102,7.9881,8.0835,8.1775,8.1737,8.1517,8.2055,8.1907,8.1579,8.1579,8.1579,8.1579,8.1579,8.1579,8.1725,8.2126,8.2235,8.227,8.2372,8.2769,8.3205,8.3504,8.3578,8.3981,8.508,8.4825,8.5044,8.6283,8.6572,8.675,8.6856,8.6925,8.6995,8.6995,8.6995,8.7178,8.7582,8.7619,8.7619,8.7619,8.7619,8.7619,8.7619,8.7215,8.6995,8.6995,8.6995,8.6995,0.0,0.0,0.0,0.0,0.0,4.9785,0.0,0.0,0.0,0.0,0.0,0.0,0.0,5.6539,0.0,5.9199,0.0,0.0,0.0,6.8348,0.0,7.1676,7.2116,7.2277,7.205,7.1838,7.1874,7.2233,7.1792,7.1726,7.2233,7.1464,7.095,7.0835,7.0835,7.0508,6.9824,7.1132,7.1514,7.098,7.1666,7.1957,7.1957,7.1811,7.1811,7.1927,7.1811,7.1842,7.1988,7.1811,7.233,7.3307,7.3893,7.4656,7.5487,7.6254,7.6643,7.6741,7.6578,7.6548,7.6548,7.6581,7.7704,7.9049,7.9342,8.0184,8.1164,8.1486,8.1449,8.1411,8.166,8.1621,8.1512,8.1512,8.1621,8.1731,8.1731,8.184,8.2168,8.2823,8.2863,8.2828,8.2968,8.3253,8.3616,8.4133,8.4862,8.53,8.5155,8.5846,8.632,8.632,8.6501,8.675,8.6925,8.696,8.6995,8.6995,8.6995,8.7288,8.7949,8.7986,8.7986,8.7986,8.7986,8.7655,8.6995,8.6995,8.6995,8.6995,8.6995,8.7105,0.0,0.0,0.0,0.0,4.9378,0.0,0.0,0.0,4.9809,4.9386,0.0,0.0,0.0,0.0,0.0,0.0,0.0,0.0,5.9536,6.3126,6.6564,6.8718,7.077,7.1792,7.1033,7.0221,7.0374,7.1908,7.0556,7.0374,7.1945,7.1945,7.1818,7.1671,7.1671,7.1537,7.1272,7.1615,7.1744,7.1702,7.1775,7.1811,7.1847,7.1625,7.1656,7.1811,7.1625,7.1713,7.1988,7.1651,7.2527,7.407,7.3982,7.4559,7.5455,7.6122,7.6445,7.6614,7.6412,7.6309,7.6378,7.6548,7.7704,7.9233,8.0475,8.0947,8.1237,8.1997,8.1671,8.1309,8.2033,8.1707,8.1163,8.1163,8.1707,8.2215,8.2215,8.2758,8.3302,8.3411,8.3484,8.3592,8.3628,8.4246,8.4791,8.49,8.5519,8.5991,8.5954,8.5951,8.6024,8.61,8.632,8.6537,8.6715,8.6891,8.6995,8.6995,8.6995,8.7031,8.7142,8.7142,8.7142,8.7142,8.7142,8.7105,8.6995,8.6995,8.6995,8.6995,8.6995,8.7399,0.0,0.0,0.0,0.0,0.0,0.0,4.7157,0.0,4.7945,0.0,0.0,0.0,0.0,0.0,0.0,0.0,5.5499,0.0,0.0,0.0,6.4021,0.0,0.0,0.0,6.7898,6.7898,6.8414,6.9718,6.946,6.983,7.1108,7.152,7.1682,7.1625,7.1625,7.1656,7.1656,7.1656,7.1687,7.1816,7.1687,7.1625,7.1625,7.1526,7.1625,7.1816,7.1593,7.1656,7.1872,7.1589,7.2504,7.4018,7.3954,7.4714,7.594,7.62,7.6378,7.6412,7.6345,7.6275,7.649,7.75,7.8588,7.9712,8.0766,8.1128,8.1165,8.1527,8.1382,8.1201,8.1527,8.1346,8.1128,8.1128,8.1708,8.2287,8.2287,8.2903,8.3627,8.4098,8.4245,8.4427,8.4898,8.4972,8.5082,8.5479,8.5768,8.595,8.595,8.5987,8.6099,8.6247,8.6429,8.668,8.6856,8.6925,8.6995,8.6995,8.6995,8.6995,8.6995,8.6995,8.6995,8.6995,8.6995,8.6995,8.6995,8.6995,8.6995,8.7031,8.7472,8.7876,5.1589,0.0,0.0,0.0,0.0,0.0,0.0,0.0,0.0,0.0,0.0,0.0,0.0,0.0,0.0,0.0,0.0,5.5579,0.0,5.7815,0.0,0.0,0.0,0.0,0.0,6.5467,6.6156,6.7687,6.7853,6.8657,7.0447,7.0941,7.1277,7.1494,7.1494,7.1593,7.1718,7.1557,7.1557,7.1718,7.1593,7.1494,7.1494,7.1494,7.1593,7.1687,7.1557,7.1593,7.1723,7.178,7.2653,7.3921,7.4138,7.508,7.6275,7.6275,7.6275,7.6275,7.6275,7.642,7.6891,7.8521,7.9426,8.0042,8.0875,8.1128,8.1128,8.1128,8.1128,8.1128,8.1128,8.1128,8.1165,8.1382,8.2034,8.2686,8.2903,8.3591,8.4316,8.4895,8.504,8.5221,8.5801,8.5515,8.5334,8.5838,8.5909,8.5911,8.5948,8.6062,8.621,8.6429,8.6608,8.6786,8.696,8.6995,8.6995,8.6995,8.6995,8.6995,8.6995,8.6995,8.6995,8.6995,8.6995,8.6995,8.6995,8.6995,8.7105,8.7362,8.7949,8.8316,0.0,0.0,0.0,5.0642,0.0,0.0,0.0,0.0,4.7187,0.0,0.0,0.0,0.0,0.0,0.0,0.0,0.0,0.0,0.0,0.0,0.0,0.0,0.0,0.0,0.0,6.3056,6.3454,0.0,6.541,6.6243,7.0221,7.0439,7.0734,7.1494,7.1494,7.1494,7.1494,7.1494,7.1494,7.1494,7.1494,7.1494,7.1494,7.1494,7.1494,7.1494,7.1494,7.1494,7.1567,7.2327,7.316,7.3993,7.4757,7.5587,7.6275,7.6275,7.6275,7.6275,7.6275,7.6818,7.7724,7.9354,7.9897,8.0042,8.0875,8.1128,8.1128,8.1128,8.1128,8.1128,8.1128,8.1128,8.1309,8.207,8.2867,8.3664,8.446,8.5257,8.5837,8.5873,8.5873,8.5873,8.5909,8.5873,8.5873,8.5909,8.5909,8.5948,8.6063,8.61,8.6247,8.6643,8.6715,8.6786,8.696,8.6995,8.6995,8.6995,8.6995,8.6995,8.6995,8.6995,8.6995,8.6995,8.6995,8.6995,8.6995,8.6995,8.7399,8.8169,8.8206,8.861,0.0,0.0,5.3315,5.2536,0.0,0.0,0.0,0.0,0.0,0.0,0.0,0.0,0.0,0.0,0.0,0.0,0.0,0.0,0.0,0.0,0.0,0.0,0.0,0.0,0.0,0.0,0.0,0.0,6.3599,0.0,6.7873,6.9032,6.9968,7.0734,7.1241,7.1494,7.1494,7.1494,7.1494,7.1494,7.1494,7.1494,7.1494,7.1494,7.1494,7.1494,7.1494,7.182,7.2327,7.2581,7.3486,7.4721,7.4974,7.5587,7.6275,7.6275,7.6275,7.6384,7.6891,7.7615,7.8484,7.9571,8.0259,8.0766,8.102,8.1128,8.1128,8.1128,8.1128,8.1128,8.1128,8.1491,8.1961,8.2215,8.3301,8.4352,8.4642,8.533,8.5909,8.5909,8.5909,8.5909,8.5909,8.5909,8.5909,8.5909,8.5909,8.5948,8.6063,8.621,8.6392,8.6643,8.6821,8.6925,8.6995,8.6995,8.6995,8.6995,8.6995,8.6925,8.6821,8.6821,8.675,8.6609,8.675,8.6821,8.6821,8.7476,8.7949,8.8243,8.9307,8.9931,5.7476,5.6562,0.0,5.4803,5.2672,0.0,4.9424,0.0,0.0,0.0,0.0,0.0,0.0,0.0,0.0,0.0,0.0,0.0,0.0,5.213,0.0,0.0,0.0,0.0,0.0,0.0,5.9361,6.1797,6.1969,0.0,0.0,0.0,6.914,6.9968,7.0951,7.1494,7.1494,7.1494,7.1494,7.1494,7.1494,7.1494,7.1494,7.1494,7.1494,7.1531,7.182,7.2219,7.2762,7.3342,7.4142,7.5119,7.5442,7.5841,7.6275,7.6275,7.6456,7.6818,7.7651,7.8448,7.9245,8.0078,8.0694,8.1128,8.1128,8.1128,8.1128,8.1128,8.1128,8.1128,8.1128,8.1708,8.236,8.265,8.3736,8.4786,8.504,8.5511,8.5909,8.5909,8.5909,8.5909,8.5909,8.5909,8.5909,8.5909,8.5909,8.5948,8.6063,8.6283,8.6501,8.6679,8.6891,8.6995,8.6995,8.6856,8.6821,8.6891,8.6821,8.675,8.6572,8.6572,8.6573,8.6501,8.6608,8.686,8.7224,8.7879,8.85,8.9087,9.0115,9.0739]}]]